<?xml version="1.0" encoding="UTF-8" standalone="no" ?><gpx xmlns="http://www.topografix.com/GPX/1/1" xmlns:gpxx="http://www.garmin.com/xmlschemas/GpxExtensions/v3" xmlns:wptx1="http://www.garmin.com/xmlschemas/WaypointExtension/v1" xmlns:gpxtpx="http://www.garmin.com/xmlschemas/TrackPointExtension/v1" creator="GuideVTT.com" version="1.1" xmlns:xsi="http://www.w3.org/2001/XMLSchema-instance" xsi:schemaLocation="http://www.topografix.com/GPX/1/1 http://www.topografix.com/GPX/1/1/gpx.xsd http://www.garmin.com/xmlschemas/GpxExtensions/v3 http://www8.garmin.com/xmlschemas/GpxExtensionsv3.xsd http://www.garmin.com/xmlschemas/WaypointExtension/v1 http://www8.garmin.com/xmlschemas/WaypointExtensionv1.xsd http://www.garmin.com/xmlschemas/TrackPointExtension/v1 http://www.garmin.com/xmlschemas/TrackPointExtensionv1.xsd">
<metadata><link href="http://www.garmin.com"><text>Garmin International</text></link><time>2013-06-22T15:13:50Z</time></metadata>
<trk><name>070218gingins promenade.gpx</name><extensions><gpxx:TrackExtension><gpxx:DisplayColor>Cyan</gpxx:DisplayColor></gpxx:TrackExtension></extensions><trkseg>
<trkpt lat="46.40871763" lon="6.17805004"><ele>551.918457</ele><time>2007-02-18T21:47:54Z</time></trkpt>
<trkpt lat="46.40891075" lon="6.17751360"><ele>542.786011</ele><time>2007-02-18T21:47:54Z</time></trkpt>
<trkpt lat="46.40830994" lon="6.17684841"><ele>540.863403</ele><time>2007-02-18T21:47:54Z</time></trkpt>
<trkpt lat="46.41079903" lon="6.17386580"><ele>309.668091</ele><time>2007-02-18T21:47:54Z</time></trkpt>
<trkpt lat="46.40818119" lon="6.17695570"><ele>551.918457</ele><time>2007-02-18T21:47:54Z</time></trkpt>
<trkpt lat="46.40766621" lon="6.17667675"><ele>548.073242</ele><time>2007-02-18T21:47:54Z</time></trkpt>
<trkpt lat="46.40732288" lon="6.17605448"><ele>547.111816</ele><time>2007-02-18T21:47:54Z</time></trkpt>
<trkpt lat="46.40760183" lon="6.17317915"><ele>548.073242</ele><time>2007-02-18T21:47:54Z</time></trkpt>
<trkpt lat="46.40824556" lon="6.17150545"><ele>554.321777</ele><time>2007-02-18T21:47:55Z</time></trkpt>
<trkpt lat="46.40871763" lon="6.16963863"><ele>560.570068</ele><time>2007-02-18T21:47:55Z</time></trkpt>
<trkpt lat="46.40918970" lon="6.16897345"><ele>564.415527</ele><time>2007-02-18T21:47:55Z</time></trkpt>
<trkpt lat="46.40914679" lon="6.16790056"><ele>564.89624</ele><time>2007-02-18T21:47:55Z</time></trkpt>
<trkpt lat="46.40725851" lon="6.16517544"><ele>561.531494</ele><time>2007-02-18T21:47:55Z</time></trkpt>
<trkpt lat="46.40629292" lon="6.16268635"><ele>559.608887</ele><time>2007-02-18T21:47:55Z</time></trkpt>
<trkpt lat="46.40440464" lon="6.15993977"><ele>562.012207</ele><time>2007-02-18T21:47:55Z</time></trkpt>
<trkpt lat="46.40305281" lon="6.15702152"><ele>565.857666</ele><time>2007-02-18T21:47:55Z</time></trkpt>
<trkpt lat="46.40386820" lon="6.15914583"><ele>565.857666</ele><time>2007-02-18T21:47:55Z</time></trkpt>
<trkpt lat="46.40537024" lon="6.16142035"><ele>564.415527</ele><time>2007-02-18T21:47:55Z</time></trkpt>
<trkpt lat="46.40373945" lon="6.15869522"><ele>566.818848</ele><time>2007-02-18T21:47:55Z</time></trkpt>
<trkpt lat="46.40333176" lon="6.15751505"><ele>565.857666</ele><time>2007-02-18T21:47:55Z</time></trkpt>
<trkpt lat="46.40178680" lon="6.15440369"><ele>563.454102</ele><time>2007-02-18T21:47:55Z</time></trkpt>
<trkpt lat="46.40069246" lon="6.15288019"><ele>561.050781</ele><time>2007-02-18T21:47:55Z</time></trkpt>
<trkpt lat="46.39846087" lon="6.15090609"><ele>561.050781</ele><time>2007-02-18T21:47:55Z</time></trkpt>
<trkpt lat="46.39515638" lon="6.14605665"><ele>566.818848</ele><time>2007-02-18T21:47:55Z</time></trkpt>
<trkpt lat="46.39378309" lon="6.14545584"><ele>560.570068</ele><time>2007-02-18T21:47:55Z</time></trkpt>
<trkpt lat="46.39084339" lon="6.14324570"><ele>553.360352</ele><time>2007-02-18T21:47:55Z</time></trkpt>
<trkpt lat="46.39009237" lon="6.14247322"><ele>554.802246</ele><time>2007-02-18T21:47:55Z</time></trkpt>
<trkpt lat="46.39088631" lon="6.14182949"><ele>559.128174</ele><time>2007-02-18T21:47:55Z</time></trkpt>
<trkpt lat="46.39090776" lon="6.14150763"><ele>561.050781</ele><time>2007-02-18T21:47:55Z</time></trkpt>
<trkpt lat="46.39039278" lon="6.14064932"><ele>561.050781</ele><time>2007-02-18T21:47:55Z</time></trkpt>
<trkpt lat="46.38880491" lon="6.13882542"><ele>570.18335</ele><time>2007-02-18T21:47:56Z</time></trkpt>
<trkpt lat="46.38839722" lon="6.13888979"><ele>568.741455</ele><time>2007-02-18T21:47:56Z</time></trkpt>
<trkpt lat="46.38507128" lon="6.13652945"><ele>562.973389</ele><time>2007-02-18T21:47:56Z</time></trkpt>
<trkpt lat="46.38427734" lon="6.13618612"><ele>561.531494</ele><time>2007-02-18T21:47:56Z</time></trkpt>
<trkpt lat="46.38322592" lon="6.13524199"><ele>559.608887</ele><time>2007-02-18T21:47:56Z</time></trkpt>
<trkpt lat="46.38228178" lon="6.13007069"><ele>578.354492</ele><time>2007-02-18T21:47:56Z</time></trkpt>
<trkpt lat="46.38198137" lon="6.12946987"><ele>581.718994</ele><time>2007-02-18T21:47:56Z</time></trkpt>
<trkpt lat="46.38054371" lon="6.12777472"><ele>582.199707</ele><time>2007-02-18T21:47:56Z</time></trkpt>
<trkpt lat="46.37835503" lon="6.12393379"><ele>578.835205</ele><time>2007-02-18T21:47:56Z</time></trkpt>
<trkpt lat="46.37760401" lon="6.12313986"><ele>574.509277</ele><time>2007-02-18T21:47:56Z</time></trkpt>
<trkpt lat="46.37668133" lon="6.12296820"><ele>579.315674</ele><time>2007-02-18T21:47:56Z</time></trkpt>
<trkpt lat="46.37588739" lon="6.12236738"><ele>573.067383</ele><time>2007-02-18T21:47:56Z</time></trkpt>
<trkpt lat="46.37502909" lon="6.12146616"><ele>571.144775</ele><time>2007-02-18T21:47:56Z</time></trkpt>
<trkpt lat="46.37524366" lon="6.12088680"><ele>569.222168</ele><time>2007-02-18T21:47:56Z</time></trkpt>
<trkpt lat="46.37560844" lon="6.12140179"><ele>574.028564</ele><time>2007-02-18T21:47:56Z</time></trkpt>
<trkpt lat="46.37569427" lon="6.12135887"><ele>575.951172</ele><time>2007-02-18T21:47:56Z</time></trkpt>
<trkpt lat="46.37520075" lon="6.12092972"><ele>568.260742</ele><time>2007-02-18T21:47:56Z</time></trkpt>
<trkpt lat="46.37494326" lon="6.12140179"><ele>566.818848</ele><time>2007-02-18T21:47:56Z</time></trkpt>
<trkpt lat="46.37464285" lon="6.12159491"><ele>564.89624</ele><time>2007-02-18T21:47:56Z</time></trkpt>
<trkpt lat="46.37346268" lon="6.12007141"><ele>568.260742</ele><time>2007-02-18T21:47:56Z</time></trkpt>
<trkpt lat="46.37264729" lon="6.12030745"><ele>683.137207</ele><time>2007-02-18T21:47:56Z</time></trkpt>
<trkpt lat="46.37316227" lon="6.11962080"><ele>566.818848</ele><time>2007-02-18T21:47:57Z</time></trkpt>
<trkpt lat="46.37142420" lon="6.11762524"><ele>578.835205</ele><time>2007-02-18T21:47:57Z</time></trkpt>
<trkpt lat="46.37105942" lon="6.11736774"><ele>576.431885</ele><time>2007-02-18T21:47:57Z</time></trkpt>
<trkpt lat="46.37112379" lon="6.11760378"><ele>584.122314</ele><time>2007-02-18T21:47:57Z</time></trkpt>
<trkpt lat="46.37344122" lon="6.12011433"><ele>567.780029</ele><time>2007-02-18T21:47:57Z</time></trkpt>
<trkpt lat="46.37372017" lon="6.12067223"><ele>594.216064</ele><time>2007-02-18T21:47:57Z</time></trkpt>
<trkpt lat="46.37427807" lon="6.12047911"><ele>602.86792</ele><time>2007-02-18T21:47:57Z</time></trkpt>
<trkpt lat="46.37408495" lon="6.12101555"><ele>619.210205</ele><time>2007-02-18T21:47:57Z</time></trkpt>
<trkpt lat="46.37459993" lon="6.12165928"><ele>584.603027</ele><time>2007-02-18T21:47:57Z</time></trkpt>
<trkpt lat="46.37556553" lon="6.12185240"><ele>573.548096</ele><time>2007-02-18T21:47:57Z</time></trkpt>
<trkpt lat="46.37588739" lon="6.12234592"><ele>574.028564</ele><time>2007-02-18T21:47:57Z</time></trkpt>
<trkpt lat="46.37678862" lon="6.12303257"><ele>579.315674</ele><time>2007-02-18T21:47:57Z</time></trkpt>
<trkpt lat="46.37775421" lon="6.12348318"><ele>580.2771</ele><time>2007-02-18T21:47:57Z</time></trkpt>
<trkpt lat="46.37869835" lon="6.12457752"><ele>580.757813</ele><time>2007-02-18T21:47:57Z</time></trkpt>
<trkpt lat="46.38037205" lon="6.12753868"><ele>583.641602</ele><time>2007-02-18T21:47:57Z</time></trkpt>
<trkpt lat="46.38208866" lon="6.12957716"><ele>580.757813</ele><time>2007-02-18T21:47:57Z</time></trkpt>
<trkpt lat="46.38200283" lon="6.12882614"><ele>570.18335</ele><time>2007-02-18T21:47:57Z</time></trkpt>
<trkpt lat="46.38414860" lon="6.12577915"><ele>-46.016968</ele><time>2007-02-18T21:47:57Z</time></trkpt>
<trkpt lat="46.38217449" lon="6.13052130"><ele>648.530029</ele><time>2007-02-18T21:47:57Z</time></trkpt>
<trkpt lat="46.38271093" lon="6.12998486"><ele>453.864746</ele><time>2007-02-18T21:47:57Z</time></trkpt>
<trkpt lat="46.38251781" lon="6.13065004"><ele>566.818848</ele><time>2007-02-18T21:47:57Z</time></trkpt>
<trkpt lat="46.38324738" lon="6.13504887"><ele>565.857666</ele><time>2007-02-18T21:47:58Z</time></trkpt>
<trkpt lat="46.38419151" lon="6.13612175"><ele>564.415527</ele><time>2007-02-18T21:47:58Z</time></trkpt>
<trkpt lat="46.38921261" lon="6.13916874"><ele>564.89624</ele><time>2007-02-18T21:47:58Z</time></trkpt>
<trkpt lat="46.39039278" lon="6.14056349"><ele>562.492676</ele><time>2007-02-18T21:47:58Z</time></trkpt>
<trkpt lat="46.39092922" lon="6.14152908"><ele>560.570068</ele><time>2007-02-18T21:47:58Z</time></trkpt>
<trkpt lat="46.39086485" lon="6.14180803"><ele>559.128174</ele><time>2007-02-18T21:47:58Z</time></trkpt>
<trkpt lat="46.39015675" lon="6.14238739"><ele>555.282959</ele><time>2007-02-18T21:47:58Z</time></trkpt>
<trkpt lat="46.39022112" lon="6.14258051"><ele>555.763672</ele><time>2007-02-18T21:47:58Z</time></trkpt>
<trkpt lat="46.39363289" lon="6.14537001"><ele>560.570068</ele><time>2007-02-18T21:47:58Z</time></trkpt>
<trkpt lat="46.39530659" lon="6.14622831"><ele>568.260742</ele><time>2007-02-18T21:47:58Z</time></trkpt>
<trkpt lat="46.39878273" lon="6.15114212"><ele>564.415527</ele><time>2007-02-18T21:47:58Z</time></trkpt>
<trkpt lat="46.40045643" lon="6.15257978"><ele>569.702881</ele><time>2007-02-18T21:47:58Z</time></trkpt>
<trkpt lat="46.40142202" lon="6.15382433"><ele>566.338135</ele><time>2007-02-18T21:47:58Z</time></trkpt>
<trkpt lat="46.40328884" lon="6.15732193"><ele>568.260742</ele><time>2007-02-18T21:47:58Z</time></trkpt>
<trkpt lat="46.40451193" lon="6.16017580"><ele>564.89624</ele><time>2007-02-18T21:47:58Z</time></trkpt>
<trkpt lat="46.40622854" lon="6.16253614"><ele>560.089355</ele><time>2007-02-18T21:47:58Z</time></trkpt>
<trkpt lat="46.40670061" lon="6.16405964"><ele>561.531494</ele><time>2007-02-18T21:47:58Z</time></trkpt>
<trkpt lat="46.40730143" lon="6.16523981"><ele>562.012207</ele><time>2007-02-18T21:47:58Z</time></trkpt>
<trkpt lat="46.40903950" lon="6.16766453"><ele>563.93457</ele><time>2007-02-18T21:47:58Z</time></trkpt>
<trkpt lat="46.40918970" lon="6.16878033"><ele>561.531494</ele><time>2007-02-18T21:47:58Z</time></trkpt>
<trkpt lat="46.40843868" lon="6.17034674"><ele>556.724854</ele><time>2007-02-18T21:47:58Z</time></trkpt>
<trkpt lat="46.40822411" lon="6.17159128"><ele>554.321777</ele><time>2007-02-18T21:47:59Z</time></trkpt>
<trkpt lat="46.40738726" lon="6.17362976"><ele>547.592529</ele><time>2007-02-18T21:47:59Z</time></trkpt>
<trkpt lat="46.40734434" lon="6.17605448"><ele>550.476563</ele><time>2007-02-18T21:47:59Z</time></trkpt>
<trkpt lat="46.40745163" lon="6.17635489"><ele>547.592529</ele><time>2007-02-18T21:47:59Z</time></trkpt>
<trkpt lat="46.40882492" lon="6.17742777"><ele>548.553711</ele><time>2007-02-18T21:47:59Z</time></trkpt>
<trkpt lat="46.40876055" lon="6.17787838"><ele>552.398926</ele><time>2007-02-18T21:47:59Z</time></trkpt>
<trkpt lat="46.40779495" lon="6.17897272"><ele>542.786011</ele><time>2007-02-18T21:47:59Z</time></trkpt>
<trkpt lat="46.40811682" lon="6.17905855"><ele>540.863403</ele><time>2007-02-18T21:47:59Z</time></trkpt>
<trkpt lat="46.40871763" lon="6.17830753"><ele>549.034424</ele><time>2007-02-18T21:47:59Z</time></trkpt>
<trkpt lat="46.41133547" lon="6.17461681"><ele>558.166992</ele><time>2007-02-18T21:47:59Z</time></trkpt>
<trkpt lat="46.41219378" lon="6.17277145"><ele>567.780029</ele><time>2007-02-18T21:47:59Z</time></trkpt>
<trkpt lat="46.41322374" lon="6.17090464"><ele>576.912598</ele><time>2007-02-18T21:47:59Z</time></trkpt>
<trkpt lat="46.41360998" lon="6.16972446"><ele>583.160889</ele><time>2007-02-18T21:47:59Z</time></trkpt>
<trkpt lat="46.41307354" lon="6.16738558"><ele>589.890137</ele><time>2007-02-18T21:47:59Z</time></trkpt>
<trkpt lat="46.41348124" lon="6.16554022"><ele>599.984131</ele><time>2007-02-18T21:47:59Z</time></trkpt>
<trkpt lat="46.41337395" lon="6.16436005"><ele>609.116455</ele><time>2007-02-18T21:47:59Z</time></trkpt>
<trkpt lat="46.41393185" lon="6.16300821"><ele>620.171387</ele><time>2007-02-18T21:47:59Z</time></trkpt>
<trkpt lat="46.41367435" lon="6.16225719"><ele>620.171387</ele><time>2007-02-18T21:47:59Z</time></trkpt>
<trkpt lat="46.41360998" lon="6.16184950"><ele>616.806885</ele><time>2007-02-18T21:47:59Z</time></trkpt>
<trkpt lat="46.41414642" lon="6.16039038"><ele>656.220459</ele><time>2007-02-18T21:47:59Z</time></trkpt>
<trkpt lat="46.41466141" lon="6.15860939"><ele>658.143311</ele><time>2007-02-18T21:48:00Z</time></trkpt>
<trkpt lat="46.41502619" lon="6.15635633"><ele>676.888916</ele><time>2007-02-18T21:48:00Z</time></trkpt>
<trkpt lat="46.41562700" lon="6.15594864"><ele>694.192627</ele><time>2007-02-18T21:48:00Z</time></trkpt>
<trkpt lat="46.41609907" lon="6.15584135"><ele>699.960449</ele><time>2007-02-18T21:48:00Z</time></trkpt>
<trkpt lat="46.41624928" lon="6.15539074"><ele>707.170166</ele><time>2007-02-18T21:48:00Z</time></trkpt>
<trkpt lat="46.41652822" lon="6.15524054"><ele>712.937988</ele><time>2007-02-18T21:48:00Z</time></trkpt>
<trkpt lat="46.41755819" lon="6.15551949"><ele>731.203125</ele><time>2007-02-18T21:48:00Z</time></trkpt>
<trkpt lat="46.41807318" lon="6.15524054"><ele>737.932129</ele><time>2007-02-18T21:48:00Z</time></trkpt>
<trkpt lat="46.41891003" lon="6.15547657"><ele>743.219238</ele><time>2007-02-18T21:48:00Z</time></trkpt>
<trkpt lat="46.41936064" lon="6.15528345"><ele>753.793701</ele><time>2007-02-18T21:48:00Z</time></trkpt>
<trkpt lat="46.41974688" lon="6.15569115"><ele>759.081055</ele><time>2007-02-18T21:48:00Z</time></trkpt>
<trkpt lat="46.42024040" lon="6.15627050"><ele>763.887451</ele><time>2007-02-18T21:48:00Z</time></trkpt>
<trkpt lat="46.42032623" lon="6.15605593"><ele>768.213379</ele><time>2007-02-18T21:48:00Z</time></trkpt>
<trkpt lat="46.42019749" lon="6.15476847"><ele>771.097412</ele><time>2007-02-18T21:48:00Z</time></trkpt>
<trkpt lat="46.42101288" lon="6.15487576"><ele>778.787842</ele><time>2007-02-18T21:48:00Z</time></trkpt>
<trkpt lat="46.42127037" lon="6.15491867"><ele>778.787842</ele><time>2007-02-18T21:48:00Z</time></trkpt>
<trkpt lat="46.42144203" lon="6.15463972"><ele>790.804199</ele><time>2007-02-18T21:48:00Z</time></trkpt>
<trkpt lat="46.42107725" lon="6.15442514"><ele>795.130127</ele><time>2007-02-18T21:48:00Z</time></trkpt>
<trkpt lat="46.42107725" lon="6.15375996"><ele>800.897949</ele><time>2007-02-18T21:48:00Z</time></trkpt>
<trkpt lat="46.42086267" lon="6.15300894"><ele>807.146484</ele><time>2007-02-18T21:48:01Z</time></trkpt>
<trkpt lat="46.42092705" lon="6.15240812"><ele>810.991699</ele><time>2007-02-18T21:48:01Z</time></trkpt>
<trkpt lat="46.42101288" lon="6.15204334"><ele>815.79834</ele><time>2007-02-18T21:48:01Z</time></trkpt>
<trkpt lat="46.42124891" lon="6.15219355"><ele>816.759521</ele><time>2007-02-18T21:48:01Z</time></trkpt>
<trkpt lat="46.42146349" lon="6.15204334"><ele>821.085693</ele><time>2007-02-18T21:48:01Z</time></trkpt>
<trkpt lat="46.42120600" lon="6.15103483"><ele>826.853516</ele><time>2007-02-18T21:48:01Z</time></trkpt>
<trkpt lat="46.42116308" lon="6.15002632"><ele>835.98584</ele><time>2007-02-18T21:48:01Z</time></trkpt>
<trkpt lat="46.42150640" lon="6.15054131"><ele>850.885986</ele><time>2007-02-18T21:48:01Z</time></trkpt>
<trkpt lat="46.42163515" lon="6.15039110"><ele>858.096191</ele><time>2007-02-18T21:48:01Z</time></trkpt>
<trkpt lat="46.42178535" lon="6.15039110"><ele>862.902588</ele><time>2007-02-18T21:48:01Z</time></trkpt>
<trkpt lat="46.42208576" lon="6.15090609"><ele>871.07373</ele><time>2007-02-18T21:48:01Z</time></trkpt>
<trkpt lat="46.42264366" lon="6.15195751"><ele>875.880127</ele><time>2007-02-18T21:48:01Z</time></trkpt>
<trkpt lat="46.42302990" lon="6.15204334"><ele>881.16748</ele><time>2007-02-18T21:48:01Z</time></trkpt>
<trkpt lat="46.42350197" lon="6.15180731"><ele>886.935303</ele><time>2007-02-18T21:48:01Z</time></trkpt>
<trkpt lat="46.42421007" lon="6.15204334"><ele>897.990479</ele><time>2007-02-18T21:48:01Z</time></trkpt>
<trkpt lat="46.42335176" lon="6.15127087"><ele>906.161377</ele><time>2007-02-18T21:48:01Z</time></trkpt>
<trkpt lat="46.42341614" lon="6.15039110"><ele>918.177979</ele><time>2007-02-18T21:48:01Z</time></trkpt>
<trkpt lat="46.42307281" lon="6.15000486"><ele>922.984619</ele><time>2007-02-18T21:48:01Z</time></trkpt>
<trkpt lat="46.42337322" lon="6.14837408"><ele>927.791016</ele><time>2007-02-18T21:48:01Z</time></trkpt>
<trkpt lat="46.42315865" lon="6.14770889"><ele>927.791016</ele><time>2007-02-18T21:48:01Z</time></trkpt>
<trkpt lat="46.42315865" lon="6.14725828"><ele>949.901367</ele><time>2007-02-18T21:48:01Z</time></trkpt>
<trkpt lat="46.42339468" lon="6.14614248"><ele>955.188477</ele><time>2007-02-18T21:48:02Z</time></trkpt>
<trkpt lat="46.42360926" lon="6.14509106"><ele>957.111084</ele><time>2007-02-18T21:48:02Z</time></trkpt>
<trkpt lat="46.42384529" lon="6.14725828"><ele>985.950439</ele><time>2007-02-18T21:48:02Z</time></trkpt>
<trkpt lat="46.42421007" lon="6.14822388"><ele>1002.773193</ele><time>2007-02-18T21:48:02Z</time></trkpt>
<trkpt lat="46.42474651" lon="6.14858866"><ele>1009.021729</ele><time>2007-02-18T21:48:02Z</time></trkpt>
<trkpt lat="46.42521858" lon="6.14918947"><ele>1022.960938</ele><time>2007-02-18T21:48:02Z</time></trkpt>
<trkpt lat="46.42562628" lon="6.14918947"><ele>1033.054443</ele><time>2007-02-18T21:48:02Z</time></trkpt>
<trkpt lat="46.42618418" lon="6.14948988"><ele>1039.783691</ele><time>2007-02-18T21:48:02Z</time></trkpt>
<trkpt lat="46.42631292" lon="6.14942551"><ele>1042.187012</ele><time>2007-02-18T21:48:02Z</time></trkpt>
<trkpt lat="46.42558336" lon="6.14856720"><ele>1049.877686</ele><time>2007-02-18T21:48:02Z</time></trkpt>
<trkpt lat="46.42521858" lon="6.14777327"><ele>1057.087402</ele><time>2007-02-18T21:48:02Z</time></trkpt>
<trkpt lat="46.42496109" lon="6.14650726"><ele>1067.181152</ele><time>2007-02-18T21:48:02Z</time></trkpt>
<trkpt lat="46.42508984" lon="6.14629269"><ele>1071.026367</ele><time>2007-02-18T21:48:02Z</time></trkpt>
<trkpt lat="46.42569065" lon="6.14545584"><ele>1076.794434</ele><time>2007-02-18T21:48:02Z</time></trkpt>
<trkpt lat="46.42541170" lon="6.14382505"><ele>1105.152832</ele><time>2007-02-18T21:48:02Z</time></trkpt>
<trkpt lat="46.42556190" lon="6.14296675"><ele>1113.804688</ele><time>2007-02-18T21:48:02Z</time></trkpt>
<trkpt lat="46.42579794" lon="6.14202261"><ele>1118.130615</ele><time>2007-02-18T21:48:02Z</time></trkpt>
<trkpt lat="46.42614126" lon="6.14030600"><ele>1120.053223</ele><time>2007-02-18T21:48:02Z</time></trkpt>
<trkpt lat="46.42631292" lon="6.14097118"><ele>1132.06958</ele><time>2007-02-18T21:48:02Z</time></trkpt>
<trkpt lat="46.42654896" lon="6.14215136"><ele>1136.875977</ele><time>2007-02-18T21:48:02Z</time></trkpt>
<trkpt lat="46.42644167" lon="6.14363194"><ele>1146.008789</ele><time>2007-02-18T21:48:02Z</time></trkpt>
<trkpt lat="46.42725706" lon="6.14513397"><ele>1157.063721</ele><time>2007-02-18T21:48:03Z</time></trkpt>
<trkpt lat="46.42839432" lon="6.14560604"><ele>1164.75415</ele><time>2007-02-18T21:48:03Z</time></trkpt>
<trkpt lat="46.42951012" lon="6.14564896"><ele>1166.196045</ele><time>2007-02-18T21:48:03Z</time></trkpt>
<trkpt lat="46.43122673" lon="6.14464045"><ele>1170.04126</ele><time>2007-02-18T21:48:03Z</time></trkpt>
<trkpt lat="46.43073320" lon="6.14464045"><ele>1183.019043</ele><time>2007-02-18T21:48:03Z</time></trkpt>
<trkpt lat="46.43002510" lon="6.14431858"><ele>1192.151611</ele><time>2007-02-18T21:48:03Z</time></trkpt>
<trkpt lat="46.42974615" lon="6.14403963"><ele>1192.151611</ele><time>2007-02-18T21:48:03Z</time></trkpt>
<trkpt lat="46.42875910" lon="6.14373922"><ele>1203.206543</ele><time>2007-02-18T21:48:03Z</time></trkpt>
<trkpt lat="46.42832994" lon="6.14305258"><ele>1205.129395</ele><time>2007-02-18T21:48:03Z</time></trkpt>
<trkpt lat="46.42824411" lon="6.14262342"><ele>1209.935791</ele><time>2007-02-18T21:48:03Z</time></trkpt>
<trkpt lat="46.42869473" lon="6.14112139"><ele>1219.068359</ele><time>2007-02-18T21:48:03Z</time></trkpt>
<trkpt lat="46.42905951" lon="6.13807440"><ele>1233.00708</ele><time>2007-02-18T21:48:03Z</time></trkpt>
<trkpt lat="46.42860889" lon="6.13695860"><ele>1245.023682</ele><time>2007-02-18T21:48:03Z</time></trkpt>
<trkpt lat="46.42824411" lon="6.13595009"><ele>1243.101074</ele><time>2007-02-18T21:48:03Z</time></trkpt>
<trkpt lat="46.42809391" lon="6.13605738"><ele>1258.962646</ele><time>2007-02-18T21:48:03Z</time></trkpt>
<trkpt lat="46.42740726" lon="6.13479137"><ele>1263.769043</ele><time>2007-02-18T21:48:03Z</time></trkpt>
<trkpt lat="46.42659187" lon="6.13389015"><ele>1270.017822</ele><time>2007-02-18T21:48:03Z</time></trkpt>
<trkpt lat="46.42532587" lon="6.13350391"><ele>1283.956787</ele><time>2007-02-18T21:48:03Z</time></trkpt>
<trkpt lat="46.42506838" lon="6.13307476"><ele>1285.879395</ele><time>2007-02-18T21:48:03Z</time></trkpt>
<trkpt lat="46.42528296" lon="6.13301039"><ele>1291.166504</ele><time>2007-02-18T21:48:03Z</time></trkpt>
<trkpt lat="46.42539024" lon="6.13290310"><ele>1291.166504</ele><time>2007-02-18T21:48:03Z</time></trkpt>
<trkpt lat="46.42502546" lon="6.12766743"><ele>1335.867676</ele><time>2007-02-18T21:48:04Z</time></trkpt>
<trkpt lat="46.42421007" lon="6.12631559"><ele>1337.790283</ele><time>2007-02-18T21:48:04Z</time></trkpt>
<trkpt lat="46.42405987" lon="6.12530708"><ele>1341.154785</ele><time>2007-02-18T21:48:04Z</time></trkpt>
<trkpt lat="46.42506838" lon="6.12605810"><ele>1348.845215</ele><time>2007-02-18T21:48:04Z</time></trkpt>
<trkpt lat="46.42586231" lon="6.12595081"><ele>1354.132568</ele><time>2007-02-18T21:48:04Z</time></trkpt>
<trkpt lat="46.42667770" lon="6.12661600"><ele>1365.187744</ele><time>2007-02-18T21:48:04Z</time></trkpt>
<trkpt lat="46.42811537" lon="6.12721682"><ele>1386.816895</ele><time>2007-02-18T21:48:04Z</time></trkpt>
<trkpt lat="46.42871618" lon="6.12790346"><ele>1417.098389</ele><time>2007-02-18T21:48:04Z</time></trkpt>
<trkpt lat="46.42893076" lon="6.12835407"><ele>1427.192139</ele><time>2007-02-18T21:48:04Z</time></trkpt>
<trkpt lat="46.42938137" lon="6.12908363"><ele>1431.037598</ele><time>2007-02-18T21:48:04Z</time></trkpt>
<trkpt lat="46.42998219" lon="6.12912655"><ele>1437.766602</ele><time>2007-02-18T21:48:04Z</time></trkpt>
<trkpt lat="46.43006802" lon="6.12934113"><ele>1453.147461</ele><time>2007-02-18T21:48:04Z</time></trkpt>
<trkpt lat="46.43017530" lon="6.12927675"><ele>1459.876465</ele><time>2007-02-18T21:48:04Z</time></trkpt>
<trkpt lat="46.43054008" lon="6.12859011"><ele>1481.025635</ele><time>2007-02-18T21:48:04Z</time></trkpt>
<trkpt lat="46.43066883" lon="6.12852573"><ele>1484.87085</ele><time>2007-02-18T21:48:04Z</time></trkpt>
<trkpt lat="46.43036842" lon="6.12790346"><ele>1494.003418</ele><time>2007-02-18T21:48:04Z</time></trkpt>
<trkpt lat="46.42983198" lon="6.12730265"><ele>1502.174316</ele><time>2007-02-18T21:48:04Z</time></trkpt>
<trkpt lat="46.42927408" lon="6.12590790"><ele>1511.787598</ele><time>2007-02-18T21:48:04Z</time></trkpt>
<trkpt lat="46.42920971" lon="6.12515688"><ele>1515.1521</ele><time>2007-02-18T21:48:04Z</time></trkpt>
<trkpt lat="46.42944574" lon="6.12412691"><ele>1521.881104</ele><time>2007-02-18T21:48:04Z</time></trkpt>
<trkpt lat="46.42972469" lon="6.12565041"><ele>1526.207275</ele><time>2007-02-18T21:48:04Z</time></trkpt>
<trkpt lat="46.42981052" lon="6.12524271"><ele>1534.859131</ele><time>2007-02-18T21:48:05Z</time></trkpt>
<trkpt lat="46.42931700" lon="6.12283945"><ele>1522.842529</ele><time>2007-02-18T21:48:05Z</time></trkpt>
<trkpt lat="46.42875910" lon="6.12127304"><ele>1518.997314</ele><time>2007-02-18T21:48:05Z</time></trkpt>
<trkpt lat="46.42852306" lon="6.11974955"><ele>1517.074707</ele><time>2007-02-18T21:48:05Z</time></trkpt>
<trkpt lat="46.42787933" lon="6.11968517"><ele>1512.748779</ele><time>2007-02-18T21:48:05Z</time></trkpt>
<trkpt lat="46.42727852" lon="6.11859083"><ele>1502.174316</ele><time>2007-02-18T21:48:05Z</time></trkpt>
<trkpt lat="46.42721415" lon="6.11822605"><ele>1498.809814</ele><time>2007-02-18T21:48:05Z</time></trkpt>
<trkpt lat="46.42751455" lon="6.11693859"><ele>1494.003418</ele><time>2007-02-18T21:48:05Z</time></trkpt>
<trkpt lat="46.42734289" lon="6.11524343"><ele>1489.196533</ele><time>2007-02-18T21:48:05Z</time></trkpt>
<trkpt lat="46.42618418" lon="6.11414909"><ele>1473.815674</ele><time>2007-02-18T21:48:05Z</time></trkpt>
<trkpt lat="46.42592669" lon="6.11404181"><ele>1473.815674</ele><time>2007-02-18T21:48:05Z</time></trkpt>
<trkpt lat="46.42549753" lon="6.11387014"><ele>1469.009277</ele><time>2007-02-18T21:48:05Z</time></trkpt>
<trkpt lat="46.42521858" lon="6.11395597"><ele>1469.009277</ele><time>2007-02-18T21:48:05Z</time></trkpt>
<trkpt lat="46.42401695" lon="6.11230373"><ele>1465.164063</ele><time>2007-02-18T21:48:05Z</time></trkpt>
<trkpt lat="46.42380238" lon="6.11211061"><ele>1461.799561</ele><time>2007-02-18T21:48:05Z</time></trkpt>
<trkpt lat="46.42195702" lon="6.11322641"><ele>1442.092529</ele><time>2007-02-18T21:48:05Z</time></trkpt>
<trkpt lat="46.42253637" lon="6.11329079"><ele>1431.998779</ele><time>2007-02-18T21:48:05Z</time></trkpt>
<trkpt lat="46.42302990" lon="6.11374140"><ele>1428.153564</ele><time>2007-02-18T21:48:05Z</time></trkpt>
<trkpt lat="46.42375946" lon="6.11500740"><ele>1416.136963</ele><time>2007-02-18T21:48:05Z</time></trkpt>
<trkpt lat="46.42367363" lon="6.11680984"><ele>1402.197998</ele><time>2007-02-18T21:48:05Z</time></trkpt>
<trkpt lat="46.42408133" lon="6.11826897"><ele>1394.988037</ele><time>2007-02-18T21:48:05Z</time></trkpt>
<trkpt lat="46.42292261" lon="6.11736774"><ele>1387.77832</ele><time>2007-02-18T21:48:06Z</time></trkpt>
<trkpt lat="46.42285824" lon="6.11620903"><ele>1382.010498</ele><time>2007-02-18T21:48:06Z</time></trkpt>
<trkpt lat="46.42161369" lon="6.11601591"><ele>1375.761963</ele><time>2007-02-18T21:48:06Z</time></trkpt>
<trkpt lat="46.42024040" lon="6.11743212"><ele>1370.955566</ele><time>2007-02-18T21:48:06Z</time></trkpt>
<trkpt lat="46.41936064" lon="6.11792564"><ele>1367.110352</ele><time>2007-02-18T21:48:06Z</time></trkpt>
<trkpt lat="46.41931772" lon="6.11829042"><ele>1363.745361</ele><time>2007-02-18T21:48:06Z</time></trkpt>
<trkpt lat="46.41959667" lon="6.11904144"><ele>1359.900146</ele><time>2007-02-18T21:48:06Z</time></trkpt>
<trkpt lat="46.42088413" lon="6.11874104"><ele>1354.132568</ele><time>2007-02-18T21:48:06Z</time></trkpt>
<trkpt lat="46.42114162" lon="6.11901999"><ele>1345</ele><time>2007-02-18T21:48:06Z</time></trkpt>
<trkpt lat="46.42118454" lon="6.12045765"><ele>1333.945068</ele><time>2007-02-18T21:48:06Z</time></trkpt>
<trkpt lat="46.42073393" lon="6.12412691"><ele>1319.044678</ele><time>2007-02-18T21:48:06Z</time></trkpt>
<trkpt lat="46.42032623" lon="6.12404108"><ele>1310.873535</ele><time>2007-02-18T21:48:06Z</time></trkpt>
<trkpt lat="46.42041206" lon="6.12253904"><ele>1292.12793</ele><time>2007-02-18T21:48:06Z</time></trkpt>
<trkpt lat="46.42032623" lon="6.12103701"><ele>1285.879395</ele><time>2007-02-18T21:48:06Z</time></trkpt>
<trkpt lat="46.41987562" lon="6.12052202"><ele>1284.918213</ele><time>2007-02-18T21:48:06Z</time></trkpt>
<trkpt lat="46.41914606" lon="6.12210989"><ele>1276.74707</ele><time>2007-02-18T21:48:06Z</time></trkpt>
<trkpt lat="46.41830921" lon="6.12283945"><ele>1260.885254</ele><time>2007-02-18T21:48:06Z</time></trkpt>
<trkpt lat="46.41807318" lon="6.12367630"><ele>1251.75293</ele><time>2007-02-18T21:48:06Z</time></trkpt>
<trkpt lat="46.41779423" lon="6.12588644"><ele>1242.139893</ele><time>2007-02-18T21:48:06Z</time></trkpt>
<trkpt lat="46.41788006" lon="6.12811804"><ele>1235.891113</ele><time>2007-02-18T21:48:06Z</time></trkpt>
<trkpt lat="46.41665697" lon="6.13069296"><ele>1229.161865</ele><time>2007-02-18T21:48:06Z</time></trkpt>
<trkpt lat="46.41674280" lon="6.13090754"><ele>1229.161865</ele><time>2007-02-18T21:48:06Z</time></trkpt>
<trkpt lat="46.41796589" lon="6.13135815"><ele>1225.797363</ele><time>2007-02-18T21:48:07Z</time></trkpt>
<trkpt lat="46.41916752" lon="6.13524199"><ele>1222.913574</ele><time>2007-02-18T21:48:07Z</time></trkpt>
<trkpt lat="46.41541243" lon="6.13365412"><ele>1213.781006</ele><time>2007-02-18T21:48:07Z</time></trkpt>
<trkpt lat="46.41463995" lon="6.13358974"><ele>1195.0354</ele><time>2007-02-18T21:48:07Z</time></trkpt>
<trkpt lat="46.41463995" lon="6.13373995"><ele>1186.864258</ele><time>2007-02-18T21:48:07Z</time></trkpt>
<trkpt lat="46.41502619" lon="6.13408327"><ele>1181.09668</ele><time>2007-02-18T21:48:07Z</time></trkpt>
<trkpt lat="46.41521931" lon="6.13434076"><ele>1173.886719</ele><time>2007-02-18T21:48:07Z</time></trkpt>
<trkpt lat="46.41579866" lon="6.13554239"><ele>1158.986328</ele><time>2007-02-18T21:48:07Z</time></trkpt>
<trkpt lat="46.41541243" lon="6.13610029"><ele>1150.815186</ele><time>2007-02-18T21:48:07Z</time></trkpt>
<trkpt lat="46.41300917" lon="6.13412619"><ele>1146.008789</ele><time>2007-02-18T21:48:07Z</time></trkpt>
<trkpt lat="46.41240835" lon="6.13378286"><ele>1130.146973</ele><time>2007-02-18T21:48:07Z</time></trkpt>
<trkpt lat="46.41212940" lon="6.13389015"><ele>1121.014648</ele><time>2007-02-18T21:48:07Z</time></trkpt>
<trkpt lat="46.41412497" lon="6.13685131"><ele>1097.943115</ele><time>2007-02-18T21:48:07Z</time></trkpt>
<trkpt lat="46.41466141" lon="6.13835335"><ele>1091.213867</ele><time>2007-02-18T21:48:07Z</time></trkpt>
<trkpt lat="46.41549826" lon="6.13856792"><ele>1080.158936</ele><time>2007-02-18T21:48:07Z</time></trkpt>
<trkpt lat="46.41558409" lon="6.13991976"><ele>1071.026367</ele><time>2007-02-18T21:48:07Z</time></trkpt>
<trkpt lat="46.41612053" lon="6.14262342"><ele>1064.777832</ele><time>2007-02-18T21:48:07Z</time></trkpt>
<trkpt lat="46.41648531" lon="6.14365339"><ele>1060.932617</ele><time>2007-02-18T21:48:07Z</time></trkpt>
<trkpt lat="46.41393185" lon="6.13968372"><ele>1045.071045</ele><time>2007-02-18T21:48:07Z</time></trkpt>
<trkpt lat="46.41315937" lon="6.13946915"><ele>1020.076904</ele><time>2007-02-18T21:48:07Z</time></trkpt>
<trkpt lat="46.41326666" lon="6.13886833"><ele>1015.751221</ele><time>2007-02-18T21:48:07Z</time></trkpt>
<trkpt lat="46.41294479" lon="6.13848209"><ele>1015.751221</ele><time>2007-02-18T21:48:08Z</time></trkpt>
<trkpt lat="46.41026258" lon="6.13753796"><ele>1012.867188</ele><time>2007-02-18T21:48:08Z</time></trkpt>
<trkpt lat="46.40846014" lon="6.13766670"><ele>1009.98291</ele><time>2007-02-18T21:48:08Z</time></trkpt>
<trkpt lat="46.40725851" lon="6.13610029"><ele>1006.137695</ele><time>2007-02-18T21:48:08Z</time></trkpt>
<trkpt lat="46.40704393" lon="6.13717318"><ele>1002.773193</ele><time>2007-02-18T21:48:08Z</time></trkpt>
<trkpt lat="46.40629292" lon="6.13620758"><ele>994.121582</ele><time>2007-02-18T21:48:08Z</time></trkpt>
<trkpt lat="46.40481234" lon="6.13588572"><ele>986.911621</ele><time>2007-02-18T21:48:08Z</time></trkpt>
<trkpt lat="46.40479088" lon="6.13590717"><ele>983.066406</ele><time>2007-02-18T21:48:08Z</time></trkpt>
<trkpt lat="46.40543461" lon="6.13629341"><ele>773.02002</ele><time>2007-02-18T21:48:08Z</time></trkpt>
<trkpt lat="46.40704393" lon="6.13852501"><ele>758.119873</ele><time>2007-02-18T21:48:08Z</time></trkpt>
<trkpt lat="46.40710831" lon="6.13895416"><ele>758.119873</ele><time>2007-02-18T21:48:08Z</time></trkpt>
<trkpt lat="46.40953302" lon="6.14300966"><ele>752.832275</ele><time>2007-02-18T21:48:08Z</time></trkpt>
<trkpt lat="46.41034842" lon="6.14442587"><ele>747.064453</ele><time>2007-02-18T21:48:08Z</time></trkpt>
<trkpt lat="46.41197920" lon="6.14865303"><ele>743.219238</ele><time>2007-02-18T21:48:08Z</time></trkpt>
<trkpt lat="46.41309500" lon="6.15457535"><ele>732.164307</ele><time>2007-02-18T21:48:08Z</time></trkpt>
<trkpt lat="46.41300917" lon="6.15629196"><ele>728.799805</ele><time>2007-02-18T21:48:08Z</time></trkpt>
<trkpt lat="46.41421080" lon="6.16002560"><ele>708.131592</ele><time>2007-02-18T21:48:08Z</time></trkpt>
<trkpt lat="46.41418934" lon="6.16047621"><ele>701.883057</ele><time>2007-02-18T21:48:08Z</time></trkpt>
<trkpt lat="46.41360998" lon="6.16193533"><ele>697.076416</ele><time>2007-02-18T21:48:08Z</time></trkpt>
<trkpt lat="46.41382456" lon="6.16345882"><ele>694.192627</ele><time>2007-02-18T21:48:08Z</time></trkpt>
<trkpt lat="46.41345978" lon="6.16442442"><ele>677.850098</ele><time>2007-02-18T21:48:08Z</time></trkpt>
<trkpt lat="46.41348124" lon="6.16530418"><ele>664.872559</ele><time>2007-02-18T21:48:09Z</time></trkpt>
<trkpt lat="46.41341686" lon="6.16590500"><ele>652.855957</ele><time>2007-02-18T21:48:09Z</time></trkpt>
<trkpt lat="46.41311646" lon="6.16689205"><ele>636.994385</ele><time>2007-02-18T21:48:09Z</time></trkpt>
<trkpt lat="46.41324520" lon="6.16875887"><ele>616.806885</ele><time>2007-02-18T21:48:09Z</time></trkpt>
<trkpt lat="46.41363144" lon="6.16963863"><ele>611.039063</ele><time>2007-02-18T21:48:09Z</time></trkpt>
<trkpt lat="46.41337395" lon="6.17077589"><ele>603.829346</ele><time>2007-02-18T21:48:09Z</time></trkpt>
<trkpt lat="46.41227961" lon="6.17270708"><ele>589.890137</ele><time>2007-02-18T21:48:09Z</time></trkpt>
<trkpt lat="46.41148567" lon="6.17442369"><ele>574.028564</ele><time>2007-02-18T21:48:09Z</time></trkpt>
<trkpt lat="46.41084194" lon="6.17526054"><ele>567.780029</ele><time>2007-02-18T21:48:09Z</time></trkpt>
<trkpt lat="46.40976906" lon="6.17807150"><ele>558.166992</ele><time>2007-02-18T21:48:09Z</time></trkpt>
<trkpt lat="46.40815973" lon="6.17901564"><ele>547.111816</ele><time>2007-02-18T21:48:09Z</time></trkpt>
<trkpt lat="46.40871394" lon="6.17805658"><ele>551.934082</ele><time>2007-02-18T14:35:54Z</time></trkpt>
<trkpt lat="46.40870104" lon="6.17799958"><ele>542.801514</ele><time>2007-02-18T14:36:32Z</time></trkpt>
<trkpt lat="46.40872526" lon="6.17798123"><ele>542.801514</ele><time>2007-02-18T14:37:24Z</time></trkpt>
<trkpt lat="46.40874068" lon="6.17792138"><ele>542.801514</ele><time>2007-02-18T14:37:39Z</time></trkpt>
<trkpt lat="46.40875619" lon="6.17790629"><ele>542.801514</ele><time>2007-02-18T14:37:41Z</time></trkpt>
<trkpt lat="46.40881486" lon="6.17784167"><ele>542.801514</ele><time>2007-02-18T14:37:47Z</time></trkpt>
<trkpt lat="46.40891804" lon="6.17751896"><ele>542.801514</ele><time>2007-02-18T14:38:04Z</time></trkpt>
<trkpt lat="46.40885635" lon="6.17744579"><ele>542.801514</ele><time>2007-02-18T14:38:08Z</time></trkpt>
<trkpt lat="46.40864437" lon="6.17722107"><ele>541.84021</ele><time>2007-02-18T14:38:23Z</time></trkpt>
<trkpt lat="46.40839862" lon="6.17700851"><ele>542.320923</ele><time>2007-02-18T14:38:40Z</time></trkpt>
<trkpt lat="46.40837565" lon="6.17699401"><ele>542.320923</ele><time>2007-02-18T14:38:43Z</time></trkpt>
<trkpt lat="46.40830717" lon="6.17684288"><ele>540.878906</ele><time>2007-02-18T14:38:58Z</time></trkpt>
<trkpt lat="46.40832284" lon="6.17682545"><ele>538.956299</ele><time>2007-02-18T14:39:00Z</time></trkpt>
<trkpt lat="46.41041346" lon="6.17431817"><ele>358.708984</ele><time>2007-02-18T14:39:05Z</time></trkpt>
<trkpt lat="46.41078872" lon="6.17385984"><ele>309.681885</ele><time>2007-02-18T14:39:08Z</time></trkpt>
<trkpt lat="46.40967133" lon="6.17515359"><ele>301.029907</ele><time>2007-02-18T14:39:12Z</time></trkpt>
<trkpt lat="46.40818194" lon="6.17695838"><ele>551.934082</ele><time>2007-02-18T14:39:38Z</time></trkpt>
<trkpt lat="46.40813693" lon="6.17690558"><ele>551.453369</ele><time>2007-02-18T14:39:42Z</time></trkpt>
<trkpt lat="46.40811212" lon="6.17686878"><ele>551.453369</ele><time>2007-02-18T14:39:44Z</time></trkpt>
<trkpt lat="46.40767341" lon="6.17668153"><ele>548.088867</ele><time>2007-02-18T14:39:59Z</time></trkpt>
<trkpt lat="46.40748248" lon="6.17645203"><ele>546.646851</ele><time>2007-02-18T14:40:09Z</time></trkpt>
<trkpt lat="46.40732029" lon="6.17604517"><ele>547.127441</ele><time>2007-02-18T14:40:24Z</time></trkpt>
<trkpt lat="46.40738416" lon="6.17556975"><ele>547.608154</ele><time>2007-02-18T14:40:48Z</time></trkpt>
<trkpt lat="46.40741324" lon="6.17476710"><ele>546.16626</ele><time>2007-02-18T14:41:20Z</time></trkpt>
<trkpt lat="46.40743151" lon="6.17397744"><ele>548.088867</ele><time>2007-02-18T14:41:40Z</time></trkpt>
<trkpt lat="46.40760669" lon="6.17317043"><ele>548.088867</ele><time>2007-02-18T14:41:57Z</time></trkpt>
<trkpt lat="46.40777366" lon="6.17260457"><ele>549.530762</ele><time>2007-02-18T14:42:14Z</time></trkpt>
<trkpt lat="46.40789034" lon="6.17231498"><ele>550.011475</ele><time>2007-02-18T14:42:28Z</time></trkpt>
<trkpt lat="46.40793929" lon="6.17222998"><ele>550.492188</ele><time>2007-02-18T14:42:33Z</time></trkpt>
<trkpt lat="46.40802043" lon="6.17206804"><ele>551.453369</ele><time>2007-02-18T14:42:45Z</time></trkpt>
<trkpt lat="46.40803635" lon="6.17204156"><ele>551.934082</ele><time>2007-02-18T14:42:48Z</time></trkpt>
<trkpt lat="46.40800693" lon="6.17208129"><ele>551.934082</ele><time>2007-02-18T14:42:56Z</time></trkpt>
<trkpt lat="46.40809083" lon="6.17197643"><ele>552.895264</ele><time>2007-02-18T14:43:02Z</time></trkpt>
<trkpt lat="46.40824514" lon="6.17150755"><ele>554.337402</ele><time>2007-02-18T14:43:18Z</time></trkpt>
<trkpt lat="46.40834053" lon="6.17082694"><ele>554.817871</ele><time>2007-02-18T14:43:37Z</time></trkpt>
<trkpt lat="46.40844170" lon="6.17038739"><ele>555.298584</ele><time>2007-02-18T14:43:55Z</time></trkpt>
<trkpt lat="46.40857506" lon="6.17005664"><ele>558.182861</ele><time>2007-02-18T14:44:11Z</time></trkpt>
<trkpt lat="46.40871990" lon="6.16964919"><ele>560.585938</ele><time>2007-02-18T14:44:28Z</time></trkpt>
<trkpt lat="46.40893992" lon="6.16932867"><ele>562.508545</ele><time>2007-02-18T14:44:44Z</time></trkpt>
<trkpt lat="46.40916707" lon="6.16902064"><ele>563.950439</ele><time>2007-02-18T14:44:59Z</time></trkpt>
<trkpt lat="46.40919037" lon="6.16897965"><ele>564.431152</ele><time>2007-02-18T14:45:01Z</time></trkpt>
<trkpt lat="46.40918828" lon="6.16887613"><ele>564.911865</ele><time>2007-02-18T14:45:05Z</time></trkpt>
<trkpt lat="46.40921233" lon="6.16830574"><ele>564.911865</ele><time>2007-02-18T14:45:26Z</time></trkpt>
<trkpt lat="46.40920194" lon="6.16822134"><ele>565.392578</ele><time>2007-02-18T14:45:30Z</time></trkpt>
<trkpt lat="46.40919934" lon="6.16818102"><ele>565.392578</ele><time>2007-02-18T14:45:32Z</time></trkpt>
<trkpt lat="46.40914938" lon="6.16789285"><ele>564.911865</ele><time>2007-02-18T14:45:47Z</time></trkpt>
<trkpt lat="46.40895593" lon="6.16753318"><ele>564.431152</ele><time>2007-02-18T14:46:01Z</time></trkpt>
<trkpt lat="46.40856206" lon="6.16700714"><ele>563.950439</ele><time>2007-02-18T14:46:16Z</time></trkpt>
<trkpt lat="46.40802596" lon="6.16630523"><ele>562.508545</ele><time>2007-02-18T14:46:34Z</time></trkpt>
<trkpt lat="46.40769018" lon="6.16580886"><ele>562.028076</ele><time>2007-02-18T14:46:47Z</time></trkpt>
<trkpt lat="46.40751625" lon="6.16557668"><ele>562.028076</ele><time>2007-02-18T14:47:01Z</time></trkpt>
<trkpt lat="46.40725273" lon="6.16517158"><ele>561.547363</ele><time>2007-02-18T14:47:13Z</time></trkpt>
<trkpt lat="46.40688392" lon="6.16445082"><ele>561.06665</ele><time>2007-02-18T14:47:31Z</time></trkpt>
<trkpt lat="46.40660514" lon="6.16375244"><ele>561.06665</ele><time>2007-02-18T14:47:45Z</time></trkpt>
<trkpt lat="46.40634899" lon="6.16281300"><ele>559.624756</ele><time>2007-02-18T14:48:01Z</time></trkpt>
<trkpt lat="46.40630356" lon="6.16268819"><ele>559.624756</ele><time>2007-02-18T14:48:03Z</time></trkpt>
<trkpt lat="46.40617909" lon="6.16249843"><ele>559.624756</ele><time>2007-02-18T14:48:07Z</time></trkpt>
<trkpt lat="46.40555950" lon="6.16172151"><ele>560.105225</ele><time>2007-02-18T14:48:26Z</time></trkpt>
<trkpt lat="46.40518248" lon="6.16109454"><ele>560.105225</ele><time>2007-02-18T14:48:42Z</time></trkpt>
<trkpt lat="46.40472206" lon="6.16048409"><ele>561.547363</ele><time>2007-02-18T14:49:01Z</time></trkpt>
<trkpt lat="46.40440581" lon="6.15994630"><ele>562.028076</ele><time>2007-02-18T14:49:18Z</time></trkpt>
<trkpt lat="46.40412988" lon="6.15940089"><ele>563.950439</ele><time>2007-02-18T14:49:33Z</time></trkpt>
<trkpt lat="46.40387851" lon="6.15883830"><ele>563.950439</ele><time>2007-02-18T14:49:56Z</time></trkpt>
<trkpt lat="46.40387717" lon="6.15881575"><ele>562.989258</ele><time>2007-02-18T14:49:57Z</time></trkpt>
<trkpt lat="46.40379712" lon="6.15853052"><ele>562.508545</ele><time>2007-02-18T14:50:12Z</time></trkpt>
<trkpt lat="46.40372621" lon="6.15836011"><ele>562.508545</ele><time>2007-02-18T14:50:21Z</time></trkpt>
<trkpt lat="46.40356620" lon="6.15793088"><ele>562.989258</ele><time>2007-02-18T14:50:41Z</time></trkpt>
<trkpt lat="46.40333922" lon="6.15748923"><ele>564.911865</ele><time>2007-02-18T14:51:01Z</time></trkpt>
<trkpt lat="46.40305666" lon="6.15701205"><ele>565.873291</ele><time>2007-02-18T14:51:24Z</time></trkpt>
<trkpt lat="46.40305968" lon="6.15701783"><ele>565.873291</ele><time>2007-02-18T14:51:25Z</time></trkpt>
<trkpt lat="46.40343913" lon="6.15784328"><ele>564.911865</ele><time>2007-02-18T14:51:42Z</time></trkpt>
<trkpt lat="46.40360534" lon="6.15824939"><ele>565.392578</ele><time>2007-02-18T14:51:49Z</time></trkpt>
<trkpt lat="46.40386870" lon="6.15914172"><ele>565.873291</ele><time>2007-02-18T14:52:04Z</time></trkpt>
<trkpt lat="46.40439400" lon="6.16009776"><ele>565.873291</ele><time>2007-02-18T14:52:21Z</time></trkpt>
<trkpt lat="46.40484419" lon="6.16071819"><ele>565.392578</ele><time>2007-02-18T14:52:31Z</time></trkpt>
<trkpt lat="46.40516102" lon="6.16114098"><ele>564.431152</ele><time>2007-02-18T14:52:37Z</time></trkpt>
<trkpt lat="46.40536856" lon="6.16147583"><ele>564.431152</ele><time>2007-02-18T14:52:44Z</time></trkpt>
<trkpt lat="46.40535959" lon="6.16141188"><ele>564.431152</ele><time>2007-02-18T14:52:48Z</time></trkpt>
<trkpt lat="46.40476213" lon="6.16055374"><ele>564.911865</ele><time>2007-02-18T14:53:02Z</time></trkpt>
<trkpt lat="46.40422066" lon="6.15961731"><ele>565.873291</ele><time>2007-02-18T14:53:16Z</time></trkpt>
<trkpt lat="46.40374582" lon="6.15868961"><ele>566.834473</ele><time>2007-02-18T14:53:33Z</time></trkpt>
<trkpt lat="46.40333964" lon="6.15751890"><ele>565.873291</ele><time>2007-02-18T14:53:51Z</time></trkpt>
<trkpt lat="46.40244680" lon="6.15572082"><ele>563.950439</ele><time>2007-02-18T14:54:21Z</time></trkpt>
<trkpt lat="46.40206668" lon="6.15498723"><ele>563.950439</ele><time>2007-02-18T14:54:32Z</time></trkpt>
<trkpt lat="46.40192452" lon="6.15465422"><ele>563.950439</ele><time>2007-02-18T14:54:42Z</time></trkpt>
<trkpt lat="46.40189610" lon="6.15464056"><ele>565.392578</ele><time>2007-02-18T14:55:06Z</time></trkpt>
<trkpt lat="46.40186694" lon="6.15458138"><ele>564.431152</ele><time>2007-02-18T14:55:22Z</time></trkpt>
<trkpt lat="46.40179980" lon="6.15445624"><ele>563.469971</ele><time>2007-02-18T14:55:28Z</time></trkpt>
<trkpt lat="46.40178010" lon="6.15439983"><ele>563.469971</ele><time>2007-02-18T14:55:31Z</time></trkpt>
<trkpt lat="46.40171757" lon="6.15429992"><ele>563.950439</ele><time>2007-02-18T14:55:36Z</time></trkpt>
<trkpt lat="46.40163258" lon="6.15417377"><ele>562.989258</ele><time>2007-02-18T14:55:42Z</time></trkpt>
<trkpt lat="46.40139319" lon="6.15383606"><ele>562.508545</ele><time>2007-02-18T14:55:57Z</time></trkpt>
<trkpt lat="46.40100838" lon="6.15330557"><ele>561.547363</ele><time>2007-02-18T14:56:13Z</time></trkpt>
<trkpt lat="46.40068735" lon="6.15288497"><ele>561.06665</ele><time>2007-02-18T14:56:23Z</time></trkpt>
<trkpt lat="46.40025711" lon="6.15253000"><ele>561.06665</ele><time>2007-02-18T14:56:38Z</time></trkpt>
<trkpt lat="46.40009517" lon="6.15238708"><ele>562.028076</ele><time>2007-02-18T14:57:00Z</time></trkpt>
<trkpt lat="46.39983550" lon="6.15207888"><ele>559.144043</ele><time>2007-02-18T14:57:22Z</time></trkpt>
<trkpt lat="46.39916193" lon="6.15155996"><ele>560.105225</ele><time>2007-02-18T14:57:48Z</time></trkpt>
<trkpt lat="46.39845533" lon="6.15090374"><ele>561.06665</ele><time>2007-02-18T14:58:10Z</time></trkpt>
<trkpt lat="46.39755369" lon="6.14974310"><ele>560.585938</ele><time>2007-02-18T14:58:41Z</time></trkpt>
<trkpt lat="46.39695682" lon="6.14881296"><ele>560.105225</ele><time>2007-02-18T14:59:04Z</time></trkpt>
<trkpt lat="46.39676604" lon="6.14838607"><ele>562.508545</ele><time>2007-02-18T14:59:20Z</time></trkpt>
<trkpt lat="46.39669396" lon="6.14826931"><ele>563.950439</ele><time>2007-02-18T14:59:26Z</time></trkpt>
<trkpt lat="46.39637863" lon="6.14784309"><ele>563.950439</ele><time>2007-02-18T14:59:49Z</time></trkpt>
<trkpt lat="46.39594118" lon="6.14724856"><ele>566.35376</ele><time>2007-02-18T15:00:17Z</time></trkpt>
<trkpt lat="46.39553072" lon="6.14656929"><ele>566.834473</ele><time>2007-02-18T15:00:39Z</time></trkpt>
<trkpt lat="46.39523366" lon="6.14615791"><ele>566.834473</ele><time>2007-02-18T15:00:56Z</time></trkpt>
<trkpt lat="46.39514658" lon="6.14606730"><ele>566.834473</ele><time>2007-02-18T15:01:02Z</time></trkpt>
<trkpt lat="46.39510609" lon="6.14604257"><ele>566.35376</ele><time>2007-02-18T15:01:16Z</time></trkpt>
<trkpt lat="46.39507382" lon="6.14600661"><ele>564.911865</ele><time>2007-02-18T15:02:30Z</time></trkpt>
<trkpt lat="46.39491968" lon="6.14588541"><ele>566.35376</ele><time>2007-02-18T15:02:44Z</time></trkpt>
<trkpt lat="46.39489579" lon="6.14587845"><ele>566.834473</ele><time>2007-02-18T15:02:47Z</time></trkpt>
<trkpt lat="46.39473368" lon="6.14574669"><ele>565.392578</ele><time>2007-02-18T15:03:04Z</time></trkpt>
<trkpt lat="46.39451827" lon="6.14564418"><ele>564.911865</ele><time>2007-02-18T15:03:19Z</time></trkpt>
<trkpt lat="46.39429967" lon="6.14556363"><ele>562.989258</ele><time>2007-02-18T15:03:34Z</time></trkpt>
<trkpt lat="46.39428743" lon="6.14556405"><ele>562.989258</ele><time>2007-02-18T15:03:35Z</time></trkpt>
<trkpt lat="46.39417059" lon="6.14555139"><ele>562.508545</ele><time>2007-02-18T15:03:45Z</time></trkpt>
<trkpt lat="46.39380958" lon="6.14546514"><ele>560.585938</ele><time>2007-02-18T15:04:09Z</time></trkpt>
<trkpt lat="46.39378100" lon="6.14545525"><ele>560.585938</ele><time>2007-02-18T15:04:10Z</time></trkpt>
<trkpt lat="46.39353809" lon="6.14525140"><ele>559.624756</ele><time>2007-02-18T15:04:16Z</time></trkpt>
<trkpt lat="46.39266528" lon="6.14449477"><ele>557.702148</ele><time>2007-02-18T15:04:38Z</time></trkpt>
<trkpt lat="46.39196062" lon="6.14407894"><ele>556.740723</ele><time>2007-02-18T15:04:55Z</time></trkpt>
<trkpt lat="46.39118839" lon="6.14351836"><ele>554.337402</ele><time>2007-02-18T15:05:12Z</time></trkpt>
<trkpt lat="46.39084674" lon="6.14324511"><ele>553.375977</ele><time>2007-02-18T15:05:19Z</time></trkpt>
<trkpt lat="46.39046914" lon="6.14289357"><ele>553.856689</ele><time>2007-02-18T15:05:28Z</time></trkpt>
<trkpt lat="46.39009011" lon="6.14247054"><ele>554.817871</ele><time>2007-02-18T15:05:44Z</time></trkpt>
<trkpt lat="46.39016580" lon="6.14235663"><ele>554.817871</ele><time>2007-02-18T15:05:51Z</time></trkpt>
<trkpt lat="46.39027904" lon="6.14228806"><ele>554.337402</ele><time>2007-02-18T15:06:04Z</time></trkpt>
<trkpt lat="46.39041281" lon="6.14216795"><ele>555.298584</ele><time>2007-02-18T15:06:19Z</time></trkpt>
<trkpt lat="46.39045338" lon="6.14214063"><ele>555.779297</ele><time>2007-02-18T15:06:23Z</time></trkpt>
<trkpt lat="46.39054852" lon="6.14207919"><ele>556.26001</ele><time>2007-02-18T15:06:32Z</time></trkpt>
<trkpt lat="46.39070559" lon="6.14195941"><ele>557.702148</ele><time>2007-02-18T15:06:45Z</time></trkpt>
<trkpt lat="46.39087088" lon="6.14183628"><ele>558.66333</ele><time>2007-02-18T15:06:59Z</time></trkpt>
<trkpt lat="46.39089209" lon="6.14182262"><ele>559.144043</ele><time>2007-02-18T15:07:01Z</time></trkpt>
<trkpt lat="46.39094800" lon="6.14164425"><ele>560.105225</ele><time>2007-02-18T15:07:14Z</time></trkpt>
<trkpt lat="46.39090148" lon="6.14150628"><ele>561.06665</ele><time>2007-02-18T15:07:22Z</time></trkpt>
<trkpt lat="46.39076628" lon="6.14125080"><ele>561.06665</ele><time>2007-02-18T15:07:38Z</time></trkpt>
<trkpt lat="46.39060032" lon="6.14099792"><ele>560.105225</ele><time>2007-02-18T15:07:54Z</time></trkpt>
<trkpt lat="46.39039798" lon="6.14065611"><ele>561.06665</ele><time>2007-02-18T15:08:12Z</time></trkpt>
<trkpt lat="46.39012774" lon="6.14037825"><ele>560.585938</ele><time>2007-02-18T15:08:30Z</time></trkpt>
<trkpt lat="46.38984921" lon="6.14012277"><ele>562.028076</ele><time>2007-02-18T15:08:46Z</time></trkpt>
<trkpt lat="46.38946775" lon="6.13958473"><ele>562.508545</ele><time>2007-02-18T15:09:10Z</time></trkpt>
<trkpt lat="46.38910364" lon="6.13914577"><ele>565.392578</ele><time>2007-02-18T15:09:37Z</time></trkpt>
<trkpt lat="46.38887306" lon="6.13898157"><ele>564.911865</ele><time>2007-02-18T15:09:53Z</time></trkpt>
<trkpt lat="46.38879988" lon="6.13893857"><ele>565.392578</ele><time>2007-02-18T15:09:58Z</time></trkpt>
<trkpt lat="46.38878756" lon="6.13891410"><ele>564.431152</ele><time>2007-02-18T15:10:14Z</time></trkpt>
<trkpt lat="46.38877356" lon="6.13886565"><ele>571.640869</ele><time>2007-02-18T15:11:09Z</time></trkpt>
<trkpt lat="46.38879561" lon="6.13881754"><ele>570.198975</ele><time>2007-02-18T15:11:22Z</time></trkpt>
<trkpt lat="46.38878832" lon="6.13881486"><ele>570.198975</ele><time>2007-02-18T15:11:24Z</time></trkpt>
<trkpt lat="46.38865949" lon="6.13886163"><ele>569.718506</ele><time>2007-02-18T15:11:31Z</time></trkpt>
<trkpt lat="46.38838775" lon="6.13888836"><ele>568.75708</ele><time>2007-02-18T15:11:46Z</time></trkpt>
<trkpt lat="46.38814894" lon="6.13868418"><ele>568.276367</ele><time>2007-02-18T15:12:01Z</time></trkpt>
<trkpt lat="46.38794862" lon="6.13849886"><ele>567.315186</ele><time>2007-02-18T15:12:17Z</time></trkpt>
<trkpt lat="46.38772775" lon="6.13832653"><ele>567.795654</ele><time>2007-02-18T15:12:31Z</time></trkpt>
<trkpt lat="46.38758342" lon="6.13821521"><ele>567.315186</ele><time>2007-02-18T15:12:40Z</time></trkpt>
<trkpt lat="46.38750119" lon="6.13819845"><ele>568.276367</ele><time>2007-02-18T15:12:45Z</time></trkpt>
<trkpt lat="46.38718092" lon="6.13796610"><ele>567.795654</ele><time>2007-02-18T15:13:04Z</time></trkpt>
<trkpt lat="46.38686987" lon="6.13778229"><ele>566.35376</ele><time>2007-02-18T15:13:17Z</time></trkpt>
<trkpt lat="46.38645597" lon="6.13751491"><ele>565.873291</ele><time>2007-02-18T15:13:31Z</time></trkpt>
<trkpt lat="46.38594425" lon="6.13717770"><ele>564.911865</ele><time>2007-02-18T15:13:45Z</time></trkpt>
<trkpt lat="46.38546674" lon="6.13684569"><ele>563.950439</ele><time>2007-02-18T15:13:59Z</time></trkpt>
<trkpt lat="46.38506315" lon="6.13652911"><ele>562.989258</ele><time>2007-02-18T15:14:14Z</time></trkpt>
<trkpt lat="46.38473458" lon="6.13637824"><ele>562.508545</ele><time>2007-02-18T15:14:26Z</time></trkpt>
<trkpt lat="46.38428036" lon="6.13617690"><ele>561.547363</ele><time>2007-02-18T15:14:39Z</time></trkpt>
<trkpt lat="46.38368231" lon="6.13573618"><ele>558.182861</ele><time>2007-02-18T15:15:00Z</time></trkpt>
<trkpt lat="46.38323179" lon="6.13523855"><ele>559.624756</ele><time>2007-02-18T15:15:19Z</time></trkpt>
<trkpt lat="46.38317361" lon="6.13514937"><ele>559.624756</ele><time>2007-02-18T15:15:32Z</time></trkpt>
<trkpt lat="46.38314981" lon="6.13511383"><ele>567.795654</ele><time>2007-02-18T15:16:00Z</time></trkpt>
<trkpt lat="46.38314042" lon="6.13506840"><ele>570.198975</ele><time>2007-02-18T15:16:18Z</time></trkpt>
<trkpt lat="46.38313489" lon="6.13491048"><ele>566.834473</ele><time>2007-02-18T15:16:26Z</time></trkpt>
<trkpt lat="46.38307186" lon="6.13432593"><ele>563.950439</ele><time>2007-02-18T15:16:47Z</time></trkpt>
<trkpt lat="46.38302802" lon="6.13401990"><ele>565.873291</ele><time>2007-02-18T15:17:01Z</time></trkpt>
<trkpt lat="46.38294278" lon="6.13328397"><ele>565.392578</ele><time>2007-02-18T15:17:31Z</time></trkpt>
<trkpt lat="46.38286097" lon="6.13270503"><ele>566.834473</ele><time>2007-02-18T15:17:58Z</time></trkpt>
<trkpt lat="46.38275402" lon="6.13229726"><ele>568.276367</ele><time>2007-02-18T15:18:17Z</time></trkpt>
<trkpt lat="46.38275066" lon="6.13227605"><ele>567.795654</ele><time>2007-02-18T15:18:18Z</time></trkpt>
<trkpt lat="46.38268612" lon="6.13217915"><ele>567.795654</ele><time>2007-02-18T15:18:27Z</time></trkpt>
<trkpt lat="46.38270624" lon="6.13208938"><ele>567.315186</ele><time>2007-02-18T15:18:32Z</time></trkpt>
<trkpt lat="46.38268604" lon="6.13192082"><ele>568.276367</ele><time>2007-02-18T15:18:40Z</time></trkpt>
<trkpt lat="46.38264053" lon="6.13159167"><ele>574.044434</ele><time>2007-02-18T15:18:55Z</time></trkpt>
<trkpt lat="46.38255914" lon="6.13110317"><ele>577.40918</ele><time>2007-02-18T15:19:18Z</time></trkpt>
<trkpt lat="46.38245227" lon="6.13057779"><ele>575.967041</ele><time>2007-02-18T15:19:50Z</time></trkpt>
<trkpt lat="46.38244523" lon="6.13056513"><ele>576.447754</ele><time>2007-02-18T15:19:51Z</time></trkpt>
<trkpt lat="46.38228849" lon="6.13007094"><ele>578.370361</ele><time>2007-02-18T15:20:23Z</time></trkpt>
<trkpt lat="46.38220458" lon="6.12993557"><ele>580.292969</ele><time>2007-02-18T15:20:32Z</time></trkpt>
<trkpt lat="46.38216502" lon="6.12983692"><ele>580.773682</ele><time>2007-02-18T15:20:37Z</time></trkpt>
<trkpt lat="46.38213040" lon="6.12978729"><ele>580.773682</ele><time>2007-02-18T15:20:40Z</time></trkpt>
<trkpt lat="46.38205052" lon="6.12963801"><ele>581.734863</ele><time>2007-02-18T15:20:48Z</time></trkpt>
<trkpt lat="46.38197660" lon="6.12947649"><ele>581.734863</ele><time>2007-02-18T15:20:56Z</time></trkpt>
<trkpt lat="46.38193661" lon="6.12942562"><ele>580.773682</ele><time>2007-02-18T15:21:00Z</time></trkpt>
<trkpt lat="46.38178482" lon="6.12922353"><ele>579.812256</ele><time>2007-02-18T15:21:14Z</time></trkpt>
<trkpt lat="46.38161156" lon="6.12904835"><ele>580.773682</ele><time>2007-02-18T15:21:29Z</time></trkpt>
<trkpt lat="46.38155155" lon="6.12898129"><ele>581.254395</ele><time>2007-02-18T15:21:34Z</time></trkpt>
<trkpt lat="46.38151349" lon="6.12893125"><ele>581.254395</ele><time>2007-02-18T15:21:38Z</time></trkpt>
<trkpt lat="46.38126204" lon="6.12868818"><ele>580.773682</ele><time>2007-02-18T15:21:56Z</time></trkpt>
<trkpt lat="46.38097387" lon="6.12833647"><ele>581.734863</ele><time>2007-02-18T15:22:11Z</time></trkpt>
<trkpt lat="46.38055293" lon="6.12777061"><ele>582.215576</ele><time>2007-02-18T15:22:30Z</time></trkpt>
<trkpt lat="46.38029887" lon="6.12735612"><ele>581.734863</ele><time>2007-02-18T15:22:46Z</time></trkpt>
<trkpt lat="46.37994532" lon="6.12674491"><ele>578.370361</ele><time>2007-02-18T15:23:04Z</time></trkpt>
<trkpt lat="46.37952355" lon="6.12612155"><ele>576.447754</ele><time>2007-02-18T15:23:20Z</time></trkpt>
<trkpt lat="46.37920713" lon="6.12548931"><ele>576.928467</ele><time>2007-02-18T15:23:38Z</time></trkpt>
<trkpt lat="46.37908006" lon="6.12514975"><ele>575.005859</ele><time>2007-02-18T15:23:53Z</time></trkpt>
<trkpt lat="46.37900471" lon="6.12494934"><ele>575.486328</ele><time>2007-02-18T15:24:02Z</time></trkpt>
<trkpt lat="46.37893313" lon="6.12483577"><ele>582.215576</ele><time>2007-02-18T15:24:20Z</time></trkpt>
<trkpt lat="46.37890471" lon="6.12473586"><ele>580.292969</ele><time>2007-02-18T15:24:26Z</time></trkpt>
<trkpt lat="46.37865527" lon="6.12441433"><ele>579.812256</ele><time>2007-02-18T15:24:39Z</time></trkpt>
<trkpt lat="46.37836399" lon="6.12394142"><ele>578.851074</ele><time>2007-02-18T15:24:54Z</time></trkpt>
<trkpt lat="46.37818621" lon="6.12369298"><ele>576.447754</ele><time>2007-02-18T15:25:05Z</time></trkpt>
<trkpt lat="46.37759881" lon="6.12313240"><ele>574.525146</ele><time>2007-02-18T15:25:21Z</time></trkpt>
<trkpt lat="46.37732045" lon="6.12306652"><ele>573.563965</ele><time>2007-02-18T15:25:33Z</time></trkpt>
<trkpt lat="46.37679272" lon="6.12299150"><ele>578.851074</ele><time>2007-02-18T15:25:55Z</time></trkpt>
<trkpt lat="46.37667722" lon="6.12296845"><ele>579.331543</ele><time>2007-02-18T15:25:59Z</time></trkpt>
<trkpt lat="46.37651520" lon="6.12279905"><ele>578.851074</ele><time>2007-02-18T15:26:03Z</time></trkpt>
<trkpt lat="46.37630733" lon="6.12254307"><ele>577.40918</ele><time>2007-02-18T15:26:09Z</time></trkpt>
<trkpt lat="46.37612846" lon="6.12249345"><ele>575.486328</ele><time>2007-02-18T15:26:13Z</time></trkpt>
<trkpt lat="46.37603559" lon="6.12247090"><ele>575.005859</ele><time>2007-02-18T15:26:15Z</time></trkpt>
<trkpt lat="46.37587750" lon="6.12237065"><ele>573.083252</ele><time>2007-02-18T15:26:19Z</time></trkpt>
<trkpt lat="46.37518985" lon="6.12164360"><ele>571.640869</ele><time>2007-02-18T15:26:34Z</time></trkpt>
<trkpt lat="46.37503730" lon="6.12145803"><ele>571.1604</ele><time>2007-02-18T15:26:42Z</time></trkpt>
<trkpt lat="46.37502791" lon="6.12131587"><ele>570.679688</ele><time>2007-02-18T15:26:49Z</time></trkpt>
<trkpt lat="46.37507343" lon="6.12124630"><ele>570.679688</ele><time>2007-02-18T15:26:54Z</time></trkpt>
<trkpt lat="46.37521676" lon="6.12111060"><ele>569.718506</ele><time>2007-02-18T15:27:07Z</time></trkpt>
<trkpt lat="46.37522430" lon="6.12105872"><ele>569.718506</ele><time>2007-02-18T15:27:10Z</time></trkpt>
<trkpt lat="46.37527501" lon="6.12094455"><ele>568.75708</ele><time>2007-02-18T15:27:20Z</time></trkpt>
<trkpt lat="46.37523637" lon="6.12088454"><ele>569.237793</ele><time>2007-02-18T15:27:27Z</time></trkpt>
<trkpt lat="46.37521483" lon="6.12090952"><ele>569.237793</ele><time>2007-02-18T15:27:30Z</time></trkpt>
<trkpt lat="46.37521927" lon="6.12097180"><ele>568.276367</ele><time>2007-02-18T15:27:47Z</time></trkpt>
<trkpt lat="46.37524006" lon="6.12100155"><ele>576.928467</ele><time>2007-02-18T15:29:12Z</time></trkpt>
<trkpt lat="46.37530284" lon="6.12105377"><ele>575.486328</ele><time>2007-02-18T15:29:17Z</time></trkpt>
<trkpt lat="46.37543276" lon="6.12114622"><ele>575.005859</ele><time>2007-02-18T15:29:28Z</time></trkpt>
<trkpt lat="46.37560643" lon="6.12139801"><ele>574.044434</ele><time>2007-02-18T15:29:44Z</time></trkpt>
<trkpt lat="46.37569486" lon="6.12135292"><ele>575.967041</ele><time>2007-02-18T15:30:06Z</time></trkpt>
<trkpt lat="46.37560057" lon="6.12130598"><ele>568.75708</ele><time>2007-02-18T15:40:52Z</time></trkpt>
<trkpt lat="46.37559998" lon="6.12128075"><ele>563.950439</ele><time>2007-02-18T15:41:48Z</time></trkpt>
<trkpt lat="46.37557718" lon="6.12129064"><ele>566.834473</ele><time>2007-02-18T15:42:07Z</time></trkpt>
<trkpt lat="46.37548858" lon="6.12119920"><ele>566.35376</ele><time>2007-02-18T15:42:15Z</time></trkpt>
<trkpt lat="46.37542605" lon="6.12112594"><ele>566.834473</ele><time>2007-02-18T15:42:22Z</time></trkpt>
<trkpt lat="46.37528105" lon="6.12101362"><ele>567.315186</ele><time>2007-02-18T15:42:36Z</time></trkpt>
<trkpt lat="46.37525238" lon="6.12098026"><ele>567.795654</ele><time>2007-02-18T15:42:39Z</time></trkpt>
<trkpt lat="46.37522212" lon="6.12094698"><ele>568.276367</ele><time>2007-02-18T15:42:44Z</time></trkpt>
<trkpt lat="46.37520595" lon="6.12093173"><ele>568.276367</ele><time>2007-02-18T15:42:46Z</time></trkpt>
<trkpt lat="46.37512154" lon="6.12112703"><ele>566.35376</ele><time>2007-02-18T15:42:58Z</time></trkpt>
<trkpt lat="46.37498567" lon="6.12122501"><ele>568.276367</ele><time>2007-02-18T15:43:10Z</time></trkpt>
<trkpt lat="46.37497838" lon="6.12122987"><ele>568.276367</ele><time>2007-02-18T15:43:11Z</time></trkpt>
<trkpt lat="46.37494233" lon="6.12139382"><ele>566.834473</ele><time>2007-02-18T15:43:18Z</time></trkpt>
<trkpt lat="46.37490830" lon="6.12141671"><ele>566.834473</ele><time>2007-02-18T15:43:21Z</time></trkpt>
<trkpt lat="46.37476858" lon="6.12158770"><ele>565.392578</ele><time>2007-02-18T15:43:36Z</time></trkpt>
<trkpt lat="46.37465207" lon="6.12160438"><ele>564.911865</ele><time>2007-02-18T15:43:44Z</time></trkpt>
<trkpt lat="46.37448929" lon="6.12138494"><ele>563.950439</ele><time>2007-02-18T15:44:00Z</time></trkpt>
<trkpt lat="46.37428821" lon="6.12114212"><ele>563.469971</ele><time>2007-02-18T15:44:13Z</time></trkpt>
<trkpt lat="46.37396886" lon="6.12077415"><ele>563.950439</ele><time>2007-02-18T15:44:27Z</time></trkpt>
<trkpt lat="46.37362034" lon="6.12025858"><ele>565.392578</ele><time>2007-02-18T15:44:46Z</time></trkpt>
<trkpt lat="46.37345404" lon="6.12006311"><ele>568.276367</ele><time>2007-02-18T15:44:53Z</time></trkpt>
<trkpt lat="46.37264293" lon="6.12030359"><ele>683.153809</ele><time>2007-02-18T15:44:55Z</time></trkpt>
<trkpt lat="46.37316361" lon="6.11962021"><ele>566.834473</ele><time>2007-02-18T15:45:08Z</time></trkpt>
<trkpt lat="46.37286505" lon="6.11927203"><ele>567.315186</ele><time>2007-02-18T15:45:25Z</time></trkpt>
<trkpt lat="46.37270956" lon="6.11910322"><ele>568.75708</ele><time>2007-02-18T15:45:36Z</time></trkpt>
<trkpt lat="46.37265919" lon="6.11905050"><ele>568.75708</ele><time>2007-02-18T15:45:40Z</time></trkpt>
<trkpt lat="46.37262776" lon="6.11900649"><ele>568.75708</ele><time>2007-02-18T15:45:43Z</time></trkpt>
<trkpt lat="46.37243791" lon="6.11881010"><ele>571.1604</ele><time>2007-02-18T15:46:00Z</time></trkpt>
<trkpt lat="46.37242952" lon="6.11879493"><ele>571.1604</ele><time>2007-02-18T15:46:01Z</time></trkpt>
<trkpt lat="46.37234537" lon="6.11871120"><ele>571.640869</ele><time>2007-02-18T15:46:09Z</time></trkpt>
<trkpt lat="46.37224152" lon="6.11860617"><ele>573.563965</ele><time>2007-02-18T15:46:19Z</time></trkpt>
<trkpt lat="46.37215225" lon="6.11850685"><ele>574.044434</ele><time>2007-02-18T15:46:27Z</time></trkpt>
<trkpt lat="46.37211168" lon="6.11845295"><ele>574.044434</ele><time>2007-02-18T15:46:31Z</time></trkpt>
<trkpt lat="46.37205007" lon="6.11839436"><ele>574.525146</ele><time>2007-02-18T15:46:36Z</time></trkpt>
<trkpt lat="46.37202996" lon="6.11836343"><ele>574.525146</ele><time>2007-02-18T15:46:38Z</time></trkpt>
<trkpt lat="46.37197196" lon="6.11829830"><ele>572.602539</ele><time>2007-02-18T15:46:43Z</time></trkpt>
<trkpt lat="46.37182561" lon="6.11817928"><ele>572.602539</ele><time>2007-02-18T15:46:56Z</time></trkpt>
<trkpt lat="46.37176224" lon="6.11808465"><ele>573.563965</ele><time>2007-02-18T15:47:01Z</time></trkpt>
<trkpt lat="46.37155110" lon="6.11783721"><ele>575.005859</ele><time>2007-02-18T15:47:19Z</time></trkpt>
<trkpt lat="46.37150508" lon="6.11777980"><ele>575.486328</ele><time>2007-02-18T15:47:23Z</time></trkpt>
<trkpt lat="46.37141406" lon="6.11762113"><ele>578.851074</ele><time>2007-02-18T15:47:36Z</time></trkpt>
<trkpt lat="46.37134952" lon="6.11763110"><ele>577.40918</ele><time>2007-02-18T15:47:43Z</time></trkpt>
<trkpt lat="46.37115405" lon="6.11744192"><ele>576.447754</ele><time>2007-02-18T15:48:00Z</time></trkpt>
<trkpt lat="46.37105271" lon="6.11736104"><ele>576.447754</ele><time>2007-02-18T15:48:07Z</time></trkpt>
<trkpt lat="46.37105179" lon="6.11742147"><ele>576.928467</ele><time>2007-02-18T15:48:11Z</time></trkpt>
<trkpt lat="46.37114299" lon="6.11752465"><ele>576.447754</ele><time>2007-02-18T15:48:20Z</time></trkpt>
<trkpt lat="46.37116084" lon="6.11753002"><ele>577.40918</ele><time>2007-02-18T15:48:30Z</time></trkpt>
<trkpt lat="46.37113159" lon="6.11761426"><ele>584.138184</ele><time>2007-02-18T15:48:33Z</time></trkpt>
<trkpt lat="46.37113838" lon="6.11759548"><ele>586.541504</ele><time>2007-02-18T15:48:44Z</time></trkpt>
<trkpt lat="46.37133694" lon="6.11775918"><ele>582.696289</ele><time>2007-02-18T15:49:01Z</time></trkpt>
<trkpt lat="46.37159167" lon="6.11803352"><ele>580.773682</ele><time>2007-02-18T15:49:15Z</time></trkpt>
<trkpt lat="46.37204932" lon="6.11852277"><ele>578.851074</ele><time>2007-02-18T15:49:31Z</time></trkpt>
<trkpt lat="46.37272490" lon="6.11923926"><ele>572.602539</ele><time>2007-02-18T15:49:44Z</time></trkpt>
<trkpt lat="46.37343275" lon="6.12010628"><ele>567.795654</ele><time>2007-02-18T15:49:57Z</time></trkpt>
<trkpt lat="46.37377205" lon="6.12060936"><ele>563.950439</ele><time>2007-02-18T15:50:06Z</time></trkpt>
<trkpt lat="46.37372386" lon="6.12066845"><ele>594.232178</ele><time>2007-02-18T15:50:09Z</time></trkpt>
<trkpt lat="46.37428561" lon="6.12048606"><ele>602.883789</ele><time>2007-02-18T15:50:10Z</time></trkpt>
<trkpt lat="46.37408679" lon="6.12101228"><ele>619.226318</ele><time>2007-02-18T15:50:15Z</time></trkpt>
<trkpt lat="46.37458032" lon="6.12162307"><ele>597.115967</ele><time>2007-02-18T15:50:33Z</time></trkpt>
<trkpt lat="46.37459440" lon="6.12165635"><ele>584.618896</ele><time>2007-02-18T15:50:50Z</time></trkpt>
<trkpt lat="46.37463044" lon="6.12167898"><ele>580.773682</ele><time>2007-02-18T15:51:06Z</time></trkpt>
<trkpt lat="46.37481619" lon="6.12162265"><ele>577.889648</ele><time>2007-02-18T15:51:16Z</time></trkpt>
<trkpt lat="46.37512615" lon="6.12163229"><ele>574.044434</ele><time>2007-02-18T15:51:32Z</time></trkpt>
<trkpt lat="46.37556855" lon="6.12185919"><ele>573.563965</ele><time>2007-02-18T15:51:52Z</time></trkpt>
<trkpt lat="46.37579544" lon="6.12219388"><ele>574.525146</ele><time>2007-02-18T15:52:11Z</time></trkpt>
<trkpt lat="46.37588915" lon="6.12235456"><ele>574.044434</ele><time>2007-02-18T15:52:28Z</time></trkpt>
<trkpt lat="46.37597490" lon="6.12241633"><ele>575.486328</ele><time>2007-02-18T15:52:41Z</time></trkpt>
<trkpt lat="46.37606014" lon="6.12245296"><ele>575.967041</ele><time>2007-02-18T15:52:52Z</time></trkpt>
<trkpt lat="46.37616634" lon="6.12244911"><ele>576.447754</ele><time>2007-02-18T15:53:06Z</time></trkpt>
<trkpt lat="46.37620892" lon="6.12247249"><ele>576.447754</ele><time>2007-02-18T15:53:10Z</time></trkpt>
<trkpt lat="46.37628780" lon="6.12254835"><ele>576.447754</ele><time>2007-02-18T15:53:25Z</time></trkpt>
<trkpt lat="46.37642669" lon="6.12269780"><ele>577.889648</ele><time>2007-02-18T15:54:00Z</time></trkpt>
<trkpt lat="46.37678350" lon="6.12303039"><ele>579.331543</ele><time>2007-02-18T15:54:21Z</time></trkpt>
<trkpt lat="46.37753989" lon="6.12333901"><ele>580.292969</ele><time>2007-02-18T15:54:48Z</time></trkpt>
<trkpt lat="46.37775203" lon="6.12347513"><ele>580.292969</ele><time>2007-02-18T15:54:54Z</time></trkpt>
<trkpt lat="46.37780014" lon="6.12356490"><ele>580.773682</ele><time>2007-02-18T15:54:57Z</time></trkpt>
<trkpt lat="46.37828462" lon="6.12407092"><ele>578.851074</ele><time>2007-02-18T15:55:16Z</time></trkpt>
<trkpt lat="46.37869709" lon="6.12456906"><ele>580.773682</ele><time>2007-02-18T15:55:36Z</time></trkpt>
<trkpt lat="46.37893505" lon="6.12495278"><ele>580.773682</ele><time>2007-02-18T15:55:53Z</time></trkpt>
<trkpt lat="46.37911954" lon="6.12534095"><ele>580.292969</ele><time>2007-02-18T15:56:09Z</time></trkpt>
<trkpt lat="46.37934350" lon="6.12590111"><ele>578.851074</ele><time>2007-02-18T15:56:26Z</time></trkpt>
<trkpt lat="46.37981415" lon="6.12656806"><ele>580.292969</ele><time>2007-02-18T15:56:44Z</time></trkpt>
<trkpt lat="46.37998480" lon="6.12688632"><ele>581.254395</ele><time>2007-02-18T15:56:50Z</time></trkpt>
<trkpt lat="46.38036719" lon="6.12753038"><ele>583.657471</ele><time>2007-02-18T15:57:06Z</time></trkpt>
<trkpt lat="46.38078234" lon="6.12808459"><ele>581.734863</ele><time>2007-02-18T15:57:24Z</time></trkpt>
<trkpt lat="46.38108434" lon="6.12846077"><ele>583.176758</ele><time>2007-02-18T15:57:41Z</time></trkpt>
<trkpt lat="46.38149455" lon="6.12888632"><ele>582.696289</ele><time>2007-02-18T15:58:02Z</time></trkpt>
<trkpt lat="46.38190250" lon="6.12932252"><ele>582.215576</ele><time>2007-02-18T15:58:21Z</time></trkpt>
<trkpt lat="46.38207911" lon="6.12956744"><ele>580.773682</ele><time>2007-02-18T15:58:28Z</time></trkpt>
<trkpt lat="46.38199260" lon="6.12882757"><ele>570.198975</ele><time>2007-02-18T15:58:30Z</time></trkpt>
<trkpt lat="46.38329105" lon="6.12707458"><ele>115.014893</ele><time>2007-02-18T15:58:31Z</time></trkpt>
<trkpt lat="46.38366194" lon="6.12636480"><ele>-20.531006</ele><time>2007-02-18T15:58:32Z</time></trkpt>
<trkpt lat="46.38415145" lon="6.12577756"><ele>-46.005859</ele><time>2007-02-18T15:58:35Z</time></trkpt>
<trkpt lat="46.38218371" lon="6.13052825"><ele>648.546387</ele><time>2007-02-18T15:58:38Z</time></trkpt>
<trkpt lat="46.38245529" lon="6.13014570"><ele>598.077393</ele><time>2007-02-18T15:58:39Z</time></trkpt>
<trkpt lat="46.38271479" lon="6.12999164"><ele>453.879639</ele><time>2007-02-18T15:58:40Z</time></trkpt>
<trkpt lat="46.38257775" lon="6.13018879"><ele>573.563965</ele><time>2007-02-18T15:58:42Z</time></trkpt>
<trkpt lat="46.38250952" lon="6.13065641"><ele>566.834473</ele><time>2007-02-18T15:58:47Z</time></trkpt>
<trkpt lat="46.38269945" lon="6.13190590"><ele>570.679688</ele><time>2007-02-18T15:58:59Z</time></trkpt>
<trkpt lat="46.38271110" lon="6.13199442"><ele>570.679688</ele><time>2007-02-18T15:59:00Z</time></trkpt>
<trkpt lat="46.38302031" lon="6.13334566"><ele>568.276367</ele><time>2007-02-18T15:59:16Z</time></trkpt>
<trkpt lat="46.38320345" lon="6.13480629"><ele>566.35376</ele><time>2007-02-18T15:59:29Z</time></trkpt>
<trkpt lat="46.38324302" lon="6.13504426"><ele>565.873291</ele><time>2007-02-18T15:59:31Z</time></trkpt>
<trkpt lat="46.38377829" lon="6.13573601"><ele>563.950439</ele><time>2007-02-18T15:59:42Z</time></trkpt>
<trkpt lat="46.38420082" lon="6.13612058"><ele>564.431152</ele><time>2007-02-18T15:59:51Z</time></trkpt>
<trkpt lat="46.38488780" lon="6.13640992"><ele>564.911865</ele><time>2007-02-18T16:00:06Z</time></trkpt>
<trkpt lat="46.38542139" lon="6.13680286"><ele>563.950439</ele><time>2007-02-18T16:00:21Z</time></trkpt>
<trkpt lat="46.38621725" lon="6.13736445"><ele>563.950439</ele><time>2007-02-18T16:00:40Z</time></trkpt>
<trkpt lat="46.38668437" lon="6.13766855"><ele>565.392578</ele><time>2007-02-18T16:00:55Z</time></trkpt>
<trkpt lat="46.38703683" lon="6.13788321"><ele>564.911865</ele><time>2007-02-18T16:01:12Z</time></trkpt>
<trkpt lat="46.38735375" lon="6.13805772"><ele>565.392578</ele><time>2007-02-18T16:01:29Z</time></trkpt>
<trkpt lat="46.38778341" lon="6.13829811"><ele>565.873291</ele><time>2007-02-18T16:01:48Z</time></trkpt>
<trkpt lat="46.38827551" lon="6.13867940"><ele>564.911865</ele><time>2007-02-18T16:02:07Z</time></trkpt>
<trkpt lat="46.38839914" lon="6.13880622"><ele>564.911865</ele><time>2007-02-18T16:02:13Z</time></trkpt>
<trkpt lat="46.38877583" lon="6.13887227"><ele>564.911865</ele><time>2007-02-18T16:02:33Z</time></trkpt>
<trkpt lat="46.38921043" lon="6.13917771"><ele>564.911865</ele><time>2007-02-18T16:02:50Z</time></trkpt>
<trkpt lat="46.38975592" lon="6.13987064"><ele>564.911865</ele><time>2007-02-18T16:03:10Z</time></trkpt>
<trkpt lat="46.39038331" lon="6.14057329"><ele>562.508545</ele><time>2007-02-18T16:03:33Z</time></trkpt>
<trkpt lat="46.39046486" lon="6.14069927"><ele>562.028076</ele><time>2007-02-18T16:03:36Z</time></trkpt>
<trkpt lat="46.39093786" lon="6.14153562"><ele>560.585938</ele><time>2007-02-18T16:03:57Z</time></trkpt>
<trkpt lat="46.39093249" lon="6.14168490"><ele>560.105225</ele><time>2007-02-18T16:04:01Z</time></trkpt>
<trkpt lat="46.39086770" lon="6.14179806"><ele>559.144043</ele><time>2007-02-18T16:04:03Z</time></trkpt>
<trkpt lat="46.39014971" lon="6.14237767"><ele>555.298584</ele><time>2007-02-18T16:04:15Z</time></trkpt>
<trkpt lat="46.39017234" lon="6.14249694"><ele>555.298584</ele><time>2007-02-18T16:04:21Z</time></trkpt>
<trkpt lat="46.39022917" lon="6.14258160"><ele>555.779297</ele><time>2007-02-18T16:04:30Z</time></trkpt>
<trkpt lat="46.39030351" lon="6.14265393"><ele>556.26001</ele><time>2007-02-18T16:04:32Z</time></trkpt>
<trkpt lat="46.39096459" lon="6.14327839"><ele>555.298584</ele><time>2007-02-18T16:04:51Z</time></trkpt>
<trkpt lat="46.39113659" lon="6.14342490"><ele>555.298584</ele><time>2007-02-18T16:04:56Z</time></trkpt>
<trkpt lat="46.39132141" lon="6.14357452"><ele>555.779297</ele><time>2007-02-18T16:05:01Z</time></trkpt>
<trkpt lat="46.39183958" lon="6.14397727"><ele>557.221436</ele><time>2007-02-18T16:05:18Z</time></trkpt>
<trkpt lat="46.39234073" lon="6.14431732"><ele>558.66333</ele><time>2007-02-18T16:05:39Z</time></trkpt>
<trkpt lat="46.39275991" lon="6.14458135"><ele>559.144043</ele><time>2007-02-18T16:05:59Z</time></trkpt>
<trkpt lat="46.39329527" lon="6.14508712"><ele>559.624756</ele><time>2007-02-18T16:06:19Z</time></trkpt>
<trkpt lat="46.39363507" lon="6.14537864"><ele>560.585938</ele><time>2007-02-18T16:06:35Z</time></trkpt>
<trkpt lat="46.39385886" lon="6.14549129"><ele>562.989258</ele><time>2007-02-18T16:06:53Z</time></trkpt>
<trkpt lat="46.39401695" lon="6.14553714"><ele>564.431152</ele><time>2007-02-18T16:07:09Z</time></trkpt>
<trkpt lat="46.39422113" lon="6.14554896"><ele>564.911865</ele><time>2007-02-18T16:07:24Z</time></trkpt>
<trkpt lat="46.39427285" lon="6.14556053"><ele>565.392578</ele><time>2007-02-18T16:07:27Z</time></trkpt>
<trkpt lat="46.39461164" lon="6.14573873"><ele>567.315186</ele><time>2007-02-18T16:07:49Z</time></trkpt>
<trkpt lat="46.39487970" lon="6.14589815"><ele>568.75708</ele><time>2007-02-18T16:08:08Z</time></trkpt>
<trkpt lat="46.39509846" lon="6.14602530"><ele>569.718506</ele><time>2007-02-18T16:08:25Z</time></trkpt>
<trkpt lat="46.39531136" lon="6.14623225"><ele>568.276367</ele><time>2007-02-18T16:08:39Z</time></trkpt>
<trkpt lat="46.39579374" lon="6.14691345"><ele>566.35376</ele><time>2007-02-18T16:09:03Z</time></trkpt>
<trkpt lat="46.39622709" lon="6.14755508"><ele>565.392578</ele><time>2007-02-18T16:09:27Z</time></trkpt>
<trkpt lat="46.39684316" lon="6.14841197"><ele>563.950439</ele><time>2007-02-18T16:09:49Z</time></trkpt>
<trkpt lat="46.39750566" lon="6.14948544"><ele>562.508545</ele><time>2007-02-18T16:10:07Z</time></trkpt>
<trkpt lat="46.39878114" lon="6.15115260"><ele>564.431152</ele><time>2007-02-18T16:10:40Z</time></trkpt>
<trkpt lat="46.39950559" lon="6.15177152"><ele>565.392578</ele><time>2007-02-18T16:11:02Z</time></trkpt>
<trkpt lat="46.39984757" lon="6.15202281"><ele>567.315186</ele><time>2007-02-18T16:11:23Z</time></trkpt>
<trkpt lat="46.39984949" lon="6.15201753"><ele>568.75708</ele><time>2007-02-18T16:11:42Z</time></trkpt>
<trkpt lat="46.40005385" lon="6.15222917"><ele>571.640869</ele><time>2007-02-18T16:12:19Z</time></trkpt>
<trkpt lat="46.40045391" lon="6.15257953"><ele>569.718506</ele><time>2007-02-18T16:12:33Z</time></trkpt>
<trkpt lat="46.40091701" lon="6.15310726"><ele>569.237793</ele><time>2007-02-18T16:12:50Z</time></trkpt>
<trkpt lat="46.40118909" lon="6.15345980"><ele>567.315186</ele><time>2007-02-18T16:13:04Z</time></trkpt>
<trkpt lat="46.40126428" lon="6.15361512"><ele>567.315186</ele><time>2007-02-18T16:13:14Z</time></trkpt>
<trkpt lat="46.40131909" lon="6.15367429"><ele>566.834473</ele><time>2007-02-18T16:13:20Z</time></trkpt>
<trkpt lat="46.40143133" lon="6.15382567"><ele>566.35376</ele><time>2007-02-18T16:13:34Z</time></trkpt>
<trkpt lat="46.40157281" lon="6.15406606"><ele>565.873291</ele><time>2007-02-18T16:13:52Z</time></trkpt>
<trkpt lat="46.40158815" lon="6.15409909"><ele>566.35376</ele><time>2007-02-18T16:13:54Z</time></trkpt>
<trkpt lat="46.40167164" lon="6.15425072"><ele>566.35376</ele><time>2007-02-18T16:14:02Z</time></trkpt>
<trkpt lat="46.40168848" lon="6.15427880"><ele>566.35376</ele><time>2007-02-18T16:14:04Z</time></trkpt>
<trkpt lat="46.40178471" lon="6.15443227"><ele>566.834473</ele><time>2007-02-18T16:14:17Z</time></trkpt>
<trkpt lat="46.40179820" lon="6.15445398"><ele>566.834473</ele><time>2007-02-18T16:14:19Z</time></trkpt>
<trkpt lat="46.40186911" lon="6.15465925"><ele>567.315186</ele><time>2007-02-18T16:14:35Z</time></trkpt>
<trkpt lat="46.40203047" lon="6.15509100"><ele>567.795654</ele><time>2007-02-18T16:14:59Z</time></trkpt>
<trkpt lat="46.40238628" lon="6.15578075"><ele>569.237793</ele><time>2007-02-18T16:15:26Z</time></trkpt>
<trkpt lat="46.40291266" lon="6.15667250"><ele>570.198975</ele><time>2007-02-18T16:15:56Z</time></trkpt>
<trkpt lat="46.40329689" lon="6.15733257"><ele>568.276367</ele><time>2007-02-18T16:16:16Z</time></trkpt>
<trkpt lat="46.40372495" lon="6.15844938"><ele>568.75708</ele><time>2007-02-18T16:16:37Z</time></trkpt>
<trkpt lat="46.40385043" lon="6.15883143"><ele>568.276367</ele><time>2007-02-18T16:16:48Z</time></trkpt>
<trkpt lat="46.40413927" lon="6.15945186"><ele>567.315186</ele><time>2007-02-18T16:17:02Z</time></trkpt>
<trkpt lat="46.40451746" lon="6.16017899"><ele>564.911865</ele><time>2007-02-18T16:17:15Z</time></trkpt>
<trkpt lat="46.40467336" lon="6.16041016"><ele>563.950439</ele><time>2007-02-18T16:17:20Z</time></trkpt>
<trkpt lat="46.40529455" lon="6.16126419"><ele>561.547363</ele><time>2007-02-18T16:17:38Z</time></trkpt>
<trkpt lat="46.40563494" lon="6.16180893"><ele>560.585938</ele><time>2007-02-18T16:17:53Z</time></trkpt>
<trkpt lat="46.40601874" lon="6.16225870"><ele>560.105225</ele><time>2007-02-18T16:18:07Z</time></trkpt>
<trkpt lat="46.40622846" lon="6.16252868"><ele>560.105225</ele><time>2007-02-18T16:18:14Z</time></trkpt>
<trkpt lat="46.40630197" lon="6.16268073"><ele>560.585938</ele><time>2007-02-18T16:18:17Z</time></trkpt>
<trkpt lat="46.40650976" lon="6.16344474"><ele>561.06665</ele><time>2007-02-18T16:18:34Z</time></trkpt>
<trkpt lat="46.40670388" lon="6.16406173"><ele>561.547363</ele><time>2007-02-18T16:18:51Z</time></trkpt>
<trkpt lat="46.40697453" lon="6.16463296"><ele>561.547363</ele><time>2007-02-18T16:19:11Z</time></trkpt>
<trkpt lat="46.40729774" lon="6.16524132"><ele>562.028076</ele><time>2007-02-18T16:19:30Z</time></trkpt>
<trkpt lat="46.40759697" lon="6.16563963"><ele>561.06665</ele><time>2007-02-18T16:19:45Z</time></trkpt>
<trkpt lat="46.40786469" lon="6.16604732"><ele>562.028076</ele><time>2007-02-18T16:20:00Z</time></trkpt>
<trkpt lat="46.40818647" lon="6.16650154"><ele>562.989258</ele><time>2007-02-18T16:20:16Z</time></trkpt>
<trkpt lat="46.40855360" lon="6.16699322"><ele>563.469971</ele><time>2007-02-18T16:20:33Z</time></trkpt>
<trkpt lat="46.40903606" lon="6.16767316"><ele>563.950439</ele><time>2007-02-18T16:20:53Z</time></trkpt>
<trkpt lat="46.40919507" lon="6.16822897"><ele>562.989258</ele><time>2007-02-18T16:21:07Z</time></trkpt>
<trkpt lat="46.40920353" lon="6.16836718"><ele>562.989258</ele><time>2007-02-18T16:21:09Z</time></trkpt>
<trkpt lat="46.40919155" lon="6.16878552"><ele>561.547363</ele><time>2007-02-18T16:21:14Z</time></trkpt>
<trkpt lat="46.40901997" lon="6.16918894"><ele>560.585938</ele><time>2007-02-18T16:21:19Z</time></trkpt>
<trkpt lat="46.40879206" lon="6.16950687"><ele>559.624756</ele><time>2007-02-18T16:21:23Z</time></trkpt>
<trkpt lat="46.40844665" lon="6.17034581"><ele>556.740723</ele><time>2007-02-18T16:21:30Z</time></trkpt>
<trkpt lat="46.40823039" lon="6.17159472"><ele>554.337402</ele><time>2007-02-18T16:21:39Z</time></trkpt>
<trkpt lat="46.40801053" lon="6.17205380"><ele>552.895264</ele><time>2007-02-18T16:21:43Z</time></trkpt>
<trkpt lat="46.40782764" lon="6.17237809"><ele>551.453369</ele><time>2007-02-18T16:21:46Z</time></trkpt>
<trkpt lat="46.40753587" lon="6.17310438"><ele>550.011475</ele><time>2007-02-18T16:21:52Z</time></trkpt>
<trkpt lat="46.40738416" lon="6.17363228"><ele>547.608154</ele><time>2007-02-18T16:21:56Z</time></trkpt>
<trkpt lat="46.40737225" lon="6.17467088"><ele>548.569336</ele><time>2007-02-18T16:22:06Z</time></trkpt>
<trkpt lat="46.40735993" lon="6.17481337"><ele>549.050049</ele><time>2007-02-18T16:22:08Z</time></trkpt>
<trkpt lat="46.40733470" lon="6.17551611"><ele>549.050049</ele><time>2007-02-18T16:22:24Z</time></trkpt>
<trkpt lat="46.40733470" lon="6.17606009"><ele>550.492188</ele><time>2007-02-18T16:22:39Z</time></trkpt>
<trkpt lat="46.40746211" lon="6.17634709"><ele>547.608154</ele><time>2007-02-18T16:22:50Z</time></trkpt>
<trkpt lat="46.40794465" lon="6.17670525"><ele>547.608154</ele><time>2007-02-18T16:23:06Z</time></trkpt>
<trkpt lat="46.40846668" lon="6.17703893"><ele>547.608154</ele><time>2007-02-18T16:23:22Z</time></trkpt>
<trkpt lat="46.40868050" lon="6.17727740"><ele>547.127441</ele><time>2007-02-18T16:23:34Z</time></trkpt>
<trkpt lat="46.40869483" lon="6.17727463"><ele>545.685547</ele><time>2007-02-18T16:23:46Z</time></trkpt>
<trkpt lat="46.40882417" lon="6.17742165"><ele>548.569336</ele><time>2007-02-18T16:25:47Z</time></trkpt>
<trkpt lat="46.40888745" lon="6.17752542"><ele>548.569336</ele><time>2007-02-18T16:25:52Z</time></trkpt>
<trkpt lat="46.40882484" lon="6.17766808"><ele>549.050049</ele><time>2007-02-18T16:25:58Z</time></trkpt>
<trkpt lat="46.40877647" lon="6.17784410"><ele>549.050049</ele><time>2007-02-18T16:26:14Z</time></trkpt>
<trkpt lat="46.40875510" lon="6.17787528"><ele>552.414551</ele><time>2007-02-18T16:26:43Z</time></trkpt>
<trkpt lat="46.40875527" lon="6.17784594"><ele>544.243652</ele><time>2007-02-18T16:27:22Z</time></trkpt>
<trkpt lat="46.40876013" lon="6.17784209"><ele>538.475708</ele><time>2007-02-18T16:27:32Z</time></trkpt>
<trkpt lat="46.40871763" lon="6.17805004"><ele>551.918457</ele><time>2007-02-18T21:52:04Z</time></trkpt>
<trkpt lat="46.40891075" lon="6.17751360"><ele>542.786011</ele><time>2007-02-18T21:52:04Z</time></trkpt>
<trkpt lat="46.40830994" lon="6.17684841"><ele>540.863403</ele><time>2007-02-18T21:52:04Z</time></trkpt>
<trkpt lat="46.41079903" lon="6.17386580"><ele>309.668091</ele><time>2007-02-18T21:52:04Z</time></trkpt>
<trkpt lat="46.40818119" lon="6.17695570"><ele>551.918457</ele><time>2007-02-18T21:52:04Z</time></trkpt>
<trkpt lat="46.40766621" lon="6.17667675"><ele>548.073242</ele><time>2007-02-18T21:52:04Z</time></trkpt>
<trkpt lat="46.40732288" lon="6.17605448"><ele>547.111816</ele><time>2007-02-18T21:52:04Z</time></trkpt>
<trkpt lat="46.40760183" lon="6.17317915"><ele>548.073242</ele><time>2007-02-18T21:52:04Z</time></trkpt>
<trkpt lat="46.40824556" lon="6.17150545"><ele>554.321777</ele><time>2007-02-18T21:52:04Z</time></trkpt>
<trkpt lat="46.40871763" lon="6.16963863"><ele>560.570068</ele><time>2007-02-18T21:52:04Z</time></trkpt>
<trkpt lat="46.40918970" lon="6.16897345"><ele>564.415527</ele><time>2007-02-18T21:52:04Z</time></trkpt>
<trkpt lat="46.40914679" lon="6.16790056"><ele>564.89624</ele><time>2007-02-18T21:52:04Z</time></trkpt>
<trkpt lat="46.40725851" lon="6.16517544"><ele>561.531494</ele><time>2007-02-18T21:52:04Z</time></trkpt>
<trkpt lat="46.40629292" lon="6.16268635"><ele>559.608887</ele><time>2007-02-18T21:52:04Z</time></trkpt>
<trkpt lat="46.40440464" lon="6.15993977"><ele>562.012207</ele><time>2007-02-18T21:52:04Z</time></trkpt>
<trkpt lat="46.40305281" lon="6.15702152"><ele>565.857666</ele><time>2007-02-18T21:52:05Z</time></trkpt>
<trkpt lat="46.40386820" lon="6.15914583"><ele>565.857666</ele><time>2007-02-18T21:52:05Z</time></trkpt>
<trkpt lat="46.40537024" lon="6.16142035"><ele>564.415527</ele><time>2007-02-18T21:52:05Z</time></trkpt>
<trkpt lat="46.40373945" lon="6.15869522"><ele>566.818848</ele><time>2007-02-18T21:52:05Z</time></trkpt>
<trkpt lat="46.40333176" lon="6.15751505"><ele>565.857666</ele><time>2007-02-18T21:52:05Z</time></trkpt>
<trkpt lat="46.40178680" lon="6.15440369"><ele>563.454102</ele><time>2007-02-18T21:52:05Z</time></trkpt>
<trkpt lat="46.40069246" lon="6.15288019"><ele>561.050781</ele><time>2007-02-18T21:52:05Z</time></trkpt>
<trkpt lat="46.39846087" lon="6.15090609"><ele>561.050781</ele><time>2007-02-18T21:52:05Z</time></trkpt>
<trkpt lat="46.39515638" lon="6.14605665"><ele>566.818848</ele><time>2007-02-18T21:52:05Z</time></trkpt>
<trkpt lat="46.39378309" lon="6.14545584"><ele>560.570068</ele><time>2007-02-18T21:52:05Z</time></trkpt>
<trkpt lat="46.39084339" lon="6.14324570"><ele>553.360352</ele><time>2007-02-18T21:52:05Z</time></trkpt>
<trkpt lat="46.39009237" lon="6.14247322"><ele>554.802246</ele><time>2007-02-18T21:52:05Z</time></trkpt>
<trkpt lat="46.39088631" lon="6.14182949"><ele>559.128174</ele><time>2007-02-18T21:52:05Z</time></trkpt>
<trkpt lat="46.39090776" lon="6.14150763"><ele>561.050781</ele><time>2007-02-18T21:52:05Z</time></trkpt>
<trkpt lat="46.39039278" lon="6.14064932"><ele>561.050781</ele><time>2007-02-18T21:52:05Z</time></trkpt>
<trkpt lat="46.38880491" lon="6.13882542"><ele>570.18335</ele><time>2007-02-18T21:52:05Z</time></trkpt>
<trkpt lat="46.38839722" lon="6.13888979"><ele>568.741455</ele><time>2007-02-18T21:52:05Z</time></trkpt>
<trkpt lat="46.38507128" lon="6.13652945"><ele>562.973389</ele><time>2007-02-18T21:52:05Z</time></trkpt>
<trkpt lat="46.38427734" lon="6.13618612"><ele>561.531494</ele><time>2007-02-18T21:52:05Z</time></trkpt>
<trkpt lat="46.38322592" lon="6.13524199"><ele>559.608887</ele><time>2007-02-18T21:52:05Z</time></trkpt>
<trkpt lat="46.38228178" lon="6.13007069"><ele>578.354492</ele><time>2007-02-18T21:52:05Z</time></trkpt>
<trkpt lat="46.38198137" lon="6.12946987"><ele>581.718994</ele><time>2007-02-18T21:52:06Z</time></trkpt>
<trkpt lat="46.38054371" lon="6.12777472"><ele>582.199707</ele><time>2007-02-18T21:52:06Z</time></trkpt>
<trkpt lat="46.37835503" lon="6.12393379"><ele>578.835205</ele><time>2007-02-18T21:52:06Z</time></trkpt>
<trkpt lat="46.37760401" lon="6.12313986"><ele>574.509277</ele><time>2007-02-18T21:52:06Z</time></trkpt>
<trkpt lat="46.37668133" lon="6.12296820"><ele>579.315674</ele><time>2007-02-18T21:52:06Z</time></trkpt>
<trkpt lat="46.37588739" lon="6.12236738"><ele>573.067383</ele><time>2007-02-18T21:52:06Z</time></trkpt>
<trkpt lat="46.37502909" lon="6.12146616"><ele>571.144775</ele><time>2007-02-18T21:52:06Z</time></trkpt>
<trkpt lat="46.37524366" lon="6.12088680"><ele>569.222168</ele><time>2007-02-18T21:52:06Z</time></trkpt>
<trkpt lat="46.37560844" lon="6.12140179"><ele>574.028564</ele><time>2007-02-18T21:52:06Z</time></trkpt>
<trkpt lat="46.37569427" lon="6.12135887"><ele>575.951172</ele><time>2007-02-18T21:52:06Z</time></trkpt>
<trkpt lat="46.37520075" lon="6.12092972"><ele>568.260742</ele><time>2007-02-18T21:52:06Z</time></trkpt>
<trkpt lat="46.37494326" lon="6.12140179"><ele>566.818848</ele><time>2007-02-18T21:52:06Z</time></trkpt>
<trkpt lat="46.37464285" lon="6.12159491"><ele>564.89624</ele><time>2007-02-18T21:52:06Z</time></trkpt>
<trkpt lat="46.37346268" lon="6.12007141"><ele>568.260742</ele><time>2007-02-18T21:52:06Z</time></trkpt>
<trkpt lat="46.37264729" lon="6.12030745"><ele>683.137207</ele><time>2007-02-18T21:52:06Z</time></trkpt>
<trkpt lat="46.37316227" lon="6.11962080"><ele>566.818848</ele><time>2007-02-18T21:52:06Z</time></trkpt>
<trkpt lat="46.37142420" lon="6.11762524"><ele>578.835205</ele><time>2007-02-18T21:52:06Z</time></trkpt>
<trkpt lat="46.37105942" lon="6.11736774"><ele>576.431885</ele><time>2007-02-18T21:52:06Z</time></trkpt>
<trkpt lat="46.37112379" lon="6.11760378"><ele>584.122314</ele><time>2007-02-18T21:52:06Z</time></trkpt>
<trkpt lat="46.37344122" lon="6.12011433"><ele>567.780029</ele><time>2007-02-18T21:52:06Z</time></trkpt>
<trkpt lat="46.37372017" lon="6.12067223"><ele>594.216064</ele><time>2007-02-18T21:52:06Z</time></trkpt>
<trkpt lat="46.37427807" lon="6.12047911"><ele>602.86792</ele><time>2007-02-18T21:52:07Z</time></trkpt>
<trkpt lat="46.37408495" lon="6.12101555"><ele>619.210205</ele><time>2007-02-18T21:52:07Z</time></trkpt>
<trkpt lat="46.37459993" lon="6.12165928"><ele>584.603027</ele><time>2007-02-18T21:52:07Z</time></trkpt>
<trkpt lat="46.37556553" lon="6.12185240"><ele>573.548096</ele><time>2007-02-18T21:52:07Z</time></trkpt>
<trkpt lat="46.37588739" lon="6.12234592"><ele>574.028564</ele><time>2007-02-18T21:52:07Z</time></trkpt>
<trkpt lat="46.37678862" lon="6.12303257"><ele>579.315674</ele><time>2007-02-18T21:52:07Z</time></trkpt>
<trkpt lat="46.37775421" lon="6.12348318"><ele>580.2771</ele><time>2007-02-18T21:52:07Z</time></trkpt>
<trkpt lat="46.37869835" lon="6.12457752"><ele>580.757813</ele><time>2007-02-18T21:52:07Z</time></trkpt>
<trkpt lat="46.38037205" lon="6.12753868"><ele>583.641602</ele><time>2007-02-18T21:52:07Z</time></trkpt>
<trkpt lat="46.38208866" lon="6.12957716"><ele>580.757813</ele><time>2007-02-18T21:52:07Z</time></trkpt>
<trkpt lat="46.38200283" lon="6.12882614"><ele>570.18335</ele><time>2007-02-18T21:52:07Z</time></trkpt>
<trkpt lat="46.38414860" lon="6.12577915"><ele>-46.016968</ele><time>2007-02-18T21:52:07Z</time></trkpt>
<trkpt lat="46.38217449" lon="6.13052130"><ele>648.530029</ele><time>2007-02-18T21:52:07Z</time></trkpt>
<trkpt lat="46.38271093" lon="6.12998486"><ele>453.864746</ele><time>2007-02-18T21:52:07Z</time></trkpt>
<trkpt lat="46.38251781" lon="6.13065004"><ele>566.818848</ele><time>2007-02-18T21:52:07Z</time></trkpt>
<trkpt lat="46.38324738" lon="6.13504887"><ele>565.857666</ele><time>2007-02-18T21:52:07Z</time></trkpt>
<trkpt lat="46.38419151" lon="6.13612175"><ele>564.415527</ele><time>2007-02-18T21:52:07Z</time></trkpt>
<trkpt lat="46.38921261" lon="6.13916874"><ele>564.89624</ele><time>2007-02-18T21:52:07Z</time></trkpt>
<trkpt lat="46.39039278" lon="6.14056349"><ele>562.492676</ele><time>2007-02-18T21:52:07Z</time></trkpt>
<trkpt lat="46.39092922" lon="6.14152908"><ele>560.570068</ele><time>2007-02-18T21:52:07Z</time></trkpt>
<trkpt lat="46.39086485" lon="6.14180803"><ele>559.128174</ele><time>2007-02-18T21:52:07Z</time></trkpt>
<trkpt lat="46.39015675" lon="6.14238739"><ele>555.282959</ele><time>2007-02-18T21:52:08Z</time></trkpt>
<trkpt lat="46.39022112" lon="6.14258051"><ele>555.763672</ele><time>2007-02-18T21:52:08Z</time></trkpt>
<trkpt lat="46.39363289" lon="6.14537001"><ele>560.570068</ele><time>2007-02-18T21:52:08Z</time></trkpt>
<trkpt lat="46.39530659" lon="6.14622831"><ele>568.260742</ele><time>2007-02-18T21:52:08Z</time></trkpt>
<trkpt lat="46.39878273" lon="6.15114212"><ele>564.415527</ele><time>2007-02-18T21:52:08Z</time></trkpt>
<trkpt lat="46.40045643" lon="6.15257978"><ele>569.702881</ele><time>2007-02-18T21:52:08Z</time></trkpt>
<trkpt lat="46.40142202" lon="6.15382433"><ele>566.338135</ele><time>2007-02-18T21:52:08Z</time></trkpt>
<trkpt lat="46.40328884" lon="6.15732193"><ele>568.260742</ele><time>2007-02-18T21:52:08Z</time></trkpt>
<trkpt lat="46.40451193" lon="6.16017580"><ele>564.89624</ele><time>2007-02-18T21:52:08Z</time></trkpt>
<trkpt lat="46.40622854" lon="6.16253614"><ele>560.089355</ele><time>2007-02-18T21:52:08Z</time></trkpt>
<trkpt lat="46.40670061" lon="6.16405964"><ele>561.531494</ele><time>2007-02-18T21:52:08Z</time></trkpt>
<trkpt lat="46.40730143" lon="6.16523981"><ele>562.012207</ele><time>2007-02-18T21:52:08Z</time></trkpt>
<trkpt lat="46.40903950" lon="6.16766453"><ele>563.93457</ele><time>2007-02-18T21:52:08Z</time></trkpt>
<trkpt lat="46.40918970" lon="6.16878033"><ele>561.531494</ele><time>2007-02-18T21:52:08Z</time></trkpt>
<trkpt lat="46.40843868" lon="6.17034674"><ele>556.724854</ele><time>2007-02-18T21:52:08Z</time></trkpt>
<trkpt lat="46.40822411" lon="6.17159128"><ele>554.321777</ele><time>2007-02-18T21:52:08Z</time></trkpt>
<trkpt lat="46.40738726" lon="6.17362976"><ele>547.592529</ele><time>2007-02-18T21:52:08Z</time></trkpt>
<trkpt lat="46.40734434" lon="6.17605448"><ele>550.476563</ele><time>2007-02-18T21:52:08Z</time></trkpt>
<trkpt lat="46.40745163" lon="6.17635489"><ele>547.592529</ele><time>2007-02-18T21:52:08Z</time></trkpt>
<trkpt lat="46.40882492" lon="6.17742777"><ele>548.553711</ele><time>2007-02-18T21:52:08Z</time></trkpt>
<trkpt lat="46.40876055" lon="6.17787838"><ele>552.398926</ele><time>2007-02-18T21:52:08Z</time></trkpt>
<trkpt lat="46.40779495" lon="6.17897272"><ele>542.786011</ele><time>2007-02-18T21:52:09Z</time></trkpt>
<trkpt lat="46.40811682" lon="6.17905855"><ele>540.863403</ele><time>2007-02-18T21:52:09Z</time></trkpt>
<trkpt lat="46.40871763" lon="6.17830753"><ele>549.034424</ele><time>2007-02-18T21:52:09Z</time></trkpt>
<trkpt lat="46.41133547" lon="6.17461681"><ele>558.166992</ele><time>2007-02-18T21:52:09Z</time></trkpt>
<trkpt lat="46.41219378" lon="6.17277145"><ele>567.780029</ele><time>2007-02-18T21:52:09Z</time></trkpt>
<trkpt lat="46.41322374" lon="6.17090464"><ele>576.912598</ele><time>2007-02-18T21:52:09Z</time></trkpt>
<trkpt lat="46.41360998" lon="6.16972446"><ele>583.160889</ele><time>2007-02-18T21:52:09Z</time></trkpt>
<trkpt lat="46.41307354" lon="6.16738558"><ele>589.890137</ele><time>2007-02-18T21:52:09Z</time></trkpt>
<trkpt lat="46.41348124" lon="6.16554022"><ele>599.984131</ele><time>2007-02-18T21:52:09Z</time></trkpt>
<trkpt lat="46.41337395" lon="6.16436005"><ele>609.116455</ele><time>2007-02-18T21:52:09Z</time></trkpt>
<trkpt lat="46.41393185" lon="6.16300821"><ele>620.171387</ele><time>2007-02-18T21:52:09Z</time></trkpt>
<trkpt lat="46.41367435" lon="6.16225719"><ele>620.171387</ele><time>2007-02-18T21:52:09Z</time></trkpt>
<trkpt lat="46.41360998" lon="6.16184950"><ele>616.806885</ele><time>2007-02-18T21:52:09Z</time></trkpt>
<trkpt lat="46.41414642" lon="6.16039038"><ele>656.220459</ele><time>2007-02-18T21:52:09Z</time></trkpt>
<trkpt lat="46.41466141" lon="6.15860939"><ele>658.143311</ele><time>2007-02-18T21:52:09Z</time></trkpt>
<trkpt lat="46.41502619" lon="6.15635633"><ele>676.888916</ele><time>2007-02-18T21:52:09Z</time></trkpt>
<trkpt lat="46.41562700" lon="6.15594864"><ele>694.192627</ele><time>2007-02-18T21:52:09Z</time></trkpt>
<trkpt lat="46.41609907" lon="6.15584135"><ele>699.960449</ele><time>2007-02-18T21:52:09Z</time></trkpt>
<trkpt lat="46.41624928" lon="6.15539074"><ele>707.170166</ele><time>2007-02-18T21:52:09Z</time></trkpt>
<trkpt lat="46.41652822" lon="6.15524054"><ele>712.937988</ele><time>2007-02-18T21:52:09Z</time></trkpt>
<trkpt lat="46.41755819" lon="6.15551949"><ele>731.203125</ele><time>2007-02-18T21:52:10Z</time></trkpt>
<trkpt lat="46.41807318" lon="6.15524054"><ele>737.932129</ele><time>2007-02-18T21:52:10Z</time></trkpt>
<trkpt lat="46.41891003" lon="6.15547657"><ele>743.219238</ele><time>2007-02-18T21:52:10Z</time></trkpt>
<trkpt lat="46.41936064" lon="6.15528345"><ele>753.793701</ele><time>2007-02-18T21:52:10Z</time></trkpt>
<trkpt lat="46.41974688" lon="6.15569115"><ele>759.081055</ele><time>2007-02-18T21:52:10Z</time></trkpt>
<trkpt lat="46.42024040" lon="6.15627050"><ele>763.887451</ele><time>2007-02-18T21:52:10Z</time></trkpt>
<trkpt lat="46.42032623" lon="6.15605593"><ele>768.213379</ele><time>2007-02-18T21:52:10Z</time></trkpt>
<trkpt lat="46.42019749" lon="6.15476847"><ele>771.097412</ele><time>2007-02-18T21:52:10Z</time></trkpt>
<trkpt lat="46.42101288" lon="6.15487576"><ele>778.787842</ele><time>2007-02-18T21:52:10Z</time></trkpt>
<trkpt lat="46.42127037" lon="6.15491867"><ele>778.787842</ele><time>2007-02-18T21:52:10Z</time></trkpt>
<trkpt lat="46.42144203" lon="6.15463972"><ele>790.804199</ele><time>2007-02-18T21:52:10Z</time></trkpt>
<trkpt lat="46.42107725" lon="6.15442514"><ele>795.130127</ele><time>2007-02-18T21:52:10Z</time></trkpt>
<trkpt lat="46.42107725" lon="6.15375996"><ele>800.897949</ele><time>2007-02-18T21:52:10Z</time></trkpt>
<trkpt lat="46.42086267" lon="6.15300894"><ele>807.146484</ele><time>2007-02-18T21:52:10Z</time></trkpt>
<trkpt lat="46.42092705" lon="6.15240812"><ele>810.991699</ele><time>2007-02-18T21:52:10Z</time></trkpt>
<trkpt lat="46.42101288" lon="6.15204334"><ele>815.79834</ele><time>2007-02-18T21:52:10Z</time></trkpt>
<trkpt lat="46.42124891" lon="6.15219355"><ele>816.759521</ele><time>2007-02-18T21:52:10Z</time></trkpt>
<trkpt lat="46.42146349" lon="6.15204334"><ele>821.085693</ele><time>2007-02-18T21:52:10Z</time></trkpt>
<trkpt lat="46.42120600" lon="6.15103483"><ele>826.853516</ele><time>2007-02-18T21:52:10Z</time></trkpt>
<trkpt lat="46.42116308" lon="6.15002632"><ele>835.98584</ele><time>2007-02-18T21:52:10Z</time></trkpt>
<trkpt lat="46.42150640" lon="6.15054131"><ele>850.885986</ele><time>2007-02-18T21:52:11Z</time></trkpt>
<trkpt lat="46.42163515" lon="6.15039110"><ele>858.096191</ele><time>2007-02-18T21:52:11Z</time></trkpt>
<trkpt lat="46.42178535" lon="6.15039110"><ele>862.902588</ele><time>2007-02-18T21:52:11Z</time></trkpt>
<trkpt lat="46.42208576" lon="6.15090609"><ele>871.07373</ele><time>2007-02-18T21:52:11Z</time></trkpt>
<trkpt lat="46.42264366" lon="6.15195751"><ele>875.880127</ele><time>2007-02-18T21:52:11Z</time></trkpt>
<trkpt lat="46.42302990" lon="6.15204334"><ele>881.16748</ele><time>2007-02-18T21:52:11Z</time></trkpt>
<trkpt lat="46.42350197" lon="6.15180731"><ele>886.935303</ele><time>2007-02-18T21:52:11Z</time></trkpt>
<trkpt lat="46.42421007" lon="6.15204334"><ele>897.990479</ele><time>2007-02-18T21:52:11Z</time></trkpt>
<trkpt lat="46.42335176" lon="6.15127087"><ele>906.161377</ele><time>2007-02-18T21:52:11Z</time></trkpt>
<trkpt lat="46.42341614" lon="6.15039110"><ele>918.177979</ele><time>2007-02-18T21:52:11Z</time></trkpt>
<trkpt lat="46.42307281" lon="6.15000486"><ele>922.984619</ele><time>2007-02-18T21:52:11Z</time></trkpt>
<trkpt lat="46.42337322" lon="6.14837408"><ele>927.791016</ele><time>2007-02-18T21:52:11Z</time></trkpt>
<trkpt lat="46.42315865" lon="6.14770889"><ele>927.791016</ele><time>2007-02-18T21:52:11Z</time></trkpt>
<trkpt lat="46.42315865" lon="6.14725828"><ele>949.901367</ele><time>2007-02-18T21:52:11Z</time></trkpt>
<trkpt lat="46.42339468" lon="6.14614248"><ele>955.188477</ele><time>2007-02-18T21:52:11Z</time></trkpt>
<trkpt lat="46.42360926" lon="6.14509106"><ele>957.111084</ele><time>2007-02-18T21:52:11Z</time></trkpt>
<trkpt lat="46.42384529" lon="6.14725828"><ele>985.950439</ele><time>2007-02-18T21:52:11Z</time></trkpt>
<trkpt lat="46.42421007" lon="6.14822388"><ele>1002.773193</ele><time>2007-02-18T21:52:11Z</time></trkpt>
<trkpt lat="46.42474651" lon="6.14858866"><ele>1009.021729</ele><time>2007-02-18T21:52:11Z</time></trkpt>
<trkpt lat="46.42521858" lon="6.14918947"><ele>1022.960938</ele><time>2007-02-18T21:52:12Z</time></trkpt>
<trkpt lat="46.42562628" lon="6.14918947"><ele>1033.054443</ele><time>2007-02-18T21:52:12Z</time></trkpt>
<trkpt lat="46.42618418" lon="6.14948988"><ele>1039.783691</ele><time>2007-02-18T21:52:12Z</time></trkpt>
<trkpt lat="46.42631292" lon="6.14942551"><ele>1042.187012</ele><time>2007-02-18T21:52:12Z</time></trkpt>
<trkpt lat="46.42558336" lon="6.14856720"><ele>1049.877686</ele><time>2007-02-18T21:52:12Z</time></trkpt>
<trkpt lat="46.42521858" lon="6.14777327"><ele>1057.087402</ele><time>2007-02-18T21:52:12Z</time></trkpt>
<trkpt lat="46.42496109" lon="6.14650726"><ele>1067.181152</ele><time>2007-02-18T21:52:12Z</time></trkpt>
<trkpt lat="46.42508984" lon="6.14629269"><ele>1071.026367</ele><time>2007-02-18T21:52:12Z</time></trkpt>
<trkpt lat="46.42569065" lon="6.14545584"><ele>1076.794434</ele><time>2007-02-18T21:52:12Z</time></trkpt>
<trkpt lat="46.42541170" lon="6.14382505"><ele>1105.152832</ele><time>2007-02-18T21:52:12Z</time></trkpt>
<trkpt lat="46.42556190" lon="6.14296675"><ele>1113.804688</ele><time>2007-02-18T21:52:12Z</time></trkpt>
<trkpt lat="46.42579794" lon="6.14202261"><ele>1118.130615</ele><time>2007-02-18T21:52:12Z</time></trkpt>
<trkpt lat="46.42614126" lon="6.14030600"><ele>1120.053223</ele><time>2007-02-18T21:52:12Z</time></trkpt>
<trkpt lat="46.42631292" lon="6.14097118"><ele>1132.06958</ele><time>2007-02-18T21:52:12Z</time></trkpt>
<trkpt lat="46.42654896" lon="6.14215136"><ele>1136.875977</ele><time>2007-02-18T21:52:12Z</time></trkpt>
<trkpt lat="46.42644167" lon="6.14363194"><ele>1146.008789</ele><time>2007-02-18T21:52:12Z</time></trkpt>
<trkpt lat="46.42725706" lon="6.14513397"><ele>1157.063721</ele><time>2007-02-18T21:52:12Z</time></trkpt>
<trkpt lat="46.42839432" lon="6.14560604"><ele>1164.75415</ele><time>2007-02-18T21:52:12Z</time></trkpt>
<trkpt lat="46.42951012" lon="6.14564896"><ele>1166.196045</ele><time>2007-02-18T21:52:12Z</time></trkpt>
<trkpt lat="46.43122673" lon="6.14464045"><ele>1170.04126</ele><time>2007-02-18T21:52:12Z</time></trkpt>
<trkpt lat="46.43073320" lon="6.14464045"><ele>1183.019043</ele><time>2007-02-18T21:52:12Z</time></trkpt>
<trkpt lat="46.43002510" lon="6.14431858"><ele>1192.151611</ele><time>2007-02-18T21:52:12Z</time></trkpt>
<trkpt lat="46.42974615" lon="6.14403963"><ele>1192.151611</ele><time>2007-02-18T21:52:13Z</time></trkpt>
<trkpt lat="46.42875910" lon="6.14373922"><ele>1203.206543</ele><time>2007-02-18T21:52:13Z</time></trkpt>
<trkpt lat="46.42832994" lon="6.14305258"><ele>1205.129395</ele><time>2007-02-18T21:52:13Z</time></trkpt>
<trkpt lat="46.42824411" lon="6.14262342"><ele>1209.935791</ele><time>2007-02-18T21:52:13Z</time></trkpt>
<trkpt lat="46.42869473" lon="6.14112139"><ele>1219.068359</ele><time>2007-02-18T21:52:13Z</time></trkpt>
<trkpt lat="46.42905951" lon="6.13807440"><ele>1233.00708</ele><time>2007-02-18T21:52:13Z</time></trkpt>
<trkpt lat="46.42860889" lon="6.13695860"><ele>1245.023682</ele><time>2007-02-18T21:52:13Z</time></trkpt>
<trkpt lat="46.42824411" lon="6.13595009"><ele>1243.101074</ele><time>2007-02-18T21:52:13Z</time></trkpt>
<trkpt lat="46.42809391" lon="6.13605738"><ele>1258.962646</ele><time>2007-02-18T21:52:13Z</time></trkpt>
<trkpt lat="46.42740726" lon="6.13479137"><ele>1263.769043</ele><time>2007-02-18T21:52:13Z</time></trkpt>
<trkpt lat="46.42659187" lon="6.13389015"><ele>1270.017822</ele><time>2007-02-18T21:52:13Z</time></trkpt>
<trkpt lat="46.42532587" lon="6.13350391"><ele>1283.956787</ele><time>2007-02-18T21:52:13Z</time></trkpt>
<trkpt lat="46.42506838" lon="6.13307476"><ele>1285.879395</ele><time>2007-02-18T21:52:13Z</time></trkpt>
<trkpt lat="46.42528296" lon="6.13301039"><ele>1291.166504</ele><time>2007-02-18T21:52:13Z</time></trkpt>
<trkpt lat="46.42539024" lon="6.13290310"><ele>1291.166504</ele><time>2007-02-18T21:52:13Z</time></trkpt>
<trkpt lat="46.42502546" lon="6.12766743"><ele>1335.867676</ele><time>2007-02-18T21:52:13Z</time></trkpt>
<trkpt lat="46.42421007" lon="6.12631559"><ele>1337.790283</ele><time>2007-02-18T21:52:13Z</time></trkpt>
<trkpt lat="46.42405987" lon="6.12530708"><ele>1341.154785</ele><time>2007-02-18T21:52:13Z</time></trkpt>
<trkpt lat="46.42506838" lon="6.12605810"><ele>1348.845215</ele><time>2007-02-18T21:52:13Z</time></trkpt>
<trkpt lat="46.42586231" lon="6.12595081"><ele>1354.132568</ele><time>2007-02-18T21:52:13Z</time></trkpt>
<trkpt lat="46.42667770" lon="6.12661600"><ele>1365.187744</ele><time>2007-02-18T21:52:13Z</time></trkpt>
<trkpt lat="46.42811537" lon="6.12721682"><ele>1386.816895</ele><time>2007-02-18T21:52:13Z</time></trkpt>
<trkpt lat="46.42871618" lon="6.12790346"><ele>1417.098389</ele><time>2007-02-18T21:52:14Z</time></trkpt>
<trkpt lat="46.42893076" lon="6.12835407"><ele>1427.192139</ele><time>2007-02-18T21:52:14Z</time></trkpt>
<trkpt lat="46.42938137" lon="6.12908363"><ele>1431.037598</ele><time>2007-02-18T21:52:14Z</time></trkpt>
<trkpt lat="46.42998219" lon="6.12912655"><ele>1437.766602</ele><time>2007-02-18T21:52:14Z</time></trkpt>
<trkpt lat="46.43006802" lon="6.12934113"><ele>1453.147461</ele><time>2007-02-18T21:52:14Z</time></trkpt>
<trkpt lat="46.43017530" lon="6.12927675"><ele>1459.876465</ele><time>2007-02-18T21:52:14Z</time></trkpt>
<trkpt lat="46.43054008" lon="6.12859011"><ele>1481.025635</ele><time>2007-02-18T21:52:14Z</time></trkpt>
<trkpt lat="46.43066883" lon="6.12852573"><ele>1484.87085</ele><time>2007-02-18T21:52:14Z</time></trkpt>
<trkpt lat="46.43036842" lon="6.12790346"><ele>1494.003418</ele><time>2007-02-18T21:52:14Z</time></trkpt>
<trkpt lat="46.42983198" lon="6.12730265"><ele>1502.174316</ele><time>2007-02-18T21:52:14Z</time></trkpt>
<trkpt lat="46.42927408" lon="6.12590790"><ele>1511.787598</ele><time>2007-02-18T21:52:14Z</time></trkpt>
<trkpt lat="46.42920971" lon="6.12515688"><ele>1515.1521</ele><time>2007-02-18T21:52:14Z</time></trkpt>
<trkpt lat="46.42944574" lon="6.12412691"><ele>1521.881104</ele><time>2007-02-18T21:52:14Z</time></trkpt>
<trkpt lat="46.42972469" lon="6.12565041"><ele>1526.207275</ele><time>2007-02-18T21:52:14Z</time></trkpt>
<trkpt lat="46.42981052" lon="6.12524271"><ele>1534.859131</ele><time>2007-02-18T21:52:14Z</time></trkpt>
<trkpt lat="46.42931700" lon="6.12283945"><ele>1522.842529</ele><time>2007-02-18T21:52:14Z</time></trkpt>
<trkpt lat="46.42875910" lon="6.12127304"><ele>1518.997314</ele><time>2007-02-18T21:52:14Z</time></trkpt>
<trkpt lat="46.42852306" lon="6.11974955"><ele>1517.074707</ele><time>2007-02-18T21:52:14Z</time></trkpt>
<trkpt lat="46.42787933" lon="6.11968517"><ele>1512.748779</ele><time>2007-02-18T21:52:14Z</time></trkpt>
<trkpt lat="46.42727852" lon="6.11859083"><ele>1502.174316</ele><time>2007-02-18T21:52:14Z</time></trkpt>
<trkpt lat="46.42721415" lon="6.11822605"><ele>1498.809814</ele><time>2007-02-18T21:52:14Z</time></trkpt>
<trkpt lat="46.42751455" lon="6.11693859"><ele>1494.003418</ele><time>2007-02-18T21:52:15Z</time></trkpt>
<trkpt lat="46.42734289" lon="6.11524343"><ele>1489.196533</ele><time>2007-02-18T21:52:15Z</time></trkpt>
<trkpt lat="46.42618418" lon="6.11414909"><ele>1473.815674</ele><time>2007-02-18T21:52:15Z</time></trkpt>
<trkpt lat="46.42592669" lon="6.11404181"><ele>1473.815674</ele><time>2007-02-18T21:52:15Z</time></trkpt>
<trkpt lat="46.42549753" lon="6.11387014"><ele>1469.009277</ele><time>2007-02-18T21:52:15Z</time></trkpt>
<trkpt lat="46.42521858" lon="6.11395597"><ele>1469.009277</ele><time>2007-02-18T21:52:15Z</time></trkpt>
<trkpt lat="46.42401695" lon="6.11230373"><ele>1465.164063</ele><time>2007-02-18T21:52:15Z</time></trkpt>
<trkpt lat="46.42380238" lon="6.11211061"><ele>1461.799561</ele><time>2007-02-18T21:52:15Z</time></trkpt>
<trkpt lat="46.42195702" lon="6.11322641"><ele>1442.092529</ele><time>2007-02-18T21:52:15Z</time></trkpt>
<trkpt lat="46.42253637" lon="6.11329079"><ele>1431.998779</ele><time>2007-02-18T21:52:15Z</time></trkpt>
<trkpt lat="46.42302990" lon="6.11374140"><ele>1428.153564</ele><time>2007-02-18T21:52:15Z</time></trkpt>
<trkpt lat="46.42375946" lon="6.11500740"><ele>1416.136963</ele><time>2007-02-18T21:52:15Z</time></trkpt>
<trkpt lat="46.42367363" lon="6.11680984"><ele>1402.197998</ele><time>2007-02-18T21:52:15Z</time></trkpt>
<trkpt lat="46.42408133" lon="6.11826897"><ele>1394.988037</ele><time>2007-02-18T21:52:15Z</time></trkpt>
<trkpt lat="46.42292261" lon="6.11736774"><ele>1387.77832</ele><time>2007-02-18T21:52:15Z</time></trkpt>
<trkpt lat="46.42285824" lon="6.11620903"><ele>1382.010498</ele><time>2007-02-18T21:52:15Z</time></trkpt>
<trkpt lat="46.42161369" lon="6.11601591"><ele>1375.761963</ele><time>2007-02-18T21:52:15Z</time></trkpt>
<trkpt lat="46.42024040" lon="6.11743212"><ele>1370.955566</ele><time>2007-02-18T21:52:15Z</time></trkpt>
<trkpt lat="46.41936064" lon="6.11792564"><ele>1367.110352</ele><time>2007-02-18T21:52:15Z</time></trkpt>
<trkpt lat="46.41931772" lon="6.11829042"><ele>1363.745361</ele><time>2007-02-18T21:52:15Z</time></trkpt>
<trkpt lat="46.41959667" lon="6.11904144"><ele>1359.900146</ele><time>2007-02-18T21:52:15Z</time></trkpt>
<trkpt lat="46.42088413" lon="6.11874104"><ele>1354.132568</ele><time>2007-02-18T21:52:15Z</time></trkpt>
<trkpt lat="46.42114162" lon="6.11901999"><ele>1345</ele><time>2007-02-18T21:52:16Z</time></trkpt>
<trkpt lat="46.42118454" lon="6.12045765"><ele>1333.945068</ele><time>2007-02-18T21:52:16Z</time></trkpt>
<trkpt lat="46.42073393" lon="6.12412691"><ele>1319.044678</ele><time>2007-02-18T21:52:16Z</time></trkpt>
<trkpt lat="46.42032623" lon="6.12404108"><ele>1310.873535</ele><time>2007-02-18T21:52:16Z</time></trkpt>
<trkpt lat="46.42041206" lon="6.12253904"><ele>1292.12793</ele><time>2007-02-18T21:52:16Z</time></trkpt>
<trkpt lat="46.42032623" lon="6.12103701"><ele>1285.879395</ele><time>2007-02-18T21:52:16Z</time></trkpt>
<trkpt lat="46.41987562" lon="6.12052202"><ele>1284.918213</ele><time>2007-02-18T21:52:16Z</time></trkpt>
<trkpt lat="46.41914606" lon="6.12210989"><ele>1276.74707</ele><time>2007-02-18T21:52:16Z</time></trkpt>
<trkpt lat="46.41830921" lon="6.12283945"><ele>1260.885254</ele><time>2007-02-18T21:52:16Z</time></trkpt>
<trkpt lat="46.41807318" lon="6.12367630"><ele>1251.75293</ele><time>2007-02-18T21:52:16Z</time></trkpt>
<trkpt lat="46.41779423" lon="6.12588644"><ele>1242.139893</ele><time>2007-02-18T21:52:16Z</time></trkpt>
<trkpt lat="46.41788006" lon="6.12811804"><ele>1235.891113</ele><time>2007-02-18T21:52:16Z</time></trkpt>
<trkpt lat="46.41665697" lon="6.13069296"><ele>1229.161865</ele><time>2007-02-18T21:52:16Z</time></trkpt>
<trkpt lat="46.41674280" lon="6.13090754"><ele>1229.161865</ele><time>2007-02-18T21:52:16Z</time></trkpt>
<trkpt lat="46.41796589" lon="6.13135815"><ele>1225.797363</ele><time>2007-02-18T21:52:16Z</time></trkpt>
<trkpt lat="46.41916752" lon="6.13524199"><ele>1222.913574</ele><time>2007-02-18T21:52:16Z</time></trkpt>
<trkpt lat="46.41541243" lon="6.13365412"><ele>1213.781006</ele><time>2007-02-18T21:52:16Z</time></trkpt>
<trkpt lat="46.41463995" lon="6.13358974"><ele>1195.0354</ele><time>2007-02-18T21:52:16Z</time></trkpt>
<trkpt lat="46.41463995" lon="6.13373995"><ele>1186.864258</ele><time>2007-02-18T21:52:16Z</time></trkpt>
<trkpt lat="46.41502619" lon="6.13408327"><ele>1181.09668</ele><time>2007-02-18T21:52:16Z</time></trkpt>
<trkpt lat="46.41521931" lon="6.13434076"><ele>1173.886719</ele><time>2007-02-18T21:52:16Z</time></trkpt>
<trkpt lat="46.41579866" lon="6.13554239"><ele>1158.986328</ele><time>2007-02-18T21:52:16Z</time></trkpt>
<trkpt lat="46.41541243" lon="6.13610029"><ele>1150.815186</ele><time>2007-02-18T21:52:17Z</time></trkpt>
<trkpt lat="46.41300917" lon="6.13412619"><ele>1146.008789</ele><time>2007-02-18T21:52:17Z</time></trkpt>
<trkpt lat="46.41240835" lon="6.13378286"><ele>1130.146973</ele><time>2007-02-18T21:52:17Z</time></trkpt>
<trkpt lat="46.41212940" lon="6.13389015"><ele>1121.014648</ele><time>2007-02-18T21:52:17Z</time></trkpt>
<trkpt lat="46.41412497" lon="6.13685131"><ele>1097.943115</ele><time>2007-02-18T21:52:17Z</time></trkpt>
<trkpt lat="46.41466141" lon="6.13835335"><ele>1091.213867</ele><time>2007-02-18T21:52:17Z</time></trkpt>
<trkpt lat="46.41549826" lon="6.13856792"><ele>1080.158936</ele><time>2007-02-18T21:52:17Z</time></trkpt>
<trkpt lat="46.41558409" lon="6.13991976"><ele>1071.026367</ele><time>2007-02-18T21:52:17Z</time></trkpt>
<trkpt lat="46.41612053" lon="6.14262342"><ele>1064.777832</ele><time>2007-02-18T21:52:17Z</time></trkpt>
<trkpt lat="46.41648531" lon="6.14365339"><ele>1060.932617</ele><time>2007-02-18T21:52:17Z</time></trkpt>
<trkpt lat="46.41393185" lon="6.13968372"><ele>1045.071045</ele><time>2007-02-18T21:52:17Z</time></trkpt>
<trkpt lat="46.41315937" lon="6.13946915"><ele>1020.076904</ele><time>2007-02-18T21:52:17Z</time></trkpt>
<trkpt lat="46.41326666" lon="6.13886833"><ele>1015.751221</ele><time>2007-02-18T21:52:17Z</time></trkpt>
<trkpt lat="46.41294479" lon="6.13848209"><ele>1015.751221</ele><time>2007-02-18T21:52:17Z</time></trkpt>
<trkpt lat="46.41026258" lon="6.13753796"><ele>1012.867188</ele><time>2007-02-18T21:52:17Z</time></trkpt>
<trkpt lat="46.40846014" lon="6.13766670"><ele>1009.98291</ele><time>2007-02-18T21:52:17Z</time></trkpt>
<trkpt lat="46.40725851" lon="6.13610029"><ele>1006.137695</ele><time>2007-02-18T21:52:17Z</time></trkpt>
<trkpt lat="46.40704393" lon="6.13717318"><ele>1002.773193</ele><time>2007-02-18T21:52:17Z</time></trkpt>
<trkpt lat="46.40629292" lon="6.13620758"><ele>994.121582</ele><time>2007-02-18T21:52:17Z</time></trkpt>
<trkpt lat="46.40481234" lon="6.13588572"><ele>986.911621</ele><time>2007-02-18T21:52:17Z</time></trkpt>
<trkpt lat="46.40479088" lon="6.13590717"><ele>983.066406</ele><time>2007-02-18T21:52:17Z</time></trkpt>
<trkpt lat="46.40543461" lon="6.13629341"><ele>773.02002</ele><time>2007-02-18T21:52:17Z</time></trkpt>
<trkpt lat="46.40704393" lon="6.13852501"><ele>758.119873</ele><time>2007-02-18T21:52:18Z</time></trkpt>
<trkpt lat="46.40710831" lon="6.13895416"><ele>758.119873</ele><time>2007-02-18T21:52:18Z</time></trkpt>
<trkpt lat="46.40953302" lon="6.14300966"><ele>752.832275</ele><time>2007-02-18T21:52:18Z</time></trkpt>
<trkpt lat="46.41034842" lon="6.14442587"><ele>747.064453</ele><time>2007-02-18T21:52:18Z</time></trkpt>
<trkpt lat="46.41197920" lon="6.14865303"><ele>743.219238</ele><time>2007-02-18T21:52:18Z</time></trkpt>
<trkpt lat="46.41309500" lon="6.15457535"><ele>732.164307</ele><time>2007-02-18T21:52:18Z</time></trkpt>
<trkpt lat="46.41300917" lon="6.15629196"><ele>728.799805</ele><time>2007-02-18T21:52:18Z</time></trkpt>
<trkpt lat="46.41421080" lon="6.16002560"><ele>708.131592</ele><time>2007-02-18T21:52:18Z</time></trkpt>
<trkpt lat="46.41418934" lon="6.16047621"><ele>701.883057</ele><time>2007-02-18T21:52:18Z</time></trkpt>
<trkpt lat="46.41360998" lon="6.16193533"><ele>697.076416</ele><time>2007-02-18T21:52:18Z</time></trkpt>
<trkpt lat="46.41382456" lon="6.16345882"><ele>694.192627</ele><time>2007-02-18T21:52:18Z</time></trkpt>
<trkpt lat="46.41345978" lon="6.16442442"><ele>677.850098</ele><time>2007-02-18T21:52:18Z</time></trkpt>
<trkpt lat="46.41348124" lon="6.16530418"><ele>664.872559</ele><time>2007-02-18T21:52:18Z</time></trkpt>
<trkpt lat="46.41341686" lon="6.16590500"><ele>652.855957</ele><time>2007-02-18T21:52:18Z</time></trkpt>
<trkpt lat="46.41311646" lon="6.16689205"><ele>636.994385</ele><time>2007-02-18T21:52:18Z</time></trkpt>
<trkpt lat="46.41324520" lon="6.16875887"><ele>616.806885</ele><time>2007-02-18T21:52:18Z</time></trkpt>
<trkpt lat="46.41363144" lon="6.16963863"><ele>611.039063</ele><time>2007-02-18T21:52:18Z</time></trkpt>
<trkpt lat="46.41337395" lon="6.17077589"><ele>603.829346</ele><time>2007-02-18T21:52:18Z</time></trkpt>
<trkpt lat="46.41227961" lon="6.17270708"><ele>589.890137</ele><time>2007-02-18T21:52:18Z</time></trkpt>
<trkpt lat="46.41148567" lon="6.17442369"><ele>574.028564</ele><time>2007-02-18T21:52:18Z</time></trkpt>
<trkpt lat="46.41084194" lon="6.17526054"><ele>567.780029</ele><time>2007-02-18T21:52:18Z</time></trkpt>
<trkpt lat="46.40976906" lon="6.17807150"><ele>558.166992</ele><time>2007-02-18T21:52:18Z</time></trkpt>
<trkpt lat="46.40815973" lon="6.17901564"><ele>547.111816</ele><time>2007-02-18T21:52:19Z</time></trkpt>
<trkpt lat="46.40871394" lon="6.17805658"><ele>551.934082</ele><time>2007-02-18T14:35:54Z</time></trkpt>
<trkpt lat="46.40870104" lon="6.17799958"><ele>542.801514</ele><time>2007-02-18T14:36:32Z</time></trkpt>
<trkpt lat="46.40872526" lon="6.17798123"><ele>542.801514</ele><time>2007-02-18T14:37:24Z</time></trkpt>
<trkpt lat="46.40874068" lon="6.17792138"><ele>542.801514</ele><time>2007-02-18T14:37:39Z</time></trkpt>
<trkpt lat="46.40875619" lon="6.17790629"><ele>542.801514</ele><time>2007-02-18T14:37:41Z</time></trkpt>
<trkpt lat="46.40881486" lon="6.17784167"><ele>542.801514</ele><time>2007-02-18T14:37:47Z</time></trkpt>
<trkpt lat="46.40891804" lon="6.17751896"><ele>542.801514</ele><time>2007-02-18T14:38:04Z</time></trkpt>
<trkpt lat="46.40885635" lon="6.17744579"><ele>542.801514</ele><time>2007-02-18T14:38:08Z</time></trkpt>
<trkpt lat="46.40864437" lon="6.17722107"><ele>541.84021</ele><time>2007-02-18T14:38:23Z</time></trkpt>
<trkpt lat="46.40839862" lon="6.17700851"><ele>542.320923</ele><time>2007-02-18T14:38:40Z</time></trkpt>
<trkpt lat="46.40837565" lon="6.17699401"><ele>542.320923</ele><time>2007-02-18T14:38:43Z</time></trkpt>
<trkpt lat="46.40830717" lon="6.17684288"><ele>540.878906</ele><time>2007-02-18T14:38:58Z</time></trkpt>
<trkpt lat="46.40832284" lon="6.17682545"><ele>538.956299</ele><time>2007-02-18T14:39:00Z</time></trkpt>
<trkpt lat="46.41041346" lon="6.17431817"><ele>358.708984</ele><time>2007-02-18T14:39:05Z</time></trkpt>
<trkpt lat="46.41078872" lon="6.17385984"><ele>309.681885</ele><time>2007-02-18T14:39:08Z</time></trkpt>
<trkpt lat="46.40967133" lon="6.17515359"><ele>301.029907</ele><time>2007-02-18T14:39:12Z</time></trkpt>
<trkpt lat="46.40818194" lon="6.17695838"><ele>551.934082</ele><time>2007-02-18T14:39:38Z</time></trkpt>
<trkpt lat="46.40813693" lon="6.17690558"><ele>551.453369</ele><time>2007-02-18T14:39:42Z</time></trkpt>
<trkpt lat="46.40811212" lon="6.17686878"><ele>551.453369</ele><time>2007-02-18T14:39:44Z</time></trkpt>
<trkpt lat="46.40767341" lon="6.17668153"><ele>548.088867</ele><time>2007-02-18T14:39:59Z</time></trkpt>
<trkpt lat="46.40748248" lon="6.17645203"><ele>546.646851</ele><time>2007-02-18T14:40:09Z</time></trkpt>
<trkpt lat="46.40732029" lon="6.17604517"><ele>547.127441</ele><time>2007-02-18T14:40:24Z</time></trkpt>
<trkpt lat="46.40738416" lon="6.17556975"><ele>547.608154</ele><time>2007-02-18T14:40:48Z</time></trkpt>
<trkpt lat="46.40741324" lon="6.17476710"><ele>546.16626</ele><time>2007-02-18T14:41:20Z</time></trkpt>
<trkpt lat="46.40743151" lon="6.17397744"><ele>548.088867</ele><time>2007-02-18T14:41:40Z</time></trkpt>
<trkpt lat="46.40760669" lon="6.17317043"><ele>548.088867</ele><time>2007-02-18T14:41:57Z</time></trkpt>
<trkpt lat="46.40777366" lon="6.17260457"><ele>549.530762</ele><time>2007-02-18T14:42:14Z</time></trkpt>
<trkpt lat="46.40789034" lon="6.17231498"><ele>550.011475</ele><time>2007-02-18T14:42:28Z</time></trkpt>
<trkpt lat="46.40793929" lon="6.17222998"><ele>550.492188</ele><time>2007-02-18T14:42:33Z</time></trkpt>
<trkpt lat="46.40802043" lon="6.17206804"><ele>551.453369</ele><time>2007-02-18T14:42:45Z</time></trkpt>
<trkpt lat="46.40803635" lon="6.17204156"><ele>551.934082</ele><time>2007-02-18T14:42:48Z</time></trkpt>
<trkpt lat="46.40800693" lon="6.17208129"><ele>551.934082</ele><time>2007-02-18T14:42:56Z</time></trkpt>
<trkpt lat="46.40809083" lon="6.17197643"><ele>552.895264</ele><time>2007-02-18T14:43:02Z</time></trkpt>
<trkpt lat="46.40824514" lon="6.17150755"><ele>554.337402</ele><time>2007-02-18T14:43:18Z</time></trkpt>
<trkpt lat="46.40834053" lon="6.17082694"><ele>554.817871</ele><time>2007-02-18T14:43:37Z</time></trkpt>
<trkpt lat="46.40844170" lon="6.17038739"><ele>555.298584</ele><time>2007-02-18T14:43:55Z</time></trkpt>
<trkpt lat="46.40857506" lon="6.17005664"><ele>558.182861</ele><time>2007-02-18T14:44:11Z</time></trkpt>
<trkpt lat="46.40871990" lon="6.16964919"><ele>560.585938</ele><time>2007-02-18T14:44:28Z</time></trkpt>
<trkpt lat="46.40893992" lon="6.16932867"><ele>562.508545</ele><time>2007-02-18T14:44:44Z</time></trkpt>
<trkpt lat="46.40916707" lon="6.16902064"><ele>563.950439</ele><time>2007-02-18T14:44:59Z</time></trkpt>
<trkpt lat="46.40919037" lon="6.16897965"><ele>564.431152</ele><time>2007-02-18T14:45:01Z</time></trkpt>
<trkpt lat="46.40918828" lon="6.16887613"><ele>564.911865</ele><time>2007-02-18T14:45:05Z</time></trkpt>
<trkpt lat="46.40921233" lon="6.16830574"><ele>564.911865</ele><time>2007-02-18T14:45:26Z</time></trkpt>
<trkpt lat="46.40920194" lon="6.16822134"><ele>565.392578</ele><time>2007-02-18T14:45:30Z</time></trkpt>
<trkpt lat="46.40919934" lon="6.16818102"><ele>565.392578</ele><time>2007-02-18T14:45:32Z</time></trkpt>
<trkpt lat="46.40914938" lon="6.16789285"><ele>564.911865</ele><time>2007-02-18T14:45:47Z</time></trkpt>
<trkpt lat="46.40895593" lon="6.16753318"><ele>564.431152</ele><time>2007-02-18T14:46:01Z</time></trkpt>
<trkpt lat="46.40856206" lon="6.16700714"><ele>563.950439</ele><time>2007-02-18T14:46:16Z</time></trkpt>
<trkpt lat="46.40802596" lon="6.16630523"><ele>562.508545</ele><time>2007-02-18T14:46:34Z</time></trkpt>
<trkpt lat="46.40769018" lon="6.16580886"><ele>562.028076</ele><time>2007-02-18T14:46:47Z</time></trkpt>
<trkpt lat="46.40751625" lon="6.16557668"><ele>562.028076</ele><time>2007-02-18T14:47:01Z</time></trkpt>
<trkpt lat="46.40725273" lon="6.16517158"><ele>561.547363</ele><time>2007-02-18T14:47:13Z</time></trkpt>
<trkpt lat="46.40688392" lon="6.16445082"><ele>561.06665</ele><time>2007-02-18T14:47:31Z</time></trkpt>
<trkpt lat="46.40660514" lon="6.16375244"><ele>561.06665</ele><time>2007-02-18T14:47:45Z</time></trkpt>
<trkpt lat="46.40634899" lon="6.16281300"><ele>559.624756</ele><time>2007-02-18T14:48:01Z</time></trkpt>
<trkpt lat="46.40630356" lon="6.16268819"><ele>559.624756</ele><time>2007-02-18T14:48:03Z</time></trkpt>
<trkpt lat="46.40617909" lon="6.16249843"><ele>559.624756</ele><time>2007-02-18T14:48:07Z</time></trkpt>
<trkpt lat="46.40555950" lon="6.16172151"><ele>560.105225</ele><time>2007-02-18T14:48:26Z</time></trkpt>
<trkpt lat="46.40518248" lon="6.16109454"><ele>560.105225</ele><time>2007-02-18T14:48:42Z</time></trkpt>
<trkpt lat="46.40472206" lon="6.16048409"><ele>561.547363</ele><time>2007-02-18T14:49:01Z</time></trkpt>
<trkpt lat="46.40440581" lon="6.15994630"><ele>562.028076</ele><time>2007-02-18T14:49:18Z</time></trkpt>
<trkpt lat="46.40412988" lon="6.15940089"><ele>563.950439</ele><time>2007-02-18T14:49:33Z</time></trkpt>
<trkpt lat="46.40387851" lon="6.15883830"><ele>563.950439</ele><time>2007-02-18T14:49:56Z</time></trkpt>
<trkpt lat="46.40387717" lon="6.15881575"><ele>562.989258</ele><time>2007-02-18T14:49:57Z</time></trkpt>
<trkpt lat="46.40379712" lon="6.15853052"><ele>562.508545</ele><time>2007-02-18T14:50:12Z</time></trkpt>
<trkpt lat="46.40372621" lon="6.15836011"><ele>562.508545</ele><time>2007-02-18T14:50:21Z</time></trkpt>
<trkpt lat="46.40356620" lon="6.15793088"><ele>562.989258</ele><time>2007-02-18T14:50:41Z</time></trkpt>
<trkpt lat="46.40333922" lon="6.15748923"><ele>564.911865</ele><time>2007-02-18T14:51:01Z</time></trkpt>
<trkpt lat="46.40305666" lon="6.15701205"><ele>565.873291</ele><time>2007-02-18T14:51:24Z</time></trkpt>
<trkpt lat="46.40305968" lon="6.15701783"><ele>565.873291</ele><time>2007-02-18T14:51:25Z</time></trkpt>
<trkpt lat="46.40343913" lon="6.15784328"><ele>564.911865</ele><time>2007-02-18T14:51:42Z</time></trkpt>
<trkpt lat="46.40360534" lon="6.15824939"><ele>565.392578</ele><time>2007-02-18T14:51:49Z</time></trkpt>
<trkpt lat="46.40386870" lon="6.15914172"><ele>565.873291</ele><time>2007-02-18T14:52:04Z</time></trkpt>
<trkpt lat="46.40439400" lon="6.16009776"><ele>565.873291</ele><time>2007-02-18T14:52:21Z</time></trkpt>
<trkpt lat="46.40484419" lon="6.16071819"><ele>565.392578</ele><time>2007-02-18T14:52:31Z</time></trkpt>
<trkpt lat="46.40516102" lon="6.16114098"><ele>564.431152</ele><time>2007-02-18T14:52:37Z</time></trkpt>
<trkpt lat="46.40536856" lon="6.16147583"><ele>564.431152</ele><time>2007-02-18T14:52:44Z</time></trkpt>
<trkpt lat="46.40535959" lon="6.16141188"><ele>564.431152</ele><time>2007-02-18T14:52:48Z</time></trkpt>
<trkpt lat="46.40476213" lon="6.16055374"><ele>564.911865</ele><time>2007-02-18T14:53:02Z</time></trkpt>
<trkpt lat="46.40422066" lon="6.15961731"><ele>565.873291</ele><time>2007-02-18T14:53:16Z</time></trkpt>
<trkpt lat="46.40374582" lon="6.15868961"><ele>566.834473</ele><time>2007-02-18T14:53:33Z</time></trkpt>
<trkpt lat="46.40333964" lon="6.15751890"><ele>565.873291</ele><time>2007-02-18T14:53:51Z</time></trkpt>
<trkpt lat="46.40244680" lon="6.15572082"><ele>563.950439</ele><time>2007-02-18T14:54:21Z</time></trkpt>
<trkpt lat="46.40206668" lon="6.15498723"><ele>563.950439</ele><time>2007-02-18T14:54:32Z</time></trkpt>
<trkpt lat="46.40192452" lon="6.15465422"><ele>563.950439</ele><time>2007-02-18T14:54:42Z</time></trkpt>
<trkpt lat="46.40189610" lon="6.15464056"><ele>565.392578</ele><time>2007-02-18T14:55:06Z</time></trkpt>
<trkpt lat="46.40186694" lon="6.15458138"><ele>564.431152</ele><time>2007-02-18T14:55:22Z</time></trkpt>
<trkpt lat="46.40179980" lon="6.15445624"><ele>563.469971</ele><time>2007-02-18T14:55:28Z</time></trkpt>
<trkpt lat="46.40178010" lon="6.15439983"><ele>563.469971</ele><time>2007-02-18T14:55:31Z</time></trkpt>
<trkpt lat="46.40171757" lon="6.15429992"><ele>563.950439</ele><time>2007-02-18T14:55:36Z</time></trkpt>
<trkpt lat="46.40163258" lon="6.15417377"><ele>562.989258</ele><time>2007-02-18T14:55:42Z</time></trkpt>
<trkpt lat="46.40139319" lon="6.15383606"><ele>562.508545</ele><time>2007-02-18T14:55:57Z</time></trkpt>
<trkpt lat="46.40100838" lon="6.15330557"><ele>561.547363</ele><time>2007-02-18T14:56:13Z</time></trkpt>
<trkpt lat="46.40068735" lon="6.15288497"><ele>561.06665</ele><time>2007-02-18T14:56:23Z</time></trkpt>
<trkpt lat="46.40025711" lon="6.15253000"><ele>561.06665</ele><time>2007-02-18T14:56:38Z</time></trkpt>
<trkpt lat="46.40009517" lon="6.15238708"><ele>562.028076</ele><time>2007-02-18T14:57:00Z</time></trkpt>
<trkpt lat="46.39983550" lon="6.15207888"><ele>559.144043</ele><time>2007-02-18T14:57:22Z</time></trkpt>
<trkpt lat="46.39916193" lon="6.15155996"><ele>560.105225</ele><time>2007-02-18T14:57:48Z</time></trkpt>
<trkpt lat="46.39845533" lon="6.15090374"><ele>561.06665</ele><time>2007-02-18T14:58:10Z</time></trkpt>
<trkpt lat="46.39755369" lon="6.14974310"><ele>560.585938</ele><time>2007-02-18T14:58:41Z</time></trkpt>
<trkpt lat="46.39695682" lon="6.14881296"><ele>560.105225</ele><time>2007-02-18T14:59:04Z</time></trkpt>
<trkpt lat="46.39676604" lon="6.14838607"><ele>562.508545</ele><time>2007-02-18T14:59:20Z</time></trkpt>
<trkpt lat="46.39669396" lon="6.14826931"><ele>563.950439</ele><time>2007-02-18T14:59:26Z</time></trkpt>
<trkpt lat="46.39637863" lon="6.14784309"><ele>563.950439</ele><time>2007-02-18T14:59:49Z</time></trkpt>
<trkpt lat="46.39594118" lon="6.14724856"><ele>566.35376</ele><time>2007-02-18T15:00:17Z</time></trkpt>
<trkpt lat="46.39553072" lon="6.14656929"><ele>566.834473</ele><time>2007-02-18T15:00:39Z</time></trkpt>
<trkpt lat="46.39523366" lon="6.14615791"><ele>566.834473</ele><time>2007-02-18T15:00:56Z</time></trkpt>
<trkpt lat="46.39514658" lon="6.14606730"><ele>566.834473</ele><time>2007-02-18T15:01:02Z</time></trkpt>
<trkpt lat="46.39510609" lon="6.14604257"><ele>566.35376</ele><time>2007-02-18T15:01:16Z</time></trkpt>
<trkpt lat="46.39507382" lon="6.14600661"><ele>564.911865</ele><time>2007-02-18T15:02:30Z</time></trkpt>
<trkpt lat="46.39491968" lon="6.14588541"><ele>566.35376</ele><time>2007-02-18T15:02:44Z</time></trkpt>
<trkpt lat="46.39489579" lon="6.14587845"><ele>566.834473</ele><time>2007-02-18T15:02:47Z</time></trkpt>
<trkpt lat="46.39473368" lon="6.14574669"><ele>565.392578</ele><time>2007-02-18T15:03:04Z</time></trkpt>
<trkpt lat="46.39451827" lon="6.14564418"><ele>564.911865</ele><time>2007-02-18T15:03:19Z</time></trkpt>
<trkpt lat="46.39429967" lon="6.14556363"><ele>562.989258</ele><time>2007-02-18T15:03:34Z</time></trkpt>
<trkpt lat="46.39428743" lon="6.14556405"><ele>562.989258</ele><time>2007-02-18T15:03:35Z</time></trkpt>
<trkpt lat="46.39417059" lon="6.14555139"><ele>562.508545</ele><time>2007-02-18T15:03:45Z</time></trkpt>
<trkpt lat="46.39380958" lon="6.14546514"><ele>560.585938</ele><time>2007-02-18T15:04:09Z</time></trkpt>
<trkpt lat="46.39378100" lon="6.14545525"><ele>560.585938</ele><time>2007-02-18T15:04:10Z</time></trkpt>
<trkpt lat="46.39353809" lon="6.14525140"><ele>559.624756</ele><time>2007-02-18T15:04:16Z</time></trkpt>
<trkpt lat="46.39266528" lon="6.14449477"><ele>557.702148</ele><time>2007-02-18T15:04:38Z</time></trkpt>
<trkpt lat="46.39196062" lon="6.14407894"><ele>556.740723</ele><time>2007-02-18T15:04:55Z</time></trkpt>
<trkpt lat="46.39118839" lon="6.14351836"><ele>554.337402</ele><time>2007-02-18T15:05:12Z</time></trkpt>
<trkpt lat="46.39084674" lon="6.14324511"><ele>553.375977</ele><time>2007-02-18T15:05:19Z</time></trkpt>
<trkpt lat="46.39046914" lon="6.14289357"><ele>553.856689</ele><time>2007-02-18T15:05:28Z</time></trkpt>
<trkpt lat="46.39009011" lon="6.14247054"><ele>554.817871</ele><time>2007-02-18T15:05:44Z</time></trkpt>
<trkpt lat="46.39016580" lon="6.14235663"><ele>554.817871</ele><time>2007-02-18T15:05:51Z</time></trkpt>
<trkpt lat="46.39027904" lon="6.14228806"><ele>554.337402</ele><time>2007-02-18T15:06:04Z</time></trkpt>
<trkpt lat="46.39041281" lon="6.14216795"><ele>555.298584</ele><time>2007-02-18T15:06:19Z</time></trkpt>
<trkpt lat="46.39045338" lon="6.14214063"><ele>555.779297</ele><time>2007-02-18T15:06:23Z</time></trkpt>
<trkpt lat="46.39054852" lon="6.14207919"><ele>556.26001</ele><time>2007-02-18T15:06:32Z</time></trkpt>
<trkpt lat="46.39070559" lon="6.14195941"><ele>557.702148</ele><time>2007-02-18T15:06:45Z</time></trkpt>
<trkpt lat="46.39087088" lon="6.14183628"><ele>558.66333</ele><time>2007-02-18T15:06:59Z</time></trkpt>
<trkpt lat="46.39089209" lon="6.14182262"><ele>559.144043</ele><time>2007-02-18T15:07:01Z</time></trkpt>
<trkpt lat="46.39094800" lon="6.14164425"><ele>560.105225</ele><time>2007-02-18T15:07:14Z</time></trkpt>
<trkpt lat="46.39090148" lon="6.14150628"><ele>561.06665</ele><time>2007-02-18T15:07:22Z</time></trkpt>
<trkpt lat="46.39076628" lon="6.14125080"><ele>561.06665</ele><time>2007-02-18T15:07:38Z</time></trkpt>
<trkpt lat="46.39060032" lon="6.14099792"><ele>560.105225</ele><time>2007-02-18T15:07:54Z</time></trkpt>
<trkpt lat="46.39039798" lon="6.14065611"><ele>561.06665</ele><time>2007-02-18T15:08:12Z</time></trkpt>
<trkpt lat="46.39012774" lon="6.14037825"><ele>560.585938</ele><time>2007-02-18T15:08:30Z</time></trkpt>
<trkpt lat="46.38984921" lon="6.14012277"><ele>562.028076</ele><time>2007-02-18T15:08:46Z</time></trkpt>
<trkpt lat="46.38946775" lon="6.13958473"><ele>562.508545</ele><time>2007-02-18T15:09:10Z</time></trkpt>
<trkpt lat="46.38910364" lon="6.13914577"><ele>565.392578</ele><time>2007-02-18T15:09:37Z</time></trkpt>
<trkpt lat="46.38887306" lon="6.13898157"><ele>564.911865</ele><time>2007-02-18T15:09:53Z</time></trkpt>
<trkpt lat="46.38879988" lon="6.13893857"><ele>565.392578</ele><time>2007-02-18T15:09:58Z</time></trkpt>
<trkpt lat="46.38878756" lon="6.13891410"><ele>564.431152</ele><time>2007-02-18T15:10:14Z</time></trkpt>
<trkpt lat="46.38877356" lon="6.13886565"><ele>571.640869</ele><time>2007-02-18T15:11:09Z</time></trkpt>
<trkpt lat="46.38879561" lon="6.13881754"><ele>570.198975</ele><time>2007-02-18T15:11:22Z</time></trkpt>
<trkpt lat="46.38878832" lon="6.13881486"><ele>570.198975</ele><time>2007-02-18T15:11:24Z</time></trkpt>
<trkpt lat="46.38865949" lon="6.13886163"><ele>569.718506</ele><time>2007-02-18T15:11:31Z</time></trkpt>
<trkpt lat="46.38838775" lon="6.13888836"><ele>568.75708</ele><time>2007-02-18T15:11:46Z</time></trkpt>
<trkpt lat="46.38814894" lon="6.13868418"><ele>568.276367</ele><time>2007-02-18T15:12:01Z</time></trkpt>
<trkpt lat="46.38794862" lon="6.13849886"><ele>567.315186</ele><time>2007-02-18T15:12:17Z</time></trkpt>
<trkpt lat="46.38772775" lon="6.13832653"><ele>567.795654</ele><time>2007-02-18T15:12:31Z</time></trkpt>
<trkpt lat="46.38758342" lon="6.13821521"><ele>567.315186</ele><time>2007-02-18T15:12:40Z</time></trkpt>
<trkpt lat="46.38750119" lon="6.13819845"><ele>568.276367</ele><time>2007-02-18T15:12:45Z</time></trkpt>
<trkpt lat="46.38718092" lon="6.13796610"><ele>567.795654</ele><time>2007-02-18T15:13:04Z</time></trkpt>
<trkpt lat="46.38686987" lon="6.13778229"><ele>566.35376</ele><time>2007-02-18T15:13:17Z</time></trkpt>
<trkpt lat="46.38645597" lon="6.13751491"><ele>565.873291</ele><time>2007-02-18T15:13:31Z</time></trkpt>
<trkpt lat="46.38594425" lon="6.13717770"><ele>564.911865</ele><time>2007-02-18T15:13:45Z</time></trkpt>
<trkpt lat="46.38546674" lon="6.13684569"><ele>563.950439</ele><time>2007-02-18T15:13:59Z</time></trkpt>
<trkpt lat="46.38506315" lon="6.13652911"><ele>562.989258</ele><time>2007-02-18T15:14:14Z</time></trkpt>
<trkpt lat="46.38473458" lon="6.13637824"><ele>562.508545</ele><time>2007-02-18T15:14:26Z</time></trkpt>
<trkpt lat="46.38428036" lon="6.13617690"><ele>561.547363</ele><time>2007-02-18T15:14:39Z</time></trkpt>
<trkpt lat="46.38368231" lon="6.13573618"><ele>558.182861</ele><time>2007-02-18T15:15:00Z</time></trkpt>
<trkpt lat="46.38323179" lon="6.13523855"><ele>559.624756</ele><time>2007-02-18T15:15:19Z</time></trkpt>
<trkpt lat="46.38317361" lon="6.13514937"><ele>559.624756</ele><time>2007-02-18T15:15:32Z</time></trkpt>
<trkpt lat="46.38314981" lon="6.13511383"><ele>567.795654</ele><time>2007-02-18T15:16:00Z</time></trkpt>
<trkpt lat="46.38314042" lon="6.13506840"><ele>570.198975</ele><time>2007-02-18T15:16:18Z</time></trkpt>
<trkpt lat="46.38313489" lon="6.13491048"><ele>566.834473</ele><time>2007-02-18T15:16:26Z</time></trkpt>
<trkpt lat="46.38307186" lon="6.13432593"><ele>563.950439</ele><time>2007-02-18T15:16:47Z</time></trkpt>
<trkpt lat="46.38302802" lon="6.13401990"><ele>565.873291</ele><time>2007-02-18T15:17:01Z</time></trkpt>
<trkpt lat="46.38294278" lon="6.13328397"><ele>565.392578</ele><time>2007-02-18T15:17:31Z</time></trkpt>
<trkpt lat="46.38286097" lon="6.13270503"><ele>566.834473</ele><time>2007-02-18T15:17:58Z</time></trkpt>
<trkpt lat="46.38275402" lon="6.13229726"><ele>568.276367</ele><time>2007-02-18T15:18:17Z</time></trkpt>
<trkpt lat="46.38275066" lon="6.13227605"><ele>567.795654</ele><time>2007-02-18T15:18:18Z</time></trkpt>
<trkpt lat="46.38268612" lon="6.13217915"><ele>567.795654</ele><time>2007-02-18T15:18:27Z</time></trkpt>
<trkpt lat="46.38270624" lon="6.13208938"><ele>567.315186</ele><time>2007-02-18T15:18:32Z</time></trkpt>
<trkpt lat="46.38268604" lon="6.13192082"><ele>568.276367</ele><time>2007-02-18T15:18:40Z</time></trkpt>
<trkpt lat="46.38264053" lon="6.13159167"><ele>574.044434</ele><time>2007-02-18T15:18:55Z</time></trkpt>
<trkpt lat="46.38255914" lon="6.13110317"><ele>577.40918</ele><time>2007-02-18T15:19:18Z</time></trkpt>
<trkpt lat="46.38245227" lon="6.13057779"><ele>575.967041</ele><time>2007-02-18T15:19:50Z</time></trkpt>
<trkpt lat="46.38244523" lon="6.13056513"><ele>576.447754</ele><time>2007-02-18T15:19:51Z</time></trkpt>
<trkpt lat="46.38228849" lon="6.13007094"><ele>578.370361</ele><time>2007-02-18T15:20:23Z</time></trkpt>
<trkpt lat="46.38220458" lon="6.12993557"><ele>580.292969</ele><time>2007-02-18T15:20:32Z</time></trkpt>
<trkpt lat="46.38216502" lon="6.12983692"><ele>580.773682</ele><time>2007-02-18T15:20:37Z</time></trkpt>
<trkpt lat="46.38213040" lon="6.12978729"><ele>580.773682</ele><time>2007-02-18T15:20:40Z</time></trkpt>
<trkpt lat="46.38205052" lon="6.12963801"><ele>581.734863</ele><time>2007-02-18T15:20:48Z</time></trkpt>
<trkpt lat="46.38197660" lon="6.12947649"><ele>581.734863</ele><time>2007-02-18T15:20:56Z</time></trkpt>
<trkpt lat="46.38193661" lon="6.12942562"><ele>580.773682</ele><time>2007-02-18T15:21:00Z</time></trkpt>
<trkpt lat="46.38178482" lon="6.12922353"><ele>579.812256</ele><time>2007-02-18T15:21:14Z</time></trkpt>
<trkpt lat="46.38161156" lon="6.12904835"><ele>580.773682</ele><time>2007-02-18T15:21:29Z</time></trkpt>
<trkpt lat="46.38155155" lon="6.12898129"><ele>581.254395</ele><time>2007-02-18T15:21:34Z</time></trkpt>
<trkpt lat="46.38151349" lon="6.12893125"><ele>581.254395</ele><time>2007-02-18T15:21:38Z</time></trkpt>
<trkpt lat="46.38126204" lon="6.12868818"><ele>580.773682</ele><time>2007-02-18T15:21:56Z</time></trkpt>
<trkpt lat="46.38097387" lon="6.12833647"><ele>581.734863</ele><time>2007-02-18T15:22:11Z</time></trkpt>
<trkpt lat="46.38055293" lon="6.12777061"><ele>582.215576</ele><time>2007-02-18T15:22:30Z</time></trkpt>
<trkpt lat="46.38029887" lon="6.12735612"><ele>581.734863</ele><time>2007-02-18T15:22:46Z</time></trkpt>
<trkpt lat="46.37994532" lon="6.12674491"><ele>578.370361</ele><time>2007-02-18T15:23:04Z</time></trkpt>
<trkpt lat="46.37952355" lon="6.12612155"><ele>576.447754</ele><time>2007-02-18T15:23:20Z</time></trkpt>
<trkpt lat="46.37920713" lon="6.12548931"><ele>576.928467</ele><time>2007-02-18T15:23:38Z</time></trkpt>
<trkpt lat="46.37908006" lon="6.12514975"><ele>575.005859</ele><time>2007-02-18T15:23:53Z</time></trkpt>
<trkpt lat="46.37900471" lon="6.12494934"><ele>575.486328</ele><time>2007-02-18T15:24:02Z</time></trkpt>
<trkpt lat="46.37893313" lon="6.12483577"><ele>582.215576</ele><time>2007-02-18T15:24:20Z</time></trkpt>
<trkpt lat="46.37890471" lon="6.12473586"><ele>580.292969</ele><time>2007-02-18T15:24:26Z</time></trkpt>
<trkpt lat="46.37865527" lon="6.12441433"><ele>579.812256</ele><time>2007-02-18T15:24:39Z</time></trkpt>
<trkpt lat="46.37836399" lon="6.12394142"><ele>578.851074</ele><time>2007-02-18T15:24:54Z</time></trkpt>
<trkpt lat="46.37818621" lon="6.12369298"><ele>576.447754</ele><time>2007-02-18T15:25:05Z</time></trkpt>
<trkpt lat="46.37759881" lon="6.12313240"><ele>574.525146</ele><time>2007-02-18T15:25:21Z</time></trkpt>
<trkpt lat="46.37732045" lon="6.12306652"><ele>573.563965</ele><time>2007-02-18T15:25:33Z</time></trkpt>
<trkpt lat="46.37679272" lon="6.12299150"><ele>578.851074</ele><time>2007-02-18T15:25:55Z</time></trkpt>
<trkpt lat="46.37667722" lon="6.12296845"><ele>579.331543</ele><time>2007-02-18T15:25:59Z</time></trkpt>
<trkpt lat="46.37651520" lon="6.12279905"><ele>578.851074</ele><time>2007-02-18T15:26:03Z</time></trkpt>
<trkpt lat="46.37630733" lon="6.12254307"><ele>577.40918</ele><time>2007-02-18T15:26:09Z</time></trkpt>
<trkpt lat="46.37612846" lon="6.12249345"><ele>575.486328</ele><time>2007-02-18T15:26:13Z</time></trkpt>
<trkpt lat="46.37603559" lon="6.12247090"><ele>575.005859</ele><time>2007-02-18T15:26:15Z</time></trkpt>
<trkpt lat="46.37587750" lon="6.12237065"><ele>573.083252</ele><time>2007-02-18T15:26:19Z</time></trkpt>
<trkpt lat="46.37518985" lon="6.12164360"><ele>571.640869</ele><time>2007-02-18T15:26:34Z</time></trkpt>
<trkpt lat="46.37503730" lon="6.12145803"><ele>571.1604</ele><time>2007-02-18T15:26:42Z</time></trkpt>
<trkpt lat="46.37502791" lon="6.12131587"><ele>570.679688</ele><time>2007-02-18T15:26:49Z</time></trkpt>
<trkpt lat="46.37507343" lon="6.12124630"><ele>570.679688</ele><time>2007-02-18T15:26:54Z</time></trkpt>
<trkpt lat="46.37521676" lon="6.12111060"><ele>569.718506</ele><time>2007-02-18T15:27:07Z</time></trkpt>
<trkpt lat="46.37522430" lon="6.12105872"><ele>569.718506</ele><time>2007-02-18T15:27:10Z</time></trkpt>
<trkpt lat="46.37527501" lon="6.12094455"><ele>568.75708</ele><time>2007-02-18T15:27:20Z</time></trkpt>
<trkpt lat="46.37523637" lon="6.12088454"><ele>569.237793</ele><time>2007-02-18T15:27:27Z</time></trkpt>
<trkpt lat="46.37521483" lon="6.12090952"><ele>569.237793</ele><time>2007-02-18T15:27:30Z</time></trkpt>
<trkpt lat="46.37521927" lon="6.12097180"><ele>568.276367</ele><time>2007-02-18T15:27:47Z</time></trkpt>
<trkpt lat="46.37524006" lon="6.12100155"><ele>576.928467</ele><time>2007-02-18T15:29:12Z</time></trkpt>
<trkpt lat="46.37530284" lon="6.12105377"><ele>575.486328</ele><time>2007-02-18T15:29:17Z</time></trkpt>
<trkpt lat="46.37543276" lon="6.12114622"><ele>575.005859</ele><time>2007-02-18T15:29:28Z</time></trkpt>
<trkpt lat="46.37560643" lon="6.12139801"><ele>574.044434</ele><time>2007-02-18T15:29:44Z</time></trkpt>
<trkpt lat="46.37569486" lon="6.12135292"><ele>575.967041</ele><time>2007-02-18T15:30:06Z</time></trkpt>
<trkpt lat="46.37560057" lon="6.12130598"><ele>568.75708</ele><time>2007-02-18T15:40:52Z</time></trkpt>
<trkpt lat="46.37559998" lon="6.12128075"><ele>563.950439</ele><time>2007-02-18T15:41:48Z</time></trkpt>
<trkpt lat="46.37557718" lon="6.12129064"><ele>566.834473</ele><time>2007-02-18T15:42:07Z</time></trkpt>
<trkpt lat="46.37548858" lon="6.12119920"><ele>566.35376</ele><time>2007-02-18T15:42:15Z</time></trkpt>
<trkpt lat="46.37542605" lon="6.12112594"><ele>566.834473</ele><time>2007-02-18T15:42:22Z</time></trkpt>
<trkpt lat="46.37528105" lon="6.12101362"><ele>567.315186</ele><time>2007-02-18T15:42:36Z</time></trkpt>
<trkpt lat="46.37525238" lon="6.12098026"><ele>567.795654</ele><time>2007-02-18T15:42:39Z</time></trkpt>
<trkpt lat="46.37522212" lon="6.12094698"><ele>568.276367</ele><time>2007-02-18T15:42:44Z</time></trkpt>
<trkpt lat="46.37520595" lon="6.12093173"><ele>568.276367</ele><time>2007-02-18T15:42:46Z</time></trkpt>
<trkpt lat="46.37512154" lon="6.12112703"><ele>566.35376</ele><time>2007-02-18T15:42:58Z</time></trkpt>
<trkpt lat="46.37498567" lon="6.12122501"><ele>568.276367</ele><time>2007-02-18T15:43:10Z</time></trkpt>
<trkpt lat="46.37497838" lon="6.12122987"><ele>568.276367</ele><time>2007-02-18T15:43:11Z</time></trkpt>
<trkpt lat="46.37494233" lon="6.12139382"><ele>566.834473</ele><time>2007-02-18T15:43:18Z</time></trkpt>
<trkpt lat="46.37490830" lon="6.12141671"><ele>566.834473</ele><time>2007-02-18T15:43:21Z</time></trkpt>
<trkpt lat="46.37476858" lon="6.12158770"><ele>565.392578</ele><time>2007-02-18T15:43:36Z</time></trkpt>
<trkpt lat="46.37465207" lon="6.12160438"><ele>564.911865</ele><time>2007-02-18T15:43:44Z</time></trkpt>
<trkpt lat="46.37448929" lon="6.12138494"><ele>563.950439</ele><time>2007-02-18T15:44:00Z</time></trkpt>
<trkpt lat="46.37428821" lon="6.12114212"><ele>563.469971</ele><time>2007-02-18T15:44:13Z</time></trkpt>
<trkpt lat="46.37396886" lon="6.12077415"><ele>563.950439</ele><time>2007-02-18T15:44:27Z</time></trkpt>
<trkpt lat="46.37362034" lon="6.12025858"><ele>565.392578</ele><time>2007-02-18T15:44:46Z</time></trkpt>
<trkpt lat="46.37345404" lon="6.12006311"><ele>568.276367</ele><time>2007-02-18T15:44:53Z</time></trkpt>
<trkpt lat="46.37264293" lon="6.12030359"><ele>683.153809</ele><time>2007-02-18T15:44:55Z</time></trkpt>
<trkpt lat="46.37316361" lon="6.11962021"><ele>566.834473</ele><time>2007-02-18T15:45:08Z</time></trkpt>
<trkpt lat="46.37286505" lon="6.11927203"><ele>567.315186</ele><time>2007-02-18T15:45:25Z</time></trkpt>
<trkpt lat="46.37270956" lon="6.11910322"><ele>568.75708</ele><time>2007-02-18T15:45:36Z</time></trkpt>
<trkpt lat="46.37265919" lon="6.11905050"><ele>568.75708</ele><time>2007-02-18T15:45:40Z</time></trkpt>
<trkpt lat="46.37262776" lon="6.11900649"><ele>568.75708</ele><time>2007-02-18T15:45:43Z</time></trkpt>
<trkpt lat="46.37243791" lon="6.11881010"><ele>571.1604</ele><time>2007-02-18T15:46:00Z</time></trkpt>
<trkpt lat="46.37242952" lon="6.11879493"><ele>571.1604</ele><time>2007-02-18T15:46:01Z</time></trkpt>
<trkpt lat="46.37234537" lon="6.11871120"><ele>571.640869</ele><time>2007-02-18T15:46:09Z</time></trkpt>
<trkpt lat="46.37224152" lon="6.11860617"><ele>573.563965</ele><time>2007-02-18T15:46:19Z</time></trkpt>
<trkpt lat="46.37215225" lon="6.11850685"><ele>574.044434</ele><time>2007-02-18T15:46:27Z</time></trkpt>
<trkpt lat="46.37211168" lon="6.11845295"><ele>574.044434</ele><time>2007-02-18T15:46:31Z</time></trkpt>
<trkpt lat="46.37205007" lon="6.11839436"><ele>574.525146</ele><time>2007-02-18T15:46:36Z</time></trkpt>
<trkpt lat="46.37202996" lon="6.11836343"><ele>574.525146</ele><time>2007-02-18T15:46:38Z</time></trkpt>
<trkpt lat="46.37197196" lon="6.11829830"><ele>572.602539</ele><time>2007-02-18T15:46:43Z</time></trkpt>
<trkpt lat="46.37182561" lon="6.11817928"><ele>572.602539</ele><time>2007-02-18T15:46:56Z</time></trkpt>
<trkpt lat="46.37176224" lon="6.11808465"><ele>573.563965</ele><time>2007-02-18T15:47:01Z</time></trkpt>
<trkpt lat="46.37155110" lon="6.11783721"><ele>575.005859</ele><time>2007-02-18T15:47:19Z</time></trkpt>
<trkpt lat="46.37150508" lon="6.11777980"><ele>575.486328</ele><time>2007-02-18T15:47:23Z</time></trkpt>
<trkpt lat="46.37141406" lon="6.11762113"><ele>578.851074</ele><time>2007-02-18T15:47:36Z</time></trkpt>
<trkpt lat="46.37134952" lon="6.11763110"><ele>577.40918</ele><time>2007-02-18T15:47:43Z</time></trkpt>
<trkpt lat="46.37115405" lon="6.11744192"><ele>576.447754</ele><time>2007-02-18T15:48:00Z</time></trkpt>
<trkpt lat="46.37105271" lon="6.11736104"><ele>576.447754</ele><time>2007-02-18T15:48:07Z</time></trkpt>
<trkpt lat="46.37105179" lon="6.11742147"><ele>576.928467</ele><time>2007-02-18T15:48:11Z</time></trkpt>
<trkpt lat="46.37114299" lon="6.11752465"><ele>576.447754</ele><time>2007-02-18T15:48:20Z</time></trkpt>
<trkpt lat="46.37116084" lon="6.11753002"><ele>577.40918</ele><time>2007-02-18T15:48:30Z</time></trkpt>
<trkpt lat="46.37113159" lon="6.11761426"><ele>584.138184</ele><time>2007-02-18T15:48:33Z</time></trkpt>
<trkpt lat="46.37113838" lon="6.11759548"><ele>586.541504</ele><time>2007-02-18T15:48:44Z</time></trkpt>
<trkpt lat="46.37133694" lon="6.11775918"><ele>582.696289</ele><time>2007-02-18T15:49:01Z</time></trkpt>
<trkpt lat="46.37159167" lon="6.11803352"><ele>580.773682</ele><time>2007-02-18T15:49:15Z</time></trkpt>
<trkpt lat="46.37204932" lon="6.11852277"><ele>578.851074</ele><time>2007-02-18T15:49:31Z</time></trkpt>
<trkpt lat="46.37272490" lon="6.11923926"><ele>572.602539</ele><time>2007-02-18T15:49:44Z</time></trkpt>
<trkpt lat="46.37343275" lon="6.12010628"><ele>567.795654</ele><time>2007-02-18T15:49:57Z</time></trkpt>
<trkpt lat="46.37377205" lon="6.12060936"><ele>563.950439</ele><time>2007-02-18T15:50:06Z</time></trkpt>
<trkpt lat="46.37372386" lon="6.12066845"><ele>594.232178</ele><time>2007-02-18T15:50:09Z</time></trkpt>
<trkpt lat="46.37428561" lon="6.12048606"><ele>602.883789</ele><time>2007-02-18T15:50:10Z</time></trkpt>
<trkpt lat="46.37408679" lon="6.12101228"><ele>619.226318</ele><time>2007-02-18T15:50:15Z</time></trkpt>
<trkpt lat="46.37458032" lon="6.12162307"><ele>597.115967</ele><time>2007-02-18T15:50:33Z</time></trkpt>
<trkpt lat="46.37459440" lon="6.12165635"><ele>584.618896</ele><time>2007-02-18T15:50:50Z</time></trkpt>
<trkpt lat="46.37463044" lon="6.12167898"><ele>580.773682</ele><time>2007-02-18T15:51:06Z</time></trkpt>
<trkpt lat="46.37481619" lon="6.12162265"><ele>577.889648</ele><time>2007-02-18T15:51:16Z</time></trkpt>
<trkpt lat="46.37512615" lon="6.12163229"><ele>574.044434</ele><time>2007-02-18T15:51:32Z</time></trkpt>
<trkpt lat="46.37556855" lon="6.12185919"><ele>573.563965</ele><time>2007-02-18T15:51:52Z</time></trkpt>
<trkpt lat="46.37579544" lon="6.12219388"><ele>574.525146</ele><time>2007-02-18T15:52:11Z</time></trkpt>
<trkpt lat="46.37588915" lon="6.12235456"><ele>574.044434</ele><time>2007-02-18T15:52:28Z</time></trkpt>
<trkpt lat="46.37597490" lon="6.12241633"><ele>575.486328</ele><time>2007-02-18T15:52:41Z</time></trkpt>
<trkpt lat="46.37606014" lon="6.12245296"><ele>575.967041</ele><time>2007-02-18T15:52:52Z</time></trkpt>
<trkpt lat="46.37616634" lon="6.12244911"><ele>576.447754</ele><time>2007-02-18T15:53:06Z</time></trkpt>
<trkpt lat="46.37620892" lon="6.12247249"><ele>576.447754</ele><time>2007-02-18T15:53:10Z</time></trkpt>
<trkpt lat="46.37628780" lon="6.12254835"><ele>576.447754</ele><time>2007-02-18T15:53:25Z</time></trkpt>
<trkpt lat="46.37642669" lon="6.12269780"><ele>577.889648</ele><time>2007-02-18T15:54:00Z</time></trkpt>
<trkpt lat="46.37678350" lon="6.12303039"><ele>579.331543</ele><time>2007-02-18T15:54:21Z</time></trkpt>
<trkpt lat="46.37753989" lon="6.12333901"><ele>580.292969</ele><time>2007-02-18T15:54:48Z</time></trkpt>
<trkpt lat="46.37775203" lon="6.12347513"><ele>580.292969</ele><time>2007-02-18T15:54:54Z</time></trkpt>
<trkpt lat="46.37780014" lon="6.12356490"><ele>580.773682</ele><time>2007-02-18T15:54:57Z</time></trkpt>
<trkpt lat="46.37828462" lon="6.12407092"><ele>578.851074</ele><time>2007-02-18T15:55:16Z</time></trkpt>
<trkpt lat="46.37869709" lon="6.12456906"><ele>580.773682</ele><time>2007-02-18T15:55:36Z</time></trkpt>
<trkpt lat="46.37893505" lon="6.12495278"><ele>580.773682</ele><time>2007-02-18T15:55:53Z</time></trkpt>
<trkpt lat="46.37911954" lon="6.12534095"><ele>580.292969</ele><time>2007-02-18T15:56:09Z</time></trkpt>
<trkpt lat="46.37934350" lon="6.12590111"><ele>578.851074</ele><time>2007-02-18T15:56:26Z</time></trkpt>
<trkpt lat="46.37981415" lon="6.12656806"><ele>580.292969</ele><time>2007-02-18T15:56:44Z</time></trkpt>
<trkpt lat="46.37998480" lon="6.12688632"><ele>581.254395</ele><time>2007-02-18T15:56:50Z</time></trkpt>
<trkpt lat="46.38036719" lon="6.12753038"><ele>583.657471</ele><time>2007-02-18T15:57:06Z</time></trkpt>
<trkpt lat="46.38078234" lon="6.12808459"><ele>581.734863</ele><time>2007-02-18T15:57:24Z</time></trkpt>
<trkpt lat="46.38108434" lon="6.12846077"><ele>583.176758</ele><time>2007-02-18T15:57:41Z</time></trkpt>
<trkpt lat="46.38149455" lon="6.12888632"><ele>582.696289</ele><time>2007-02-18T15:58:02Z</time></trkpt>
<trkpt lat="46.38190250" lon="6.12932252"><ele>582.215576</ele><time>2007-02-18T15:58:21Z</time></trkpt>
<trkpt lat="46.38207911" lon="6.12956744"><ele>580.773682</ele><time>2007-02-18T15:58:28Z</time></trkpt>
<trkpt lat="46.38199260" lon="6.12882757"><ele>570.198975</ele><time>2007-02-18T15:58:30Z</time></trkpt>
<trkpt lat="46.38329105" lon="6.12707458"><ele>115.014893</ele><time>2007-02-18T15:58:31Z</time></trkpt>
<trkpt lat="46.38366194" lon="6.12636480"><ele>-20.531006</ele><time>2007-02-18T15:58:32Z</time></trkpt>
<trkpt lat="46.38415145" lon="6.12577756"><ele>-46.005859</ele><time>2007-02-18T15:58:35Z</time></trkpt>
<trkpt lat="46.38218371" lon="6.13052825"><ele>648.546387</ele><time>2007-02-18T15:58:38Z</time></trkpt>
<trkpt lat="46.38245529" lon="6.13014570"><ele>598.077393</ele><time>2007-02-18T15:58:39Z</time></trkpt>
<trkpt lat="46.38271479" lon="6.12999164"><ele>453.879639</ele><time>2007-02-18T15:58:40Z</time></trkpt>
<trkpt lat="46.38257775" lon="6.13018879"><ele>573.563965</ele><time>2007-02-18T15:58:42Z</time></trkpt>
<trkpt lat="46.38250952" lon="6.13065641"><ele>566.834473</ele><time>2007-02-18T15:58:47Z</time></trkpt>
<trkpt lat="46.38269945" lon="6.13190590"><ele>570.679688</ele><time>2007-02-18T15:58:59Z</time></trkpt>
<trkpt lat="46.38271110" lon="6.13199442"><ele>570.679688</ele><time>2007-02-18T15:59:00Z</time></trkpt>
<trkpt lat="46.38302031" lon="6.13334566"><ele>568.276367</ele><time>2007-02-18T15:59:16Z</time></trkpt>
<trkpt lat="46.38320345" lon="6.13480629"><ele>566.35376</ele><time>2007-02-18T15:59:29Z</time></trkpt>
<trkpt lat="46.38324302" lon="6.13504426"><ele>565.873291</ele><time>2007-02-18T15:59:31Z</time></trkpt>
<trkpt lat="46.38377829" lon="6.13573601"><ele>563.950439</ele><time>2007-02-18T15:59:42Z</time></trkpt>
<trkpt lat="46.38420082" lon="6.13612058"><ele>564.431152</ele><time>2007-02-18T15:59:51Z</time></trkpt>
<trkpt lat="46.38488780" lon="6.13640992"><ele>564.911865</ele><time>2007-02-18T16:00:06Z</time></trkpt>
<trkpt lat="46.38542139" lon="6.13680286"><ele>563.950439</ele><time>2007-02-18T16:00:21Z</time></trkpt>
<trkpt lat="46.38621725" lon="6.13736445"><ele>563.950439</ele><time>2007-02-18T16:00:40Z</time></trkpt>
<trkpt lat="46.38668437" lon="6.13766855"><ele>565.392578</ele><time>2007-02-18T16:00:55Z</time></trkpt>
<trkpt lat="46.38703683" lon="6.13788321"><ele>564.911865</ele><time>2007-02-18T16:01:12Z</time></trkpt>
<trkpt lat="46.38735375" lon="6.13805772"><ele>565.392578</ele><time>2007-02-18T16:01:29Z</time></trkpt>
<trkpt lat="46.38778341" lon="6.13829811"><ele>565.873291</ele><time>2007-02-18T16:01:48Z</time></trkpt>
<trkpt lat="46.38827551" lon="6.13867940"><ele>564.911865</ele><time>2007-02-18T16:02:07Z</time></trkpt>
<trkpt lat="46.38839914" lon="6.13880622"><ele>564.911865</ele><time>2007-02-18T16:02:13Z</time></trkpt>
<trkpt lat="46.38877583" lon="6.13887227"><ele>564.911865</ele><time>2007-02-18T16:02:33Z</time></trkpt>
<trkpt lat="46.38921043" lon="6.13917771"><ele>564.911865</ele><time>2007-02-18T16:02:50Z</time></trkpt>
<trkpt lat="46.38975592" lon="6.13987064"><ele>564.911865</ele><time>2007-02-18T16:03:10Z</time></trkpt>
<trkpt lat="46.39038331" lon="6.14057329"><ele>562.508545</ele><time>2007-02-18T16:03:33Z</time></trkpt>
<trkpt lat="46.39046486" lon="6.14069927"><ele>562.028076</ele><time>2007-02-18T16:03:36Z</time></trkpt>
<trkpt lat="46.39093786" lon="6.14153562"><ele>560.585938</ele><time>2007-02-18T16:03:57Z</time></trkpt>
<trkpt lat="46.39093249" lon="6.14168490"><ele>560.105225</ele><time>2007-02-18T16:04:01Z</time></trkpt>
<trkpt lat="46.39086770" lon="6.14179806"><ele>559.144043</ele><time>2007-02-18T16:04:03Z</time></trkpt>
<trkpt lat="46.39014971" lon="6.14237767"><ele>555.298584</ele><time>2007-02-18T16:04:15Z</time></trkpt>
<trkpt lat="46.39017234" lon="6.14249694"><ele>555.298584</ele><time>2007-02-18T16:04:21Z</time></trkpt>
<trkpt lat="46.39022917" lon="6.14258160"><ele>555.779297</ele><time>2007-02-18T16:04:30Z</time></trkpt>
<trkpt lat="46.39030351" lon="6.14265393"><ele>556.26001</ele><time>2007-02-18T16:04:32Z</time></trkpt>
<trkpt lat="46.39096459" lon="6.14327839"><ele>555.298584</ele><time>2007-02-18T16:04:51Z</time></trkpt>
<trkpt lat="46.39113659" lon="6.14342490"><ele>555.298584</ele><time>2007-02-18T16:04:56Z</time></trkpt>
<trkpt lat="46.39132141" lon="6.14357452"><ele>555.779297</ele><time>2007-02-18T16:05:01Z</time></trkpt>
<trkpt lat="46.39183958" lon="6.14397727"><ele>557.221436</ele><time>2007-02-18T16:05:18Z</time></trkpt>
<trkpt lat="46.39234073" lon="6.14431732"><ele>558.66333</ele><time>2007-02-18T16:05:39Z</time></trkpt>
<trkpt lat="46.39275991" lon="6.14458135"><ele>559.144043</ele><time>2007-02-18T16:05:59Z</time></trkpt>
<trkpt lat="46.39329527" lon="6.14508712"><ele>559.624756</ele><time>2007-02-18T16:06:19Z</time></trkpt>
<trkpt lat="46.39363507" lon="6.14537864"><ele>560.585938</ele><time>2007-02-18T16:06:35Z</time></trkpt>
<trkpt lat="46.39385886" lon="6.14549129"><ele>562.989258</ele><time>2007-02-18T16:06:53Z</time></trkpt>
<trkpt lat="46.39401695" lon="6.14553714"><ele>564.431152</ele><time>2007-02-18T16:07:09Z</time></trkpt>
<trkpt lat="46.39422113" lon="6.14554896"><ele>564.911865</ele><time>2007-02-18T16:07:24Z</time></trkpt>
<trkpt lat="46.39427285" lon="6.14556053"><ele>565.392578</ele><time>2007-02-18T16:07:27Z</time></trkpt>
<trkpt lat="46.39461164" lon="6.14573873"><ele>567.315186</ele><time>2007-02-18T16:07:49Z</time></trkpt>
<trkpt lat="46.39487970" lon="6.14589815"><ele>568.75708</ele><time>2007-02-18T16:08:08Z</time></trkpt>
<trkpt lat="46.39509846" lon="6.14602530"><ele>569.718506</ele><time>2007-02-18T16:08:25Z</time></trkpt>
<trkpt lat="46.39531136" lon="6.14623225"><ele>568.276367</ele><time>2007-02-18T16:08:39Z</time></trkpt>
<trkpt lat="46.39579374" lon="6.14691345"><ele>566.35376</ele><time>2007-02-18T16:09:03Z</time></trkpt>
<trkpt lat="46.39622709" lon="6.14755508"><ele>565.392578</ele><time>2007-02-18T16:09:27Z</time></trkpt>
<trkpt lat="46.39684316" lon="6.14841197"><ele>563.950439</ele><time>2007-02-18T16:09:49Z</time></trkpt>
<trkpt lat="46.39750566" lon="6.14948544"><ele>562.508545</ele><time>2007-02-18T16:10:07Z</time></trkpt>
<trkpt lat="46.39878114" lon="6.15115260"><ele>564.431152</ele><time>2007-02-18T16:10:40Z</time></trkpt>
<trkpt lat="46.39950559" lon="6.15177152"><ele>565.392578</ele><time>2007-02-18T16:11:02Z</time></trkpt>
<trkpt lat="46.39984757" lon="6.15202281"><ele>567.315186</ele><time>2007-02-18T16:11:23Z</time></trkpt>
<trkpt lat="46.39984949" lon="6.15201753"><ele>568.75708</ele><time>2007-02-18T16:11:42Z</time></trkpt>
<trkpt lat="46.40005385" lon="6.15222917"><ele>571.640869</ele><time>2007-02-18T16:12:19Z</time></trkpt>
<trkpt lat="46.40045391" lon="6.15257953"><ele>569.718506</ele><time>2007-02-18T16:12:33Z</time></trkpt>
<trkpt lat="46.40091701" lon="6.15310726"><ele>569.237793</ele><time>2007-02-18T16:12:50Z</time></trkpt>
<trkpt lat="46.40118909" lon="6.15345980"><ele>567.315186</ele><time>2007-02-18T16:13:04Z</time></trkpt>
<trkpt lat="46.40126428" lon="6.15361512"><ele>567.315186</ele><time>2007-02-18T16:13:14Z</time></trkpt>
<trkpt lat="46.40131909" lon="6.15367429"><ele>566.834473</ele><time>2007-02-18T16:13:20Z</time></trkpt>
<trkpt lat="46.40143133" lon="6.15382567"><ele>566.35376</ele><time>2007-02-18T16:13:34Z</time></trkpt>
<trkpt lat="46.40157281" lon="6.15406606"><ele>565.873291</ele><time>2007-02-18T16:13:52Z</time></trkpt>
<trkpt lat="46.40158815" lon="6.15409909"><ele>566.35376</ele><time>2007-02-18T16:13:54Z</time></trkpt>
<trkpt lat="46.40167164" lon="6.15425072"><ele>566.35376</ele><time>2007-02-18T16:14:02Z</time></trkpt>
<trkpt lat="46.40168848" lon="6.15427880"><ele>566.35376</ele><time>2007-02-18T16:14:04Z</time></trkpt>
<trkpt lat="46.40178471" lon="6.15443227"><ele>566.834473</ele><time>2007-02-18T16:14:17Z</time></trkpt>
<trkpt lat="46.40179820" lon="6.15445398"><ele>566.834473</ele><time>2007-02-18T16:14:19Z</time></trkpt>
<trkpt lat="46.40186911" lon="6.15465925"><ele>567.315186</ele><time>2007-02-18T16:14:35Z</time></trkpt>
<trkpt lat="46.40203047" lon="6.15509100"><ele>567.795654</ele><time>2007-02-18T16:14:59Z</time></trkpt>
<trkpt lat="46.40238628" lon="6.15578075"><ele>569.237793</ele><time>2007-02-18T16:15:26Z</time></trkpt>
<trkpt lat="46.40291266" lon="6.15667250"><ele>570.198975</ele><time>2007-02-18T16:15:56Z</time></trkpt>
<trkpt lat="46.40329689" lon="6.15733257"><ele>568.276367</ele><time>2007-02-18T16:16:16Z</time></trkpt>
<trkpt lat="46.40372495" lon="6.15844938"><ele>568.75708</ele><time>2007-02-18T16:16:37Z</time></trkpt>
<trkpt lat="46.40385043" lon="6.15883143"><ele>568.276367</ele><time>2007-02-18T16:16:48Z</time></trkpt>
<trkpt lat="46.40413927" lon="6.15945186"><ele>567.315186</ele><time>2007-02-18T16:17:02Z</time></trkpt>
<trkpt lat="46.40451746" lon="6.16017899"><ele>564.911865</ele><time>2007-02-18T16:17:15Z</time></trkpt>
<trkpt lat="46.40467336" lon="6.16041016"><ele>563.950439</ele><time>2007-02-18T16:17:20Z</time></trkpt>
<trkpt lat="46.40529455" lon="6.16126419"><ele>561.547363</ele><time>2007-02-18T16:17:38Z</time></trkpt>
<trkpt lat="46.40563494" lon="6.16180893"><ele>560.585938</ele><time>2007-02-18T16:17:53Z</time></trkpt>
<trkpt lat="46.40601874" lon="6.16225870"><ele>560.105225</ele><time>2007-02-18T16:18:07Z</time></trkpt>
<trkpt lat="46.40622846" lon="6.16252868"><ele>560.105225</ele><time>2007-02-18T16:18:14Z</time></trkpt>
<trkpt lat="46.40630197" lon="6.16268073"><ele>560.585938</ele><time>2007-02-18T16:18:17Z</time></trkpt>
<trkpt lat="46.40650976" lon="6.16344474"><ele>561.06665</ele><time>2007-02-18T16:18:34Z</time></trkpt>
<trkpt lat="46.40670388" lon="6.16406173"><ele>561.547363</ele><time>2007-02-18T16:18:51Z</time></trkpt>
<trkpt lat="46.40697453" lon="6.16463296"><ele>561.547363</ele><time>2007-02-18T16:19:11Z</time></trkpt>
<trkpt lat="46.40729774" lon="6.16524132"><ele>562.028076</ele><time>2007-02-18T16:19:30Z</time></trkpt>
<trkpt lat="46.40759697" lon="6.16563963"><ele>561.06665</ele><time>2007-02-18T16:19:45Z</time></trkpt>
<trkpt lat="46.40786469" lon="6.16604732"><ele>562.028076</ele><time>2007-02-18T16:20:00Z</time></trkpt>
<trkpt lat="46.40818647" lon="6.16650154"><ele>562.989258</ele><time>2007-02-18T16:20:16Z</time></trkpt>
<trkpt lat="46.40855360" lon="6.16699322"><ele>563.469971</ele><time>2007-02-18T16:20:33Z</time></trkpt>
<trkpt lat="46.40903606" lon="6.16767316"><ele>563.950439</ele><time>2007-02-18T16:20:53Z</time></trkpt>
<trkpt lat="46.40919507" lon="6.16822897"><ele>562.989258</ele><time>2007-02-18T16:21:07Z</time></trkpt>
<trkpt lat="46.40920353" lon="6.16836718"><ele>562.989258</ele><time>2007-02-18T16:21:09Z</time></trkpt>
<trkpt lat="46.40919155" lon="6.16878552"><ele>561.547363</ele><time>2007-02-18T16:21:14Z</time></trkpt>
<trkpt lat="46.40901997" lon="6.16918894"><ele>560.585938</ele><time>2007-02-18T16:21:19Z</time></trkpt>
<trkpt lat="46.40879206" lon="6.16950687"><ele>559.624756</ele><time>2007-02-18T16:21:23Z</time></trkpt>
<trkpt lat="46.40844665" lon="6.17034581"><ele>556.740723</ele><time>2007-02-18T16:21:30Z</time></trkpt>
<trkpt lat="46.40823039" lon="6.17159472"><ele>554.337402</ele><time>2007-02-18T16:21:39Z</time></trkpt>
<trkpt lat="46.40801053" lon="6.17205380"><ele>552.895264</ele><time>2007-02-18T16:21:43Z</time></trkpt>
<trkpt lat="46.40782764" lon="6.17237809"><ele>551.453369</ele><time>2007-02-18T16:21:46Z</time></trkpt>
<trkpt lat="46.40753587" lon="6.17310438"><ele>550.011475</ele><time>2007-02-18T16:21:52Z</time></trkpt>
<trkpt lat="46.40738416" lon="6.17363228"><ele>547.608154</ele><time>2007-02-18T16:21:56Z</time></trkpt>
<trkpt lat="46.40737225" lon="6.17467088"><ele>548.569336</ele><time>2007-02-18T16:22:06Z</time></trkpt>
<trkpt lat="46.40735993" lon="6.17481337"><ele>549.050049</ele><time>2007-02-18T16:22:08Z</time></trkpt>
<trkpt lat="46.40733470" lon="6.17551611"><ele>549.050049</ele><time>2007-02-18T16:22:24Z</time></trkpt>
<trkpt lat="46.40733470" lon="6.17606009"><ele>550.492188</ele><time>2007-02-18T16:22:39Z</time></trkpt>
<trkpt lat="46.40746211" lon="6.17634709"><ele>547.608154</ele><time>2007-02-18T16:22:50Z</time></trkpt>
<trkpt lat="46.40794465" lon="6.17670525"><ele>547.608154</ele><time>2007-02-18T16:23:06Z</time></trkpt>
<trkpt lat="46.40846668" lon="6.17703893"><ele>547.608154</ele><time>2007-02-18T16:23:22Z</time></trkpt>
<trkpt lat="46.40868050" lon="6.17727740"><ele>547.127441</ele><time>2007-02-18T16:23:34Z</time></trkpt>
<trkpt lat="46.40869483" lon="6.17727463"><ele>545.685547</ele><time>2007-02-18T16:23:46Z</time></trkpt>
<trkpt lat="46.40882417" lon="6.17742165"><ele>548.569336</ele><time>2007-02-18T16:25:47Z</time></trkpt>
<trkpt lat="46.40888745" lon="6.17752542"><ele>548.569336</ele><time>2007-02-18T16:25:52Z</time></trkpt>
<trkpt lat="46.40882484" lon="6.17766808"><ele>549.050049</ele><time>2007-02-18T16:25:58Z</time></trkpt>
<trkpt lat="46.40877647" lon="6.17784410"><ele>549.050049</ele><time>2007-02-18T16:26:14Z</time></trkpt>
<trkpt lat="46.40875510" lon="6.17787528"><ele>552.414551</ele><time>2007-02-18T16:26:43Z</time></trkpt>
<trkpt lat="46.40875527" lon="6.17784594"><ele>544.243652</ele><time>2007-02-18T16:27:22Z</time></trkpt>
<trkpt lat="46.40876013" lon="6.17784209"><ele>538.475708</ele><time>2007-02-18T16:27:32Z</time></trkpt>
</trkseg></trk></gpx>